<?xml version="1.0" encoding="UTF-8" standalone="no" ?>
<gpx xmlns="http://www.topografix.com/GPX/1/1" xmlns:xsi="http://www.w3.org/2001/XMLSchema-instance" xsi:schemaLocation="http://www.topografix.com/GPX/1/1 http://www.topografix.com/GPX/1/1/gpx.xsd" version="1.1" creator="VisuGPX - https://www.visugpx.com">
  <metadata>
    <name>Sortie du 18-05-2015 - Circuit du lac de ROAFFAN</name>
    <desc><![CDATA[Distance: 7,9Km
Dénivelé: 330m
Durée: 2H 30]]></desc>
  </metadata>
  <trk>
    <name><![CDATA[Tracé actuel: 18 MAI 2015 12:36]]></name>
    <trkseg>
      <trkpt lat="44.74563" lon="6.03383">
        <ele>1109.98</ele>
        <time>2015-05-18T11:42:53Z</time>
      </trkpt>
      <trkpt lat="44.74566" lon="6.03386">
        <ele>1106.61</ele>
        <time>2015-05-18T11:42:57Z</time>
      </trkpt>
      <trkpt lat="44.74567" lon="6.03387">
        <ele>1107.1</ele>
        <time>2015-05-18T11:42:58Z</time>
      </trkpt>
      <trkpt lat="44.74567" lon="6.03388">
        <ele>1106.13</ele>
        <time>2015-05-18T11:42:59Z</time>
      </trkpt>
      <trkpt lat="44.74575" lon="6.03395">
        <ele>1103.25</ele>
        <time>2015-05-18T11:43:06Z</time>
      </trkpt>
      <trkpt lat="44.74576" lon="6.03401">
        <ele>1103.73</ele>
        <time>2015-05-18T11:43:09Z</time>
      </trkpt>
      <trkpt lat="44.74576" lon="6.0341">
        <ele>1102.29</ele>
        <time>2015-05-18T11:43:13Z</time>
      </trkpt>
      <trkpt lat="44.74573" lon="6.03421">
        <ele>1101.33</ele>
        <time>2015-05-18T11:43:19Z</time>
      </trkpt>
      <trkpt lat="44.74572" lon="6.03423">
        <ele>1098.44</ele>
        <time>2015-05-18T11:43:29Z</time>
      </trkpt>
      <trkpt lat="44.74567" lon="6.03425">
        <ele>1096.04</ele>
        <time>2015-05-18T11:43:59Z</time>
      </trkpt>
      <trkpt lat="44.74566" lon="6.03425">
        <ele>1094.6</ele>
        <time>2015-05-18T11:44:13Z</time>
      </trkpt>
      <trkpt lat="44.74566" lon="6.03425">
        <ele>1098.44</ele>
        <time>2015-05-18T11:44:14Z</time>
      </trkpt>
      <trkpt lat="44.74566" lon="6.03425">
        <ele>1097.48</ele>
        <time>2015-05-18T11:44:18Z</time>
      </trkpt>
      <trkpt lat="44.74575" lon="6.03413">
        <ele>1098.44</ele>
        <time>2015-05-18T11:44:28Z</time>
      </trkpt>
      <trkpt lat="44.74576" lon="6.03408">
        <ele>1097</ele>
        <time>2015-05-18T11:44:31Z</time>
      </trkpt>
      <trkpt lat="44.74578" lon="6.03399">
        <ele>1098.44</ele>
        <time>2015-05-18T11:44:35Z</time>
      </trkpt>
      <trkpt lat="44.74578" lon="6.03396">
        <ele>1097.96</ele>
        <time>2015-05-18T11:44:36Z</time>
      </trkpt>
      <trkpt lat="44.74572" lon="6.03386">
        <ele>1095.56</ele>
        <time>2015-05-18T11:44:48Z</time>
      </trkpt>
      <trkpt lat="44.74569" lon="6.03385">
        <ele>1095.56</ele>
        <time>2015-05-18T11:44:59Z</time>
      </trkpt>
      <trkpt lat="44.74563" lon="6.03378">
        <ele>1095.08</ele>
        <time>2015-05-18T11:45:18Z</time>
      </trkpt>
      <trkpt lat="44.74564" lon="6.03365">
        <ele>1095.56</ele>
        <time>2015-05-18T11:45:34Z</time>
      </trkpt>
      <trkpt lat="44.74569" lon="6.03355">
        <ele>1095.08</ele>
        <time>2015-05-18T11:45:43Z</time>
      </trkpt>
      <trkpt lat="44.74569" lon="6.03352">
        <ele>1095.56</ele>
        <time>2015-05-18T11:48:12Z</time>
      </trkpt>
      <trkpt lat="44.74569" lon="6.03352">
        <ele>1095.56</ele>
        <time>2015-05-18T11:48:45Z</time>
      </trkpt>
      <trkpt lat="44.74569" lon="6.03352">
        <ele>1095.56</ele>
        <time>2015-05-18T11:48:50Z</time>
      </trkpt>
      <trkpt lat="44.74568" lon="6.03351">
        <ele>1095.56</ele>
        <time>2015-05-18T11:49:14Z</time>
      </trkpt>
      <trkpt lat="44.74568" lon="6.03352">
        <ele>1095.08</ele>
        <time>2015-05-18T11:49:35Z</time>
      </trkpt>
      <trkpt lat="44.74576" lon="6.03356">
        <ele>1093.64</ele>
        <time>2015-05-18T11:49:55Z</time>
      </trkpt>
      <trkpt lat="44.7458" lon="6.03359">
        <ele>1095.08</ele>
        <time>2015-05-18T11:49:58Z</time>
      </trkpt>
      <trkpt lat="44.74587" lon="6.03364">
        <ele>1095.08</ele>
        <time>2015-05-18T11:50:05Z</time>
      </trkpt>
      <trkpt lat="44.74592" lon="6.03366">
        <ele>1097.48</ele>
        <time>2015-05-18T11:50:08Z</time>
      </trkpt>
      <trkpt lat="44.74594" lon="6.03368">
        <ele>1097</ele>
        <time>2015-05-18T11:50:10Z</time>
      </trkpt>
      <trkpt lat="44.74606" lon="6.03377">
        <ele>1096.04</ele>
        <time>2015-05-18T11:50:21Z</time>
      </trkpt>
      <trkpt lat="44.74609" lon="6.0338">
        <ele>1099.4</ele>
        <time>2015-05-18T11:50:26Z</time>
      </trkpt>
      <trkpt lat="44.7461" lon="6.03382">
        <ele>1095.56</ele>
        <time>2015-05-18T11:50:29Z</time>
      </trkpt>
      <trkpt lat="44.74613" lon="6.03385">
        <ele>1099.4</ele>
        <time>2015-05-18T11:50:32Z</time>
      </trkpt>
      <trkpt lat="44.74631" lon="6.03395">
        <ele>1100.85</ele>
        <time>2015-05-18T11:50:52Z</time>
      </trkpt>
      <trkpt lat="44.74633" lon="6.03396">
        <ele>1101.33</ele>
        <time>2015-05-18T11:50:55Z</time>
      </trkpt>
      <trkpt lat="44.74643" lon="6.03413">
        <ele>1103.73</ele>
        <time>2015-05-18T11:51:11Z</time>
      </trkpt>
      <trkpt lat="44.74656" lon="6.03428">
        <ele>1102.29</ele>
        <time>2015-05-18T11:51:27Z</time>
      </trkpt>
      <trkpt lat="44.74659" lon="6.03433">
        <ele>1105.17</ele>
        <time>2015-05-18T11:51:31Z</time>
      </trkpt>
      <trkpt lat="44.7466" lon="6.03435">
        <ele>1102.77</ele>
        <time>2015-05-18T11:51:34Z</time>
      </trkpt>
      <trkpt lat="44.74665" lon="6.0344">
        <ele>1106.13</ele>
        <time>2015-05-18T11:51:39Z</time>
      </trkpt>
      <trkpt lat="44.74675" lon="6.03447">
        <ele>1104.69</ele>
        <time>2015-05-18T11:51:56Z</time>
      </trkpt>
      <trkpt lat="44.74678" lon="6.03453">
        <ele>1104.21</ele>
        <time>2015-05-18T11:52:06Z</time>
      </trkpt>
      <trkpt lat="44.7468" lon="6.03457">
        <ele>1107.58</ele>
        <time>2015-05-18T11:52:10Z</time>
      </trkpt>
      <trkpt lat="44.74684" lon="6.03463">
        <ele>1105.65</ele>
        <time>2015-05-18T11:52:17Z</time>
      </trkpt>
      <trkpt lat="44.74682" lon="6.03475">
        <ele>1106.61</ele>
        <time>2015-05-18T11:52:26Z</time>
      </trkpt>
      <trkpt lat="44.74679" lon="6.03483">
        <ele>1105.17</ele>
        <time>2015-05-18T11:52:32Z</time>
      </trkpt>
      <trkpt lat="44.74677" lon="6.03486">
        <ele>1106.61</ele>
        <time>2015-05-18T11:52:34Z</time>
      </trkpt>
      <trkpt lat="44.74671" lon="6.03506">
        <ele>1107.1</ele>
        <time>2015-05-18T11:52:51Z</time>
      </trkpt>
      <trkpt lat="44.7467" lon="6.03517">
        <ele>1106.61</ele>
        <time>2015-05-18T11:52:59Z</time>
      </trkpt>
      <trkpt lat="44.7467" lon="6.03523">
        <ele>1107.1</ele>
        <time>2015-05-18T11:53:10Z</time>
      </trkpt>
      <trkpt lat="44.74668" lon="6.03537">
        <ele>1107.1</ele>
        <time>2015-05-18T11:53:23Z</time>
      </trkpt>
      <trkpt lat="44.74667" lon="6.0354">
        <ele>1106.61</ele>
        <time>2015-05-18T11:53:26Z</time>
      </trkpt>
      <trkpt lat="44.74667" lon="6.03552">
        <ele>1109.02</ele>
        <time>2015-05-18T11:53:34Z</time>
      </trkpt>
      <trkpt lat="44.74669" lon="6.03559">
        <ele>1108.06</ele>
        <time>2015-05-18T11:53:38Z</time>
      </trkpt>
      <trkpt lat="44.74673" lon="6.03571">
        <ele>1109.5</ele>
        <time>2015-05-18T11:53:47Z</time>
      </trkpt>
      <trkpt lat="44.74674" lon="6.03578">
        <ele>1108.54</ele>
        <time>2015-05-18T11:53:52Z</time>
      </trkpt>
      <trkpt lat="44.74675" lon="6.03601">
        <ele>1109.98</ele>
        <time>2015-05-18T11:54:05Z</time>
      </trkpt>
      <trkpt lat="44.74674" lon="6.03607">
        <ele>1110.46</ele>
        <time>2015-05-18T11:54:09Z</time>
      </trkpt>
      <trkpt lat="44.74673" lon="6.03615">
        <ele>1109.98</ele>
        <time>2015-05-18T11:54:14Z</time>
      </trkpt>
      <trkpt lat="44.74673" lon="6.03629">
        <ele>1110.94</ele>
        <time>2015-05-18T11:54:29Z</time>
      </trkpt>
      <trkpt lat="44.74673" lon="6.0363">
        <ele>1109.02</ele>
        <time>2015-05-18T11:54:33Z</time>
      </trkpt>
      <trkpt lat="44.74673" lon="6.03632">
        <ele>1109.98</ele>
        <time>2015-05-18T11:54:34Z</time>
      </trkpt>
      <trkpt lat="44.74676" lon="6.03652">
        <ele>1110.94</ele>
        <time>2015-05-18T11:54:49Z</time>
      </trkpt>
      <trkpt lat="44.74677" lon="6.03657">
        <ele>1113.82</ele>
        <time>2015-05-18T11:54:52Z</time>
      </trkpt>
      <trkpt lat="44.74676" lon="6.03661">
        <ele>1111.42</ele>
        <time>2015-05-18T11:54:56Z</time>
      </trkpt>
      <trkpt lat="44.74674" lon="6.03668">
        <ele>1113.82</ele>
        <time>2015-05-18T11:55:02Z</time>
      </trkpt>
      <trkpt lat="44.74673" lon="6.03671">
        <ele>1111.9</ele>
        <time>2015-05-18T11:55:05Z</time>
      </trkpt>
      <trkpt lat="44.74673" lon="6.03675">
        <ele>1114.31</ele>
        <time>2015-05-18T11:55:07Z</time>
      </trkpt>
      <trkpt lat="44.74675" lon="6.03681">
        <ele>1109.98</ele>
        <time>2015-05-18T11:55:10Z</time>
      </trkpt>
      <trkpt lat="44.74675" lon="6.03684">
        <ele>1114.31</ele>
        <time>2015-05-18T11:55:13Z</time>
      </trkpt>
      <trkpt lat="44.74675" lon="6.03685">
        <ele>1114.31</ele>
        <time>2015-05-18T11:55:14Z</time>
      </trkpt>
      <trkpt lat="44.74675" lon="6.0369">
        <ele>1109.98</ele>
        <time>2015-05-18T11:55:17Z</time>
      </trkpt>
      <trkpt lat="44.74675" lon="6.03691">
        <ele>1112.38</ele>
        <time>2015-05-18T11:55:18Z</time>
      </trkpt>
      <trkpt lat="44.74675" lon="6.03697">
        <ele>1115.75</ele>
        <time>2015-05-18T11:55:21Z</time>
      </trkpt>
      <trkpt lat="44.74675" lon="6.03699">
        <ele>1117.19</ele>
        <time>2015-05-18T11:55:23Z</time>
      </trkpt>
      <trkpt lat="44.74675" lon="6.03701">
        <ele>1113.34</ele>
        <time>2015-05-18T11:55:25Z</time>
      </trkpt>
      <trkpt lat="44.74675" lon="6.03703">
        <ele>1114.31</ele>
        <time>2015-05-18T11:55:26Z</time>
      </trkpt>
      <trkpt lat="44.74677" lon="6.0371">
        <ele>1115.75</ele>
        <time>2015-05-18T11:55:30Z</time>
      </trkpt>
      <trkpt lat="44.74677" lon="6.03717">
        <ele>1115.27</ele>
        <time>2015-05-18T11:55:35Z</time>
      </trkpt>
      <trkpt lat="44.74677" lon="6.03719">
        <ele>1111.9</ele>
        <time>2015-05-18T11:55:37Z</time>
      </trkpt>
      <trkpt lat="44.74676" lon="6.0372">
        <ele>1113.34</ele>
        <time>2015-05-18T11:55:38Z</time>
      </trkpt>
      <trkpt lat="44.74676" lon="6.03724">
        <ele>1116.71</ele>
        <time>2015-05-18T11:55:41Z</time>
      </trkpt>
      <trkpt lat="44.74675" lon="6.03725">
        <ele>1117.19</ele>
        <time>2015-05-18T11:55:42Z</time>
      </trkpt>
      <trkpt lat="44.74674" lon="6.03731">
        <ele>1111.9</ele>
        <time>2015-05-18T11:55:45Z</time>
      </trkpt>
      <trkpt lat="44.74674" lon="6.03732">
        <ele>1111.9</ele>
        <time>2015-05-18T11:55:46Z</time>
      </trkpt>
      <trkpt lat="44.74674" lon="6.03735">
        <ele>1117.19</ele>
        <time>2015-05-18T11:55:48Z</time>
      </trkpt>
      <trkpt lat="44.74674" lon="6.03739">
        <ele>1119.59</ele>
        <time>2015-05-18T11:55:51Z</time>
      </trkpt>
      <trkpt lat="44.74674" lon="6.03742">
        <ele>1115.27</ele>
        <time>2015-05-18T11:55:53Z</time>
      </trkpt>
      <trkpt lat="44.74673" lon="6.03743">
        <ele>1117.19</ele>
        <time>2015-05-18T11:55:54Z</time>
      </trkpt>
      <trkpt lat="44.74671" lon="6.03747">
        <ele>1120.07</ele>
        <time>2015-05-18T11:55:58Z</time>
      </trkpt>
      <trkpt lat="44.74671" lon="6.03748">
        <ele>1118.15</ele>
        <time>2015-05-18T11:56:00Z</time>
      </trkpt>
      <trkpt lat="44.74671" lon="6.03754">
        <ele>1120.55</ele>
        <time>2015-05-18T11:56:05Z</time>
      </trkpt>
      <trkpt lat="44.74671" lon="6.03759">
        <ele>1118.63</ele>
        <time>2015-05-18T11:56:08Z</time>
      </trkpt>
      <trkpt lat="44.7467" lon="6.03767">
        <ele>1121.03</ele>
        <time>2015-05-18T11:56:14Z</time>
      </trkpt>
      <trkpt lat="44.7467" lon="6.0377">
        <ele>1116.71</ele>
        <time>2015-05-18T11:56:16Z</time>
      </trkpt>
      <trkpt lat="44.74669" lon="6.03775">
        <ele>1120.07</ele>
        <time>2015-05-18T11:56:19Z</time>
      </trkpt>
      <trkpt lat="44.74669" lon="6.03777">
        <ele>1121.52</ele>
        <time>2015-05-18T11:56:21Z</time>
      </trkpt>
      <trkpt lat="44.74668" lon="6.0378">
        <ele>1117.67</ele>
        <time>2015-05-18T11:56:23Z</time>
      </trkpt>
      <trkpt lat="44.74667" lon="6.03784">
        <ele>1121.52</ele>
        <time>2015-05-18T11:56:26Z</time>
      </trkpt>
      <trkpt lat="44.74666" lon="6.03794">
        <ele>1122.96</ele>
        <time>2015-05-18T11:56:33Z</time>
      </trkpt>
      <trkpt lat="44.74666" lon="6.03795">
        <ele>1120.07</ele>
        <time>2015-05-18T11:56:34Z</time>
      </trkpt>
      <trkpt lat="44.74667" lon="6.03797">
        <ele>1117.67</ele>
        <time>2015-05-18T11:56:36Z</time>
      </trkpt>
      <trkpt lat="44.74667" lon="6.03799">
        <ele>1123.92</ele>
        <time>2015-05-18T11:56:38Z</time>
      </trkpt>
      <trkpt lat="44.74666" lon="6.03802">
        <ele>1119.11</ele>
        <time>2015-05-18T11:56:42Z</time>
      </trkpt>
      <trkpt lat="44.74666" lon="6.03803">
        <ele>1119.11</ele>
        <time>2015-05-18T11:56:43Z</time>
      </trkpt>
      <trkpt lat="44.74665" lon="6.03805">
        <ele>1124.88</ele>
        <time>2015-05-18T11:56:45Z</time>
      </trkpt>
      <trkpt lat="44.74664" lon="6.0381">
        <ele>1120.55</ele>
        <time>2015-05-18T11:56:48Z</time>
      </trkpt>
      <trkpt lat="44.74664" lon="6.03812">
        <ele>1121.03</ele>
        <time>2015-05-18T11:56:49Z</time>
      </trkpt>
      <trkpt lat="44.74664" lon="6.03813">
        <ele>1125.36</ele>
        <time>2015-05-18T11:56:50Z</time>
      </trkpt>
      <trkpt lat="44.74664" lon="6.03818">
        <ele>1120.55</ele>
        <time>2015-05-18T11:56:54Z</time>
      </trkpt>
      <trkpt lat="44.74664" lon="6.03819">
        <ele>1123.44</ele>
        <time>2015-05-18T11:56:55Z</time>
      </trkpt>
      <trkpt lat="44.74665" lon="6.03824">
        <ele>1128.24</ele>
        <time>2015-05-18T11:56:57Z</time>
      </trkpt>
      <trkpt lat="44.74664" lon="6.03827">
        <ele>1120.55</ele>
        <time>2015-05-18T11:56:59Z</time>
      </trkpt>
      <trkpt lat="44.74665" lon="6.03828">
        <ele>1124.4</ele>
        <time>2015-05-18T11:57:00Z</time>
      </trkpt>
      <trkpt lat="44.74665" lon="6.0383">
        <ele>1128.24</ele>
        <time>2015-05-18T11:57:01Z</time>
      </trkpt>
      <trkpt lat="44.74665" lon="6.03833">
        <ele>1122.96</ele>
        <time>2015-05-18T11:57:03Z</time>
      </trkpt>
      <trkpt lat="44.74665" lon="6.03835">
        <ele>1127.76</ele>
        <time>2015-05-18T11:57:05Z</time>
      </trkpt>
      <trkpt lat="44.74666" lon="6.03838">
        <ele>1122</ele>
        <time>2015-05-18T11:57:08Z</time>
      </trkpt>
      <trkpt lat="44.74667" lon="6.03839">
        <ele>1123.44</ele>
        <time>2015-05-18T11:57:09Z</time>
      </trkpt>
      <trkpt lat="44.74667" lon="6.0384">
        <ele>1128.24</ele>
        <time>2015-05-18T11:57:10Z</time>
      </trkpt>
      <trkpt lat="44.74667" lon="6.03841">
        <ele>1125.84</ele>
        <time>2015-05-18T11:57:13Z</time>
      </trkpt>
      <trkpt lat="44.74667" lon="6.03842">
        <ele>1129.69</ele>
        <time>2015-05-18T11:57:15Z</time>
      </trkpt>
      <trkpt lat="44.74667" lon="6.03843">
        <ele>1129.21</ele>
        <time>2015-05-18T11:57:16Z</time>
      </trkpt>
      <trkpt lat="44.74667" lon="6.03844">
        <ele>1122.96</ele>
        <time>2015-05-18T11:57:17Z</time>
      </trkpt>
      <trkpt lat="44.74667" lon="6.03845">
        <ele>1126.32</ele>
        <time>2015-05-18T11:57:18Z</time>
      </trkpt>
      <trkpt lat="44.74666" lon="6.03848">
        <ele>1131.13</ele>
        <time>2015-05-18T11:57:20Z</time>
      </trkpt>
      <trkpt lat="44.74666" lon="6.0385">
        <ele>1131.13</ele>
        <time>2015-05-18T11:57:21Z</time>
      </trkpt>
      <trkpt lat="44.74665" lon="6.03861">
        <ele>1127.28</ele>
        <time>2015-05-18T11:57:33Z</time>
      </trkpt>
      <trkpt lat="44.74665" lon="6.03861">
        <ele>1132.09</ele>
        <time>2015-05-18T11:57:34Z</time>
      </trkpt>
      <trkpt lat="44.74667" lon="6.03868">
        <ele>1133.53</ele>
        <time>2015-05-18T11:57:41Z</time>
      </trkpt>
      <trkpt lat="44.74668" lon="6.0387">
        <ele>1129.69</ele>
        <time>2015-05-18T11:57:42Z</time>
      </trkpt>
      <trkpt lat="44.74668" lon="6.03871">
        <ele>1132.57</ele>
        <time>2015-05-18T11:57:43Z</time>
      </trkpt>
      <trkpt lat="44.74664" lon="6.03881">
        <ele>1136.42</ele>
        <time>2015-05-18T11:57:55Z</time>
      </trkpt>
      <trkpt lat="44.74663" lon="6.03881">
        <ele>1131.13</ele>
        <time>2015-05-18T11:57:56Z</time>
      </trkpt>
      <trkpt lat="44.74663" lon="6.03882">
        <ele>1134.49</ele>
        <time>2015-05-18T11:57:57Z</time>
      </trkpt>
      <trkpt lat="44.74662" lon="6.03883">
        <ele>1135.45</ele>
        <time>2015-05-18T11:57:59Z</time>
      </trkpt>
      <trkpt lat="44.7466" lon="6.03884">
        <ele>1132.09</ele>
        <time>2015-05-18T11:58:03Z</time>
      </trkpt>
      <trkpt lat="44.7466" lon="6.03884">
        <ele>1135.94</ele>
        <time>2015-05-18T11:58:04Z</time>
      </trkpt>
      <trkpt lat="44.74661" lon="6.03885">
        <ele>1136.9</ele>
        <time>2015-05-18T11:58:06Z</time>
      </trkpt>
      <trkpt lat="44.74664" lon="6.03891">
        <ele>1136.9</ele>
        <time>2015-05-18T11:58:10Z</time>
      </trkpt>
      <trkpt lat="44.74665" lon="6.03892">
        <ele>1133.53</ele>
        <time>2015-05-18T11:58:13Z</time>
      </trkpt>
      <trkpt lat="44.74665" lon="6.03892">
        <ele>1137.86</ele>
        <time>2015-05-18T11:58:14Z</time>
      </trkpt>
      <trkpt lat="44.74667" lon="6.03894">
        <ele>1133.05</ele>
        <time>2015-05-18T11:58:16Z</time>
      </trkpt>
      <trkpt lat="44.74667" lon="6.03896">
        <ele>1137.86</ele>
        <time>2015-05-18T11:58:18Z</time>
      </trkpt>
      <trkpt lat="44.74668" lon="6.03898">
        <ele>1141.7</ele>
        <time>2015-05-18T11:58:19Z</time>
      </trkpt>
      <trkpt lat="44.74669" lon="6.03899">
        <ele>1139.3</ele>
        <time>2015-05-18T11:58:20Z</time>
      </trkpt>
      <trkpt lat="44.74669" lon="6.039">
        <ele>1134.49</ele>
        <time>2015-05-18T11:58:21Z</time>
      </trkpt>
      <trkpt lat="44.7467" lon="6.03901">
        <ele>1138.34</ele>
        <time>2015-05-18T11:58:22Z</time>
      </trkpt>
      <trkpt lat="44.7467" lon="6.03904">
        <ele>1139.78</ele>
        <time>2015-05-18T11:58:24Z</time>
      </trkpt>
      <trkpt lat="44.7467" lon="6.03908">
        <ele>1141.22</ele>
        <time>2015-05-18T11:58:26Z</time>
      </trkpt>
      <trkpt lat="44.7467" lon="6.03912">
        <ele>1135.45</ele>
        <time>2015-05-18T11:58:29Z</time>
      </trkpt>
      <trkpt lat="44.7467" lon="6.03913">
        <ele>1139.78</ele>
        <time>2015-05-18T11:58:30Z</time>
      </trkpt>
      <trkpt lat="44.7467" lon="6.03916">
        <ele>1142.66</ele>
        <time>2015-05-18T11:58:32Z</time>
      </trkpt>
      <trkpt lat="44.7467" lon="6.03919">
        <ele>1138.82</ele>
        <time>2015-05-18T11:58:34Z</time>
      </trkpt>
      <trkpt lat="44.7467" lon="6.0392">
        <ele>1141.22</ele>
        <time>2015-05-18T11:58:35Z</time>
      </trkpt>
      <trkpt lat="44.7467" lon="6.03925">
        <ele>1143.63</ele>
        <time>2015-05-18T11:58:39Z</time>
      </trkpt>
      <trkpt lat="44.7467" lon="6.03926">
        <ele>1137.38</ele>
        <time>2015-05-18T11:58:40Z</time>
      </trkpt>
      <trkpt lat="44.7467" lon="6.03928">
        <ele>1141.22</ele>
        <time>2015-05-18T11:58:41Z</time>
      </trkpt>
      <trkpt lat="44.74671" lon="6.0393">
        <ele>1146.51</ele>
        <time>2015-05-18T11:58:43Z</time>
      </trkpt>
      <trkpt lat="44.74671" lon="6.03932">
        <ele>1145.07</ele>
        <time>2015-05-18T11:58:44Z</time>
      </trkpt>
      <trkpt lat="44.74672" lon="6.03933">
        <ele>1137.38</ele>
        <time>2015-05-18T11:58:45Z</time>
      </trkpt>
      <trkpt lat="44.74672" lon="6.03934">
        <ele>1141.22</ele>
        <time>2015-05-18T11:58:46Z</time>
      </trkpt>
      <trkpt lat="44.74672" lon="6.03937">
        <ele>1145.07</ele>
        <time>2015-05-18T11:58:48Z</time>
      </trkpt>
      <trkpt lat="44.74672" lon="6.03938">
        <ele>1139.3</ele>
        <time>2015-05-18T11:58:49Z</time>
      </trkpt>
      <trkpt lat="44.74672" lon="6.03939">
        <ele>1139.78</ele>
        <time>2015-05-18T11:58:50Z</time>
      </trkpt>
      <trkpt lat="44.74673" lon="6.03941">
        <ele>1144.11</ele>
        <time>2015-05-18T11:58:51Z</time>
      </trkpt>
      <trkpt lat="44.74673" lon="6.03942">
        <ele>1143.14</ele>
        <time>2015-05-18T11:58:52Z</time>
      </trkpt>
      <trkpt lat="44.74674" lon="6.03944">
        <ele>1140.74</ele>
        <time>2015-05-18T11:58:54Z</time>
      </trkpt>
      <trkpt lat="44.74675" lon="6.0395">
        <ele>1142.18</ele>
        <time>2015-05-18T11:58:59Z</time>
      </trkpt>
      <trkpt lat="44.74677" lon="6.03953">
        <ele>1146.03</ele>
        <time>2015-05-18T11:59:01Z</time>
      </trkpt>
      <trkpt lat="44.74679" lon="6.03964">
        <ele>1143.14</ele>
        <time>2015-05-18T11:59:13Z</time>
      </trkpt>
      <trkpt lat="44.74681" lon="6.03967">
        <ele>1146.51</ele>
        <time>2015-05-18T11:59:18Z</time>
      </trkpt>
      <trkpt lat="44.74681" lon="6.03968">
        <ele>1141.22</ele>
        <time>2015-05-18T11:59:19Z</time>
      </trkpt>
      <trkpt lat="44.74683" lon="6.0397">
        <ele>1144.59</ele>
        <time>2015-05-18T11:59:21Z</time>
      </trkpt>
      <trkpt lat="44.74683" lon="6.03971">
        <ele>1138.82</ele>
        <time>2015-05-18T11:59:26Z</time>
      </trkpt>
      <trkpt lat="44.74683" lon="6.03971">
        <ele>1141.7</ele>
        <time>2015-05-18T11:59:27Z</time>
      </trkpt>
      <trkpt lat="44.74684" lon="6.03972">
        <ele>1146.51</ele>
        <time>2015-05-18T11:59:30Z</time>
      </trkpt>
      <trkpt lat="44.74685" lon="6.03972">
        <ele>1142.66</ele>
        <time>2015-05-18T11:59:32Z</time>
      </trkpt>
      <trkpt lat="44.74687" lon="6.03972">
        <ele>1146.03</ele>
        <time>2015-05-18T11:59:34Z</time>
      </trkpt>
      <trkpt lat="44.74689" lon="6.03992">
        <ele>1149.39</ele>
        <time>2015-05-18T11:59:51Z</time>
      </trkpt>
      <trkpt lat="44.74689" lon="6.03996">
        <ele>1144.11</ele>
        <time>2015-05-18T11:59:52Z</time>
      </trkpt>
      <trkpt lat="44.7469" lon="6.04">
        <ele>1144.59</ele>
        <time>2015-05-18T11:59:53Z</time>
      </trkpt>
      <trkpt lat="44.74689" lon="6.04005">
        <ele>1148.91</ele>
        <time>2015-05-18T11:59:55Z</time>
      </trkpt>
      <trkpt lat="44.74688" lon="6.04009">
        <ele>1145.55</ele>
        <time>2015-05-18T11:59:57Z</time>
      </trkpt>
      <trkpt lat="44.74688" lon="6.04015">
        <ele>1150.35</ele>
        <time>2015-05-18T12:00:01Z</time>
      </trkpt>
      <trkpt lat="44.74688" lon="6.04018">
        <ele>1151.32</ele>
        <time>2015-05-18T12:00:03Z</time>
      </trkpt>
      <trkpt lat="44.74688" lon="6.04019">
        <ele>1144.59</ele>
        <time>2015-05-18T12:00:04Z</time>
      </trkpt>
      <trkpt lat="44.74688" lon="6.04021">
        <ele>1147.95</ele>
        <time>2015-05-18T12:00:05Z</time>
      </trkpt>
      <trkpt lat="44.74688" lon="6.04027">
        <ele>1149.87</ele>
        <time>2015-05-18T12:00:08Z</time>
      </trkpt>
      <trkpt lat="44.74688" lon="6.04028">
        <ele>1144.59</ele>
        <time>2015-05-18T12:00:09Z</time>
      </trkpt>
      <trkpt lat="44.74688" lon="6.0403">
        <ele>1148.43</ele>
        <time>2015-05-18T12:00:10Z</time>
      </trkpt>
      <trkpt lat="44.74688" lon="6.04033">
        <ele>1151.8</ele>
        <time>2015-05-18T12:00:13Z</time>
      </trkpt>
      <trkpt lat="44.74688" lon="6.04035">
        <ele>1147.95</ele>
        <time>2015-05-18T12:00:14Z</time>
      </trkpt>
      <trkpt lat="44.74688" lon="6.04036">
        <ele>1147.95</ele>
        <time>2015-05-18T12:00:15Z</time>
      </trkpt>
      <trkpt lat="44.74688" lon="6.0404">
        <ele>1151.32</ele>
        <time>2015-05-18T12:00:18Z</time>
      </trkpt>
      <trkpt lat="44.74688" lon="6.04041">
        <ele>1146.03</ele>
        <time>2015-05-18T12:00:19Z</time>
      </trkpt>
      <trkpt lat="44.74688" lon="6.04042">
        <ele>1146.03</ele>
        <time>2015-05-18T12:00:20Z</time>
      </trkpt>
      <trkpt lat="44.74688" lon="6.04043">
        <ele>1149.39</ele>
        <time>2015-05-18T12:00:21Z</time>
      </trkpt>
      <trkpt lat="44.74689" lon="6.04044">
        <ele>1152.28</ele>
        <time>2015-05-18T12:00:22Z</time>
      </trkpt>
      <trkpt lat="44.7469" lon="6.04046">
        <ele>1150.84</ele>
        <time>2015-05-18T12:00:23Z</time>
      </trkpt>
      <trkpt lat="44.7469" lon="6.04047">
        <ele>1145.55</ele>
        <time>2015-05-18T12:00:24Z</time>
      </trkpt>
      <trkpt lat="44.7469" lon="6.04048">
        <ele>1148.91</ele>
        <time>2015-05-18T12:00:25Z</time>
      </trkpt>
      <trkpt lat="44.7469" lon="6.04051">
        <ele>1153.72</ele>
        <time>2015-05-18T12:00:27Z</time>
      </trkpt>
      <trkpt lat="44.74689" lon="6.04053">
        <ele>1149.87</ele>
        <time>2015-05-18T12:00:28Z</time>
      </trkpt>
      <trkpt lat="44.74691" lon="6.04059">
        <ele>1148.91</ele>
        <time>2015-05-18T12:00:34Z</time>
      </trkpt>
      <trkpt lat="44.74692" lon="6.04063">
        <ele>1151.8</ele>
        <time>2015-05-18T12:00:37Z</time>
      </trkpt>
      <trkpt lat="44.74693" lon="6.04072">
        <ele>1148.43</ele>
        <time>2015-05-18T12:00:45Z</time>
      </trkpt>
      <trkpt lat="44.74693" lon="6.04074">
        <ele>1152.76</ele>
        <time>2015-05-18T12:00:47Z</time>
      </trkpt>
      <trkpt lat="44.74694" lon="6.04076">
        <ele>1152.76</ele>
        <time>2015-05-18T12:00:48Z</time>
      </trkpt>
      <trkpt lat="44.74695" lon="6.04091">
        <ele>1153.24</ele>
        <time>2015-05-18T12:00:57Z</time>
      </trkpt>
      <trkpt lat="44.74698" lon="6.04096">
        <ele>1152.28</ele>
        <time>2015-05-18T12:01:10Z</time>
      </trkpt>
      <trkpt lat="44.74697" lon="6.041">
        <ele>1153.72</ele>
        <time>2015-05-18T12:01:20Z</time>
      </trkpt>
      <trkpt lat="44.747" lon="6.04085">
        <ele>1153.72</ele>
        <time>2015-05-18T12:01:36Z</time>
      </trkpt>
      <trkpt lat="44.74703" lon="6.04065">
        <ele>1154.2</ele>
        <time>2015-05-18T12:01:50Z</time>
      </trkpt>
      <trkpt lat="44.74707" lon="6.04047">
        <ele>1153.72</ele>
        <time>2015-05-18T12:02:04Z</time>
      </trkpt>
      <trkpt lat="44.74709" lon="6.04037">
        <ele>1154.2</ele>
        <time>2015-05-18T12:02:17Z</time>
      </trkpt>
      <trkpt lat="44.74712" lon="6.04027">
        <ele>1155.64</ele>
        <time>2015-05-18T12:02:41Z</time>
      </trkpt>
      <trkpt lat="44.74712" lon="6.04025">
        <ele>1154.68</ele>
        <time>2015-05-18T12:02:42Z</time>
      </trkpt>
      <trkpt lat="44.74713" lon="6.04012">
        <ele>1155.64</ele>
        <time>2015-05-18T12:02:54Z</time>
      </trkpt>
      <trkpt lat="44.74708" lon="6.03986">
        <ele>1152.76</ele>
        <time>2015-05-18T12:03:10Z</time>
      </trkpt>
      <trkpt lat="44.74709" lon="6.03982">
        <ele>1154.2</ele>
        <time>2015-05-18T12:03:13Z</time>
      </trkpt>
      <trkpt lat="44.74706" lon="6.03953">
        <ele>1156.12</ele>
        <time>2015-05-18T12:03:32Z</time>
      </trkpt>
      <trkpt lat="44.74706" lon="6.0395">
        <ele>1156.6</ele>
        <time>2015-05-18T12:03:34Z</time>
      </trkpt>
      <trkpt lat="44.74707" lon="6.03941">
        <ele>1153.24</ele>
        <time>2015-05-18T12:03:42Z</time>
      </trkpt>
      <trkpt lat="44.74707" lon="6.0393">
        <ele>1157.56</ele>
        <time>2015-05-18T12:03:48Z</time>
      </trkpt>
      <trkpt lat="44.74707" lon="6.03927">
        <ele>1154.2</ele>
        <time>2015-05-18T12:03:50Z</time>
      </trkpt>
      <trkpt lat="44.74707" lon="6.03926">
        <ele>1153.24</ele>
        <time>2015-05-18T12:03:52Z</time>
      </trkpt>
      <trkpt lat="44.74708" lon="6.0392">
        <ele>1157.08</ele>
        <time>2015-05-18T12:03:56Z</time>
      </trkpt>
      <trkpt lat="44.74708" lon="6.03916">
        <ele>1156.12</ele>
        <time>2015-05-18T12:04:00Z</time>
      </trkpt>
      <trkpt lat="44.74709" lon="6.03902">
        <ele>1157.08</ele>
        <time>2015-05-18T12:04:08Z</time>
      </trkpt>
      <trkpt lat="44.74713" lon="6.03894">
        <ele>1152.28</ele>
        <time>2015-05-18T12:04:14Z</time>
      </trkpt>
      <trkpt lat="44.74714" lon="6.03892">
        <ele>1158.05</ele>
        <time>2015-05-18T12:04:16Z</time>
      </trkpt>
      <trkpt lat="44.74715" lon="6.03889">
        <ele>1159.01</ele>
        <time>2015-05-18T12:04:18Z</time>
      </trkpt>
      <trkpt lat="44.74723" lon="6.03865">
        <ele>1158.53</ele>
        <time>2015-05-18T12:04:34Z</time>
      </trkpt>
      <trkpt lat="44.74732" lon="6.03851">
        <ele>1160.45</ele>
        <time>2015-05-18T12:04:45Z</time>
      </trkpt>
      <trkpt lat="44.74736" lon="6.03845">
        <ele>1159.49</ele>
        <time>2015-05-18T12:05:02Z</time>
      </trkpt>
      <trkpt lat="44.74736" lon="6.03849">
        <ele>1160.93</ele>
        <time>2015-05-18T12:05:23Z</time>
      </trkpt>
      <trkpt lat="44.74737" lon="6.03849">
        <ele>1157.56</ele>
        <time>2015-05-18T12:05:26Z</time>
      </trkpt>
      <trkpt lat="44.74737" lon="6.03849">
        <ele>1157.56</ele>
        <time>2015-05-18T12:05:27Z</time>
      </trkpt>
      <trkpt lat="44.74738" lon="6.03849">
        <ele>1160.45</ele>
        <time>2015-05-18T12:05:28Z</time>
      </trkpt>
      <trkpt lat="44.74739" lon="6.03848">
        <ele>1164.77</ele>
        <time>2015-05-18T12:05:30Z</time>
      </trkpt>
      <trkpt lat="44.7474" lon="6.03848">
        <ele>1157.56</ele>
        <time>2015-05-18T12:05:31Z</time>
      </trkpt>
      <trkpt lat="44.7474" lon="6.03847">
        <ele>1159.49</ele>
        <time>2015-05-18T12:05:32Z</time>
      </trkpt>
      <trkpt lat="44.74741" lon="6.03847">
        <ele>1163.33</ele>
        <time>2015-05-18T12:05:33Z</time>
      </trkpt>
      <trkpt lat="44.74742" lon="6.03846">
        <ele>1157.56</ele>
        <time>2015-05-18T12:05:34Z</time>
      </trkpt>
      <trkpt lat="44.74743" lon="6.03846">
        <ele>1160.93</ele>
        <time>2015-05-18T12:05:35Z</time>
      </trkpt>
      <trkpt lat="44.74744" lon="6.03845">
        <ele>1162.85</ele>
        <time>2015-05-18T12:05:37Z</time>
      </trkpt>
      <trkpt lat="44.74748" lon="6.03842">
        <ele>1166.22</ele>
        <time>2015-05-18T12:05:43Z</time>
      </trkpt>
      <trkpt lat="44.74749" lon="6.03841">
        <ele>1164.77</ele>
        <time>2015-05-18T12:05:44Z</time>
      </trkpt>
      <trkpt lat="44.74751" lon="6.0384">
        <ele>1157.08</ele>
        <time>2015-05-18T12:05:48Z</time>
      </trkpt>
      <trkpt lat="44.74751" lon="6.0384">
        <ele>1163.33</ele>
        <time>2015-05-18T12:05:49Z</time>
      </trkpt>
      <trkpt lat="44.74756" lon="6.03837">
        <ele>1166.22</ele>
        <time>2015-05-18T12:05:55Z</time>
      </trkpt>
      <trkpt lat="44.74757" lon="6.03837">
        <ele>1165.26</ele>
        <time>2015-05-18T12:05:56Z</time>
      </trkpt>
      <trkpt lat="44.74761" lon="6.03834">
        <ele>1161.89</ele>
        <time>2015-05-18T12:06:01Z</time>
      </trkpt>
      <trkpt lat="44.74762" lon="6.03834">
        <ele>1163.81</ele>
        <time>2015-05-18T12:06:02Z</time>
      </trkpt>
      <trkpt lat="44.74764" lon="6.03832">
        <ele>1167.66</ele>
        <time>2015-05-18T12:06:04Z</time>
      </trkpt>
      <trkpt lat="44.74765" lon="6.0383">
        <ele>1162.85</ele>
        <time>2015-05-18T12:06:06Z</time>
      </trkpt>
      <trkpt lat="44.74766" lon="6.03829">
        <ele>1165.26</ele>
        <time>2015-05-18T12:06:07Z</time>
      </trkpt>
      <trkpt lat="44.74769" lon="6.03828">
        <ele>1160.93</ele>
        <time>2015-05-18T12:06:10Z</time>
      </trkpt>
      <trkpt lat="44.7477" lon="6.03827">
        <ele>1166.22</ele>
        <time>2015-05-18T12:06:11Z</time>
      </trkpt>
      <trkpt lat="44.74772" lon="6.03825">
        <ele>1161.41</ele>
        <time>2015-05-18T12:06:14Z</time>
      </trkpt>
      <trkpt lat="44.74773" lon="6.03825">
        <ele>1165.74</ele>
        <time>2015-05-18T12:06:15Z</time>
      </trkpt>
      <trkpt lat="44.74774" lon="6.03823">
        <ele>1167.66</ele>
        <time>2015-05-18T12:06:17Z</time>
      </trkpt>
      <trkpt lat="44.74775" lon="6.03822">
        <ele>1164.77</ele>
        <time>2015-05-18T12:06:22Z</time>
      </trkpt>
      <trkpt lat="44.74776" lon="6.03822">
        <ele>1165.26</ele>
        <time>2015-05-18T12:06:23Z</time>
      </trkpt>
      <trkpt lat="44.74778" lon="6.03821">
        <ele>1168.14</ele>
        <time>2015-05-18T12:06:27Z</time>
      </trkpt>
      <trkpt lat="44.74784" lon="6.03819">
        <ele>1163.33</ele>
        <time>2015-05-18T12:06:35Z</time>
      </trkpt>
      <trkpt lat="44.74785" lon="6.03819">
        <ele>1167.18</ele>
        <time>2015-05-18T12:06:36Z</time>
      </trkpt>
      <trkpt lat="44.74786" lon="6.03818">
        <ele>1171.02</ele>
        <time>2015-05-18T12:06:37Z</time>
      </trkpt>
      <trkpt lat="44.74786" lon="6.03818">
        <ele>1169.1</ele>
        <time>2015-05-18T12:06:38Z</time>
      </trkpt>
      <trkpt lat="44.74791" lon="6.03813">
        <ele>1172.95</ele>
        <time>2015-05-18T12:07:00Z</time>
      </trkpt>
      <trkpt lat="44.7479" lon="6.03815">
        <ele>1167.18</ele>
        <time>2015-05-18T12:07:02Z</time>
      </trkpt>
      <trkpt lat="44.7479" lon="6.03815">
        <ele>1169.1</ele>
        <time>2015-05-18T12:07:03Z</time>
      </trkpt>
      <trkpt lat="44.74789" lon="6.03817">
        <ele>1172.47</ele>
        <time>2015-05-18T12:07:05Z</time>
      </trkpt>
      <trkpt lat="44.74789" lon="6.03819">
        <ele>1170.54</ele>
        <time>2015-05-18T12:07:07Z</time>
      </trkpt>
      <trkpt lat="44.74788" lon="6.0382">
        <ele>1173.91</ele>
        <time>2015-05-18T12:07:08Z</time>
      </trkpt>
      <trkpt lat="44.74788" lon="6.03821">
        <ele>1168.62</ele>
        <time>2015-05-18T12:07:09Z</time>
      </trkpt>
      <trkpt lat="44.74787" lon="6.03823">
        <ele>1172.47</ele>
        <time>2015-05-18T12:07:11Z</time>
      </trkpt>
      <trkpt lat="44.74786" lon="6.03824">
        <ele>1172.47</ele>
        <time>2015-05-18T12:07:12Z</time>
      </trkpt>
      <trkpt lat="44.74786" lon="6.03825">
        <ele>1174.39</ele>
        <time>2015-05-18T12:07:14Z</time>
      </trkpt>
      <trkpt lat="44.74786" lon="6.03828">
        <ele>1173.43</ele>
        <time>2015-05-18T12:07:16Z</time>
      </trkpt>
      <trkpt lat="44.74786" lon="6.03829">
        <ele>1167.66</ele>
        <time>2015-05-18T12:07:17Z</time>
      </trkpt>
      <trkpt lat="44.74786" lon="6.03831">
        <ele>1171.02</ele>
        <time>2015-05-18T12:07:18Z</time>
      </trkpt>
      <trkpt lat="44.74786" lon="6.03837">
        <ele>1169.58</ele>
        <time>2015-05-18T12:07:21Z</time>
      </trkpt>
      <trkpt lat="44.74785" lon="6.03838">
        <ele>1172.95</ele>
        <time>2015-05-18T12:07:22Z</time>
      </trkpt>
      <trkpt lat="44.74785" lon="6.03839">
        <ele>1173.43</ele>
        <time>2015-05-18T12:07:23Z</time>
      </trkpt>
      <trkpt lat="44.74783" lon="6.0385">
        <ele>1170.06</ele>
        <time>2015-05-18T12:07:30Z</time>
      </trkpt>
      <trkpt lat="44.74783" lon="6.03851">
        <ele>1175.83</ele>
        <time>2015-05-18T12:07:31Z</time>
      </trkpt>
      <trkpt lat="44.74783" lon="6.03853">
        <ele>1175.83</ele>
        <time>2015-05-18T12:07:32Z</time>
      </trkpt>
      <trkpt lat="44.74782" lon="6.03854">
        <ele>1169.58</ele>
        <time>2015-05-18T12:07:33Z</time>
      </trkpt>
      <trkpt lat="44.74782" lon="6.03855">
        <ele>1170.54</ele>
        <time>2015-05-18T12:07:34Z</time>
      </trkpt>
      <trkpt lat="44.7478" lon="6.03858">
        <ele>1175.83</ele>
        <time>2015-05-18T12:07:36Z</time>
      </trkpt>
      <trkpt lat="44.7478" lon="6.03859">
        <ele>1173.91</ele>
        <time>2015-05-18T12:07:37Z</time>
      </trkpt>
      <trkpt lat="44.74777" lon="6.0387">
        <ele>1170.54</ele>
        <time>2015-05-18T12:07:48Z</time>
      </trkpt>
      <trkpt lat="44.74777" lon="6.03871">
        <ele>1173.91</ele>
        <time>2015-05-18T12:07:49Z</time>
      </trkpt>
      <trkpt lat="44.74777" lon="6.03875">
        <ele>1178.71</ele>
        <time>2015-05-18T12:07:52Z</time>
      </trkpt>
      <trkpt lat="44.74776" lon="6.03877">
        <ele>1171.02</ele>
        <time>2015-05-18T12:07:53Z</time>
      </trkpt>
      <trkpt lat="44.74776" lon="6.03878">
        <ele>1174.87</ele>
        <time>2015-05-18T12:07:54Z</time>
      </trkpt>
      <trkpt lat="44.74776" lon="6.03879">
        <ele>1181.12</ele>
        <time>2015-05-18T12:07:55Z</time>
      </trkpt>
      <trkpt lat="44.74775" lon="6.0388">
        <ele>1179.19</ele>
        <time>2015-05-18T12:07:56Z</time>
      </trkpt>
      <trkpt lat="44.74775" lon="6.03882">
        <ele>1173.91</ele>
        <time>2015-05-18T12:07:57Z</time>
      </trkpt>
      <trkpt lat="44.74775" lon="6.03883">
        <ele>1174.39</ele>
        <time>2015-05-18T12:07:58Z</time>
      </trkpt>
      <trkpt lat="44.74775" lon="6.03883">
        <ele>1178.23</ele>
        <time>2015-05-18T12:07:59Z</time>
      </trkpt>
      <trkpt lat="44.74775" lon="6.03883">
        <ele>1172.95</ele>
        <time>2015-05-18T12:08:00Z</time>
      </trkpt>
      <trkpt lat="44.74775" lon="6.03884">
        <ele>1176.31</ele>
        <time>2015-05-18T12:08:02Z</time>
      </trkpt>
      <trkpt lat="44.74775" lon="6.03889">
        <ele>1173.43</ele>
        <time>2015-05-18T12:08:07Z</time>
      </trkpt>
      <trkpt lat="44.74775" lon="6.03891">
        <ele>1177.27</ele>
        <time>2015-05-18T12:08:09Z</time>
      </trkpt>
      <trkpt lat="44.74775" lon="6.03892">
        <ele>1171.98</ele>
        <time>2015-05-18T12:08:10Z</time>
      </trkpt>
      <trkpt lat="44.74775" lon="6.03893">
        <ele>1176.79</ele>
        <time>2015-05-18T12:08:11Z</time>
      </trkpt>
      <trkpt lat="44.74774" lon="6.03897">
        <ele>1180.16</ele>
        <time>2015-05-18T12:08:13Z</time>
      </trkpt>
      <trkpt lat="44.74774" lon="6.03899">
        <ele>1170.06</ele>
        <time>2015-05-18T12:08:14Z</time>
      </trkpt>
      <trkpt lat="44.74773" lon="6.03901">
        <ele>1177.27</ele>
        <time>2015-05-18T12:08:15Z</time>
      </trkpt>
      <trkpt lat="44.74771" lon="6.0391">
        <ele>1179.67</ele>
        <time>2015-05-18T12:08:26Z</time>
      </trkpt>
      <trkpt lat="44.74771" lon="6.03912">
        <ele>1176.31</ele>
        <time>2015-05-18T12:08:29Z</time>
      </trkpt>
      <trkpt lat="44.7477" lon="6.03914">
        <ele>1180.16</ele>
        <time>2015-05-18T12:08:31Z</time>
      </trkpt>
      <trkpt lat="44.74772" lon="6.03915">
        <ele>1178.23</ele>
        <time>2015-05-18T12:08:36Z</time>
      </trkpt>
      <trkpt lat="44.74772" lon="6.03915">
        <ele>1182.56</ele>
        <time>2015-05-18T12:08:37Z</time>
      </trkpt>
      <trkpt lat="44.74772" lon="6.03915">
        <ele>1175.83</ele>
        <time>2015-05-18T12:08:38Z</time>
      </trkpt>
      <trkpt lat="44.74773" lon="6.03914">
        <ele>1180.64</ele>
        <time>2015-05-18T12:08:39Z</time>
      </trkpt>
      <trkpt lat="44.74778" lon="6.03905">
        <ele>1176.79</ele>
        <time>2015-05-18T12:08:50Z</time>
      </trkpt>
      <trkpt lat="44.74779" lon="6.03904">
        <ele>1180.16</ele>
        <time>2015-05-18T12:08:51Z</time>
      </trkpt>
      <trkpt lat="44.7478" lon="6.03902">
        <ele>1184.48</ele>
        <time>2015-05-18T12:08:53Z</time>
      </trkpt>
      <trkpt lat="44.7478" lon="6.03902">
        <ele>1179.19</ele>
        <time>2015-05-18T12:08:54Z</time>
      </trkpt>
      <trkpt lat="44.74782" lon="6.03899">
        <ele>1182.56</ele>
        <time>2015-05-18T12:08:58Z</time>
      </trkpt>
      <trkpt lat="44.74783" lon="6.03898">
        <ele>1178.23</ele>
        <time>2015-05-18T12:09:00Z</time>
      </trkpt>
      <trkpt lat="44.74783" lon="6.03897">
        <ele>1182.08</ele>
        <time>2015-05-18T12:09:01Z</time>
      </trkpt>
      <trkpt lat="44.74784" lon="6.03896">
        <ele>1178.23</ele>
        <time>2015-05-18T12:09:03Z</time>
      </trkpt>
      <trkpt lat="44.74784" lon="6.03895">
        <ele>1182.56</ele>
        <time>2015-05-18T12:09:04Z</time>
      </trkpt>
      <trkpt lat="44.74786" lon="6.03895">
        <ele>1178.71</ele>
        <time>2015-05-18T12:09:09Z</time>
      </trkpt>
      <trkpt lat="44.74786" lon="6.03895">
        <ele>1182.56</ele>
        <time>2015-05-18T12:09:10Z</time>
      </trkpt>
      <trkpt lat="44.74799" lon="6.03885">
        <ele>1182.08</ele>
        <time>2015-05-18T12:09:28Z</time>
      </trkpt>
      <trkpt lat="44.74799" lon="6.03885">
        <ele>1184.96</ele>
        <time>2015-05-18T12:09:29Z</time>
      </trkpt>
      <trkpt lat="44.748" lon="6.03885">
        <ele>1181.12</ele>
        <time>2015-05-18T12:09:30Z</time>
      </trkpt>
      <trkpt lat="44.748" lon="6.03884">
        <ele>1184.96</ele>
        <time>2015-05-18T12:09:32Z</time>
      </trkpt>
      <trkpt lat="44.74801" lon="6.03883">
        <ele>1184.96</ele>
        <time>2015-05-18T12:09:33Z</time>
      </trkpt>
      <trkpt lat="44.74802" lon="6.03882">
        <ele>1181.12</ele>
        <time>2015-05-18T12:09:34Z</time>
      </trkpt>
      <trkpt lat="44.74803" lon="6.03881">
        <ele>1185.92</ele>
        <time>2015-05-18T12:09:35Z</time>
      </trkpt>
      <trkpt lat="44.74803" lon="6.03879">
        <ele>1182.56</ele>
        <time>2015-05-18T12:09:37Z</time>
      </trkpt>
      <trkpt lat="44.74804" lon="6.03875">
        <ele>1185.44</ele>
        <time>2015-05-18T12:09:41Z</time>
      </trkpt>
      <trkpt lat="44.74805" lon="6.03874">
        <ele>1185.44</ele>
        <time>2015-05-18T12:09:42Z</time>
      </trkpt>
      <trkpt lat="44.74806" lon="6.03872">
        <ele>1184</ele>
        <time>2015-05-18T12:09:44Z</time>
      </trkpt>
      <trkpt lat="44.74813" lon="6.03871">
        <ele>1186.88</ele>
        <time>2015-05-18T12:09:52Z</time>
      </trkpt>
      <trkpt lat="44.74814" lon="6.03871">
        <ele>1182.08</ele>
        <time>2015-05-18T12:09:53Z</time>
      </trkpt>
      <trkpt lat="44.74815" lon="6.0387">
        <ele>1186.4</ele>
        <time>2015-05-18T12:09:54Z</time>
      </trkpt>
      <trkpt lat="44.74821" lon="6.03864">
        <ele>1189.29</ele>
        <time>2015-05-18T12:10:05Z</time>
      </trkpt>
      <trkpt lat="44.74822" lon="6.03863">
        <ele>1180.64</ele>
        <time>2015-05-18T12:10:06Z</time>
      </trkpt>
      <trkpt lat="44.74823" lon="6.03862">
        <ele>1187.85</ele>
        <time>2015-05-18T12:10:07Z</time>
      </trkpt>
      <trkpt lat="44.7483" lon="6.03859">
        <ele>1184.96</ele>
        <time>2015-05-18T12:10:15Z</time>
      </trkpt>
      <trkpt lat="44.7483" lon="6.03858">
        <ele>1188.33</ele>
        <time>2015-05-18T12:10:16Z</time>
      </trkpt>
      <trkpt lat="44.74834" lon="6.03855">
        <ele>1184</ele>
        <time>2015-05-18T12:10:21Z</time>
      </trkpt>
      <trkpt lat="44.74834" lon="6.03855">
        <ele>1187.85</ele>
        <time>2015-05-18T12:10:22Z</time>
      </trkpt>
      <trkpt lat="44.74837" lon="6.03849">
        <ele>1192.65</ele>
        <time>2015-05-18T12:10:28Z</time>
      </trkpt>
      <trkpt lat="44.74838" lon="6.03848">
        <ele>1185.92</ele>
        <time>2015-05-18T12:10:29Z</time>
      </trkpt>
      <trkpt lat="44.74839" lon="6.03848">
        <ele>1189.77</ele>
        <time>2015-05-18T12:10:30Z</time>
      </trkpt>
      <trkpt lat="44.74839" lon="6.03848">
        <ele>1193.13</ele>
        <time>2015-05-18T12:10:31Z</time>
      </trkpt>
      <trkpt lat="44.7484" lon="6.03847">
        <ele>1188.33</ele>
        <time>2015-05-18T12:10:32Z</time>
      </trkpt>
      <trkpt lat="44.74842" lon="6.03848">
        <ele>1191.69</ele>
        <time>2015-05-18T12:10:34Z</time>
      </trkpt>
      <trkpt lat="44.74843" lon="6.03846">
        <ele>1185.92</ele>
        <time>2015-05-18T12:10:38Z</time>
      </trkpt>
      <trkpt lat="44.74843" lon="6.03845">
        <ele>1190.73</ele>
        <time>2015-05-18T12:10:39Z</time>
      </trkpt>
      <trkpt lat="44.74848" lon="6.03842">
        <ele>1190.25</ele>
        <time>2015-05-18T12:10:45Z</time>
      </trkpt>
      <trkpt lat="44.74849" lon="6.03841">
        <ele>1195.54</ele>
        <time>2015-05-18T12:10:46Z</time>
      </trkpt>
      <trkpt lat="44.74849" lon="6.0384">
        <ele>1187.85</ele>
        <time>2015-05-18T12:10:47Z</time>
      </trkpt>
      <trkpt lat="44.7485" lon="6.0384">
        <ele>1191.21</ele>
        <time>2015-05-18T12:10:48Z</time>
      </trkpt>
      <trkpt lat="44.7485" lon="6.03838">
        <ele>1192.17</ele>
        <time>2015-05-18T12:10:50Z</time>
      </trkpt>
      <trkpt lat="44.74854" lon="6.03837">
        <ele>1187.37</ele>
        <time>2015-05-18T12:10:55Z</time>
      </trkpt>
      <trkpt lat="44.74856" lon="6.03837">
        <ele>1191.69</ele>
        <time>2015-05-18T12:10:56Z</time>
      </trkpt>
      <trkpt lat="44.74858" lon="6.03836">
        <ele>1186.4</ele>
        <time>2015-05-18T12:10:58Z</time>
      </trkpt>
      <trkpt lat="44.74859" lon="6.03835">
        <ele>1191.21</ele>
        <time>2015-05-18T12:10:59Z</time>
      </trkpt>
      <trkpt lat="44.74861" lon="6.03834">
        <ele>1194.09</ele>
        <time>2015-05-18T12:11:01Z</time>
      </trkpt>
      <trkpt lat="44.74865" lon="6.03833">
        <ele>1190.73</ele>
        <time>2015-05-18T12:11:05Z</time>
      </trkpt>
      <trkpt lat="44.74866" lon="6.03834">
        <ele>1194.09</ele>
        <time>2015-05-18T12:11:07Z</time>
      </trkpt>
      <trkpt lat="44.74868" lon="6.03834">
        <ele>1194.09</ele>
        <time>2015-05-18T12:11:08Z</time>
      </trkpt>
      <trkpt lat="44.74872" lon="6.03835">
        <ele>1189.77</ele>
        <time>2015-05-18T12:11:13Z</time>
      </trkpt>
      <trkpt lat="44.74873" lon="6.03835">
        <ele>1193.61</ele>
        <time>2015-05-18T12:11:14Z</time>
      </trkpt>
      <trkpt lat="44.74873" lon="6.03834">
        <ele>1190.73</ele>
        <time>2015-05-18T12:11:16Z</time>
      </trkpt>
      <trkpt lat="44.74874" lon="6.03834">
        <ele>1194.58</ele>
        <time>2015-05-18T12:11:17Z</time>
      </trkpt>
      <trkpt lat="44.74877" lon="6.03832">
        <ele>1190.73</ele>
        <time>2015-05-18T12:11:23Z</time>
      </trkpt>
      <trkpt lat="44.74877" lon="6.03832">
        <ele>1194.09</ele>
        <time>2015-05-18T12:11:24Z</time>
      </trkpt>
      <trkpt lat="44.74887" lon="6.03834">
        <ele>1198.42</ele>
        <time>2015-05-18T12:11:33Z</time>
      </trkpt>
      <trkpt lat="44.74887" lon="6.03834">
        <ele>1193.13</ele>
        <time>2015-05-18T12:11:34Z</time>
      </trkpt>
      <trkpt lat="44.74891" lon="6.03835">
        <ele>1196.98</ele>
        <time>2015-05-18T12:11:37Z</time>
      </trkpt>
      <trkpt lat="44.74892" lon="6.03835">
        <ele>1193.13</ele>
        <time>2015-05-18T12:11:38Z</time>
      </trkpt>
      <trkpt lat="44.74894" lon="6.03835">
        <ele>1196.98</ele>
        <time>2015-05-18T12:11:40Z</time>
      </trkpt>
      <trkpt lat="44.74896" lon="6.03836">
        <ele>1193.61</ele>
        <time>2015-05-18T12:11:42Z</time>
      </trkpt>
      <trkpt lat="44.74898" lon="6.03837">
        <ele>1197.94</ele>
        <time>2015-05-18T12:11:45Z</time>
      </trkpt>
      <trkpt lat="44.74899" lon="6.03837">
        <ele>1194.09</ele>
        <time>2015-05-18T12:11:46Z</time>
      </trkpt>
      <trkpt lat="44.749" lon="6.03837">
        <ele>1198.42</ele>
        <time>2015-05-18T12:11:48Z</time>
      </trkpt>
      <trkpt lat="44.74901" lon="6.03837">
        <ele>1194.58</ele>
        <time>2015-05-18T12:11:49Z</time>
      </trkpt>
      <trkpt lat="44.74904" lon="6.03838">
        <ele>1197.94</ele>
        <time>2015-05-18T12:11:52Z</time>
      </trkpt>
      <trkpt lat="44.7491" lon="6.03836">
        <ele>1198.42</ele>
        <time>2015-05-18T12:11:59Z</time>
      </trkpt>
      <trkpt lat="44.74913" lon="6.03836">
        <ele>1194.58</ele>
        <time>2015-05-18T12:12:03Z</time>
      </trkpt>
      <trkpt lat="44.74914" lon="6.03836">
        <ele>1196.98</ele>
        <time>2015-05-18T12:12:04Z</time>
      </trkpt>
      <trkpt lat="44.74917" lon="6.03836">
        <ele>1197.94</ele>
        <time>2015-05-18T12:12:09Z</time>
      </trkpt>
      <trkpt lat="44.74926" lon="6.03839">
        <ele>1198.42</ele>
        <time>2015-05-18T12:12:17Z</time>
      </trkpt>
      <trkpt lat="44.7494" lon="6.03842">
        <ele>1198.9</ele>
        <time>2015-05-18T12:12:32Z</time>
      </trkpt>
      <trkpt lat="44.74942" lon="6.03843">
        <ele>1196.98</ele>
        <time>2015-05-18T12:12:34Z</time>
      </trkpt>
      <trkpt lat="44.74944" lon="6.03845">
        <ele>1197.94</ele>
        <time>2015-05-18T12:12:36Z</time>
      </trkpt>
      <trkpt lat="44.74953" lon="6.03848">
        <ele>1200.82</ele>
        <time>2015-05-18T12:12:44Z</time>
      </trkpt>
      <trkpt lat="44.74962" lon="6.03851">
        <ele>1197.46</ele>
        <time>2015-05-18T12:12:54Z</time>
      </trkpt>
      <trkpt lat="44.74963" lon="6.03851">
        <ele>1199.38</ele>
        <time>2015-05-18T12:12:55Z</time>
      </trkpt>
      <trkpt lat="44.74969" lon="6.03854">
        <ele>1200.34</ele>
        <time>2015-05-18T12:13:01Z</time>
      </trkpt>
      <trkpt lat="44.7497" lon="6.03854">
        <ele>1195.54</ele>
        <time>2015-05-18T12:13:02Z</time>
      </trkpt>
      <trkpt lat="44.74971" lon="6.03854">
        <ele>1197.94</ele>
        <time>2015-05-18T12:13:03Z</time>
      </trkpt>
      <trkpt lat="44.74973" lon="6.03855">
        <ele>1200.34</ele>
        <time>2015-05-18T12:13:05Z</time>
      </trkpt>
      <trkpt lat="44.74974" lon="6.03855">
        <ele>1196.98</ele>
        <time>2015-05-18T12:13:06Z</time>
      </trkpt>
      <trkpt lat="44.74974" lon="6.03856">
        <ele>1199.38</ele>
        <time>2015-05-18T12:13:07Z</time>
      </trkpt>
      <trkpt lat="44.74982" lon="6.03856">
        <ele>1200.82</ele>
        <time>2015-05-18T12:13:16Z</time>
      </trkpt>
      <trkpt lat="44.74988" lon="6.03859">
        <ele>1195.06</ele>
        <time>2015-05-18T12:13:21Z</time>
      </trkpt>
      <trkpt lat="44.74988" lon="6.0386">
        <ele>1199.38</ele>
        <time>2015-05-18T12:13:22Z</time>
      </trkpt>
      <trkpt lat="44.7499" lon="6.03861">
        <ele>1204.19</ele>
        <time>2015-05-18T12:13:24Z</time>
      </trkpt>
      <trkpt lat="44.74991" lon="6.03862">
        <ele>1202.27</ele>
        <time>2015-05-18T12:13:25Z</time>
      </trkpt>
      <trkpt lat="44.74992" lon="6.03863">
        <ele>1197.46</ele>
        <time>2015-05-18T12:13:26Z</time>
      </trkpt>
      <trkpt lat="44.74993" lon="6.03864">
        <ele>1200.34</ele>
        <time>2015-05-18T12:13:27Z</time>
      </trkpt>
      <trkpt lat="44.74994" lon="6.03865">
        <ele>1196.98</ele>
        <time>2015-05-18T12:13:29Z</time>
      </trkpt>
      <trkpt lat="44.74995" lon="6.03865">
        <ele>1198.42</ele>
        <time>2015-05-18T12:13:30Z</time>
      </trkpt>
      <trkpt lat="44.74996" lon="6.03865">
        <ele>1201.79</ele>
        <time>2015-05-18T12:13:31Z</time>
      </trkpt>
      <trkpt lat="44.74997" lon="6.03865">
        <ele>1202.27</ele>
        <time>2015-05-18T12:13:32Z</time>
      </trkpt>
      <trkpt lat="44.75005" lon="6.03868">
        <ele>1205.63</ele>
        <time>2015-05-18T12:13:41Z</time>
      </trkpt>
      <trkpt lat="44.75006" lon="6.0387">
        <ele>1198.42</ele>
        <time>2015-05-18T12:13:42Z</time>
      </trkpt>
      <trkpt lat="44.75007" lon="6.03871">
        <ele>1201.3</ele>
        <time>2015-05-18T12:13:43Z</time>
      </trkpt>
      <trkpt lat="44.75011" lon="6.03873">
        <ele>1205.15</ele>
        <time>2015-05-18T12:13:48Z</time>
      </trkpt>
      <trkpt lat="44.75015" lon="6.03873">
        <ele>1203.71</ele>
        <time>2015-05-18T12:13:52Z</time>
      </trkpt>
      <trkpt lat="44.75019" lon="6.03874">
        <ele>1203.71</ele>
        <time>2015-05-18T12:13:56Z</time>
      </trkpt>
      <trkpt lat="44.7502" lon="6.03872">
        <ele>1205.15</ele>
        <time>2015-05-18T12:13:58Z</time>
      </trkpt>
      <trkpt lat="44.75021" lon="6.03872">
        <ele>1199.38</ele>
        <time>2015-05-18T12:13:59Z</time>
      </trkpt>
      <trkpt lat="44.75021" lon="6.03871">
        <ele>1202.27</ele>
        <time>2015-05-18T12:14:00Z</time>
      </trkpt>
      <trkpt lat="44.75022" lon="6.03871">
        <ele>1205.63</ele>
        <time>2015-05-18T12:14:01Z</time>
      </trkpt>
      <trkpt lat="44.75023" lon="6.03872">
        <ele>1201.3</ele>
        <time>2015-05-18T12:14:03Z</time>
      </trkpt>
      <trkpt lat="44.75024" lon="6.03872">
        <ele>1201.3</ele>
        <time>2015-05-18T12:14:04Z</time>
      </trkpt>
      <trkpt lat="44.75025" lon="6.03873">
        <ele>1204.67</ele>
        <time>2015-05-18T12:14:05Z</time>
      </trkpt>
      <trkpt lat="44.75028" lon="6.03875">
        <ele>1199.86</ele>
        <time>2015-05-18T12:14:08Z</time>
      </trkpt>
      <trkpt lat="44.75029" lon="6.03877">
        <ele>1203.71</ele>
        <time>2015-05-18T12:14:09Z</time>
      </trkpt>
      <trkpt lat="44.75032" lon="6.03878">
        <ele>1206.59</ele>
        <time>2015-05-18T12:14:11Z</time>
      </trkpt>
      <trkpt lat="44.75035" lon="6.03879">
        <ele>1204.67</ele>
        <time>2015-05-18T12:14:14Z</time>
      </trkpt>
      <trkpt lat="44.75037" lon="6.03879">
        <ele>1208.03</ele>
        <time>2015-05-18T12:14:17Z</time>
      </trkpt>
      <trkpt lat="44.75038" lon="6.0388">
        <ele>1201.79</ele>
        <time>2015-05-18T12:14:22Z</time>
      </trkpt>
      <trkpt lat="44.7504" lon="6.0388">
        <ele>1204.19</ele>
        <time>2015-05-18T12:14:23Z</time>
      </trkpt>
      <trkpt lat="44.75041" lon="6.0388">
        <ele>1208.51</ele>
        <time>2015-05-18T12:14:24Z</time>
      </trkpt>
      <trkpt lat="44.75043" lon="6.0388">
        <ele>1204.19</ele>
        <time>2015-05-18T12:14:25Z</time>
      </trkpt>
      <trkpt lat="44.75046" lon="6.0388">
        <ele>1208.51</ele>
        <time>2015-05-18T12:14:28Z</time>
      </trkpt>
      <trkpt lat="44.75048" lon="6.0388">
        <ele>1208.03</ele>
        <time>2015-05-18T12:14:29Z</time>
      </trkpt>
      <trkpt lat="44.75056" lon="6.03881">
        <ele>1203.23</ele>
        <time>2015-05-18T12:14:38Z</time>
      </trkpt>
      <trkpt lat="44.75057" lon="6.03882">
        <ele>1207.55</ele>
        <time>2015-05-18T12:14:39Z</time>
      </trkpt>
      <trkpt lat="44.75059" lon="6.03883">
        <ele>1208.51</ele>
        <time>2015-05-18T12:14:41Z</time>
      </trkpt>
      <trkpt lat="44.75062" lon="6.03885">
        <ele>1205.63</ele>
        <time>2015-05-18T12:14:45Z</time>
      </trkpt>
      <trkpt lat="44.75063" lon="6.03885">
        <ele>1208.51</ele>
        <time>2015-05-18T12:14:46Z</time>
      </trkpt>
      <trkpt lat="44.75063" lon="6.03886">
        <ele>1211.4</ele>
        <time>2015-05-18T12:14:47Z</time>
      </trkpt>
      <trkpt lat="44.75064" lon="6.03887">
        <ele>1207.07</ele>
        <time>2015-05-18T12:14:48Z</time>
      </trkpt>
      <trkpt lat="44.75065" lon="6.03887">
        <ele>1204.19</ele>
        <time>2015-05-18T12:14:49Z</time>
      </trkpt>
      <trkpt lat="44.75065" lon="6.03888">
        <ele>1206.59</ele>
        <time>2015-05-18T12:14:50Z</time>
      </trkpt>
      <trkpt lat="44.75066" lon="6.03889">
        <ele>1209.48</ele>
        <time>2015-05-18T12:14:51Z</time>
      </trkpt>
      <trkpt lat="44.75067" lon="6.0389">
        <ele>1208.51</ele>
        <time>2015-05-18T12:14:52Z</time>
      </trkpt>
      <trkpt lat="44.7507" lon="6.03892">
        <ele>1211.88</ele>
        <time>2015-05-18T12:14:57Z</time>
      </trkpt>
      <trkpt lat="44.75074" lon="6.03893">
        <ele>1206.11</ele>
        <time>2015-05-18T12:15:01Z</time>
      </trkpt>
      <trkpt lat="44.75075" lon="6.03893">
        <ele>1207.07</ele>
        <time>2015-05-18T12:15:02Z</time>
      </trkpt>
      <trkpt lat="44.75077" lon="6.03894">
        <ele>1208.51</ele>
        <time>2015-05-18T12:15:04Z</time>
      </trkpt>
      <trkpt lat="44.75078" lon="6.03894">
        <ele>1203.71</ele>
        <time>2015-05-18T12:15:05Z</time>
      </trkpt>
      <trkpt lat="44.75078" lon="6.03894">
        <ele>1209</ele>
        <time>2015-05-18T12:15:06Z</time>
      </trkpt>
      <trkpt lat="44.7508" lon="6.03895">
        <ele>1210.44</ele>
        <time>2015-05-18T12:15:08Z</time>
      </trkpt>
      <trkpt lat="44.75081" lon="6.03896">
        <ele>1205.63</ele>
        <time>2015-05-18T12:15:09Z</time>
      </trkpt>
      <trkpt lat="44.75082" lon="6.03896">
        <ele>1209.96</ele>
        <time>2015-05-18T12:15:10Z</time>
      </trkpt>
      <trkpt lat="44.75084" lon="6.03895">
        <ele>1211.4</ele>
        <time>2015-05-18T12:15:12Z</time>
      </trkpt>
      <trkpt lat="44.75092" lon="6.03901">
        <ele>1206.59</ele>
        <time>2015-05-18T12:15:20Z</time>
      </trkpt>
      <trkpt lat="44.75093" lon="6.03901">
        <ele>1208.03</ele>
        <time>2015-05-18T12:15:21Z</time>
      </trkpt>
      <trkpt lat="44.75095" lon="6.03901">
        <ele>1212.84</ele>
        <time>2015-05-18T12:15:23Z</time>
      </trkpt>
      <trkpt lat="44.75098" lon="6.03902">
        <ele>1207.55</ele>
        <time>2015-05-18T12:15:25Z</time>
      </trkpt>
      <trkpt lat="44.75098" lon="6.03903">
        <ele>1208.51</ele>
        <time>2015-05-18T12:15:26Z</time>
      </trkpt>
      <trkpt lat="44.75101" lon="6.03905">
        <ele>1212.36</ele>
        <time>2015-05-18T12:15:28Z</time>
      </trkpt>
      <trkpt lat="44.75102" lon="6.03905">
        <ele>1212.36</ele>
        <time>2015-05-18T12:15:29Z</time>
      </trkpt>
      <trkpt lat="44.75111" lon="6.03908">
        <ele>1212.36</ele>
        <time>2015-05-18T12:15:41Z</time>
      </trkpt>
      <trkpt lat="44.75114" lon="6.03908">
        <ele>1211.88</ele>
        <time>2015-05-18T12:15:43Z</time>
      </trkpt>
      <trkpt lat="44.75118" lon="6.0391">
        <ele>1208.03</ele>
        <time>2015-05-18T12:15:47Z</time>
      </trkpt>
      <trkpt lat="44.75119" lon="6.0391">
        <ele>1209.48</ele>
        <time>2015-05-18T12:15:48Z</time>
      </trkpt>
      <trkpt lat="44.75119" lon="6.03911">
        <ele>1211.88</ele>
        <time>2015-05-18T12:15:50Z</time>
      </trkpt>
      <trkpt lat="44.75126" lon="6.03911">
        <ele>1210.92</ele>
        <time>2015-05-18T12:15:55Z</time>
      </trkpt>
      <trkpt lat="44.75128" lon="6.03912">
        <ele>1213.32</ele>
        <time>2015-05-18T12:15:57Z</time>
      </trkpt>
      <trkpt lat="44.7513" lon="6.03913">
        <ele>1210.44</ele>
        <time>2015-05-18T12:15:59Z</time>
      </trkpt>
      <trkpt lat="44.75131" lon="6.03913">
        <ele>1211.4</ele>
        <time>2015-05-18T12:16:00Z</time>
      </trkpt>
      <trkpt lat="44.75134" lon="6.03914">
        <ele>1213.8</ele>
        <time>2015-05-18T12:16:03Z</time>
      </trkpt>
      <trkpt lat="44.75141" lon="6.03917">
        <ele>1212.36</ele>
        <time>2015-05-18T12:16:10Z</time>
      </trkpt>
      <trkpt lat="44.75146" lon="6.03917">
        <ele>1215.72</ele>
        <time>2015-05-18T12:16:13Z</time>
      </trkpt>
      <trkpt lat="44.75147" lon="6.03918">
        <ele>1211.88</ele>
        <time>2015-05-18T12:16:15Z</time>
      </trkpt>
      <trkpt lat="44.75149" lon="6.03917">
        <ele>1216.21</ele>
        <time>2015-05-18T12:16:17Z</time>
      </trkpt>
      <trkpt lat="44.75149" lon="6.03917">
        <ele>1215.24</ele>
        <time>2015-05-18T12:16:18Z</time>
      </trkpt>
      <trkpt lat="44.7515" lon="6.03917">
        <ele>1210.92</ele>
        <time>2015-05-18T12:16:19Z</time>
      </trkpt>
      <trkpt lat="44.75151" lon="6.03918">
        <ele>1212.84</ele>
        <time>2015-05-18T12:16:20Z</time>
      </trkpt>
      <trkpt lat="44.75153" lon="6.03919">
        <ele>1216.21</ele>
        <time>2015-05-18T12:16:22Z</time>
      </trkpt>
      <trkpt lat="44.75154" lon="6.0392">
        <ele>1210.44</ele>
        <time>2015-05-18T12:16:23Z</time>
      </trkpt>
      <trkpt lat="44.75155" lon="6.0392">
        <ele>1210.92</ele>
        <time>2015-05-18T12:16:24Z</time>
      </trkpt>
      <trkpt lat="44.75156" lon="6.0392">
        <ele>1215.24</ele>
        <time>2015-05-18T12:16:26Z</time>
      </trkpt>
      <trkpt lat="44.75157" lon="6.03921">
        <ele>1209.96</ele>
        <time>2015-05-18T12:16:28Z</time>
      </trkpt>
      <trkpt lat="44.75158" lon="6.03922">
        <ele>1213.32</ele>
        <time>2015-05-18T12:16:29Z</time>
      </trkpt>
      <trkpt lat="44.75161" lon="6.03924">
        <ele>1208.51</ele>
        <time>2015-05-18T12:16:32Z</time>
      </trkpt>
      <trkpt lat="44.75163" lon="6.03925">
        <ele>1213.32</ele>
        <time>2015-05-18T12:16:33Z</time>
      </trkpt>
      <trkpt lat="44.75166" lon="6.03925">
        <ele>1217.17</ele>
        <time>2015-05-18T12:16:37Z</time>
      </trkpt>
      <trkpt lat="44.75169" lon="6.03925">
        <ele>1215.24</ele>
        <time>2015-05-18T12:16:40Z</time>
      </trkpt>
      <trkpt lat="44.75175" lon="6.03928">
        <ele>1216.69</ele>
        <time>2015-05-18T12:16:46Z</time>
      </trkpt>
      <trkpt lat="44.75175" lon="6.03928">
        <ele>1212.84</ele>
        <time>2015-05-18T12:16:47Z</time>
      </trkpt>
      <trkpt lat="44.75176" lon="6.03928">
        <ele>1212.84</ele>
        <time>2015-05-18T12:16:48Z</time>
      </trkpt>
      <trkpt lat="44.75178" lon="6.03927">
        <ele>1217.17</ele>
        <time>2015-05-18T12:16:50Z</time>
      </trkpt>
      <trkpt lat="44.75179" lon="6.03927">
        <ele>1212.84</ele>
        <time>2015-05-18T12:16:51Z</time>
      </trkpt>
      <trkpt lat="44.75179" lon="6.03927">
        <ele>1214.28</ele>
        <time>2015-05-18T12:16:52Z</time>
      </trkpt>
      <trkpt lat="44.75182" lon="6.03927">
        <ele>1214.28</ele>
        <time>2015-05-18T12:16:56Z</time>
      </trkpt>
      <trkpt lat="44.75188" lon="6.03926">
        <ele>1217.17</ele>
        <time>2015-05-18T12:17:02Z</time>
      </trkpt>
      <trkpt lat="44.75189" lon="6.03926">
        <ele>1217.65</ele>
        <time>2015-05-18T12:17:03Z</time>
      </trkpt>
      <trkpt lat="44.75199" lon="6.03925">
        <ele>1216.69</ele>
        <time>2015-05-18T12:17:12Z</time>
      </trkpt>
      <trkpt lat="44.75206" lon="6.03926">
        <ele>1220.05</ele>
        <time>2015-05-18T12:17:18Z</time>
      </trkpt>
      <trkpt lat="44.75207" lon="6.03926">
        <ele>1220.05</ele>
        <time>2015-05-18T12:17:19Z</time>
      </trkpt>
      <trkpt lat="44.75207" lon="6.03926">
        <ele>1215.72</ele>
        <time>2015-05-18T12:17:20Z</time>
      </trkpt>
      <trkpt lat="44.75209" lon="6.03926">
        <ele>1218.13</ele>
        <time>2015-05-18T12:17:22Z</time>
      </trkpt>
      <trkpt lat="44.75212" lon="6.03927">
        <ele>1215.24</ele>
        <time>2015-05-18T12:17:25Z</time>
      </trkpt>
      <trkpt lat="44.75214" lon="6.03928">
        <ele>1219.09</ele>
        <time>2015-05-18T12:17:27Z</time>
      </trkpt>
      <trkpt lat="44.75218" lon="6.03929">
        <ele>1218.61</ele>
        <time>2015-05-18T12:17:31Z</time>
      </trkpt>
      <trkpt lat="44.75221" lon="6.03929">
        <ele>1220.05</ele>
        <time>2015-05-18T12:17:34Z</time>
      </trkpt>
      <trkpt lat="44.75225" lon="6.0393">
        <ele>1215.72</ele>
        <time>2015-05-18T12:17:38Z</time>
      </trkpt>
      <trkpt lat="44.75226" lon="6.0393">
        <ele>1219.09</ele>
        <time>2015-05-18T12:17:39Z</time>
      </trkpt>
      <trkpt lat="44.75228" lon="6.03932">
        <ele>1215.24</ele>
        <time>2015-05-18T12:17:41Z</time>
      </trkpt>
      <trkpt lat="44.75229" lon="6.03932">
        <ele>1216.69</ele>
        <time>2015-05-18T12:17:42Z</time>
      </trkpt>
      <trkpt lat="44.7523" lon="6.03932">
        <ele>1220.05</ele>
        <time>2015-05-18T12:17:44Z</time>
      </trkpt>
      <trkpt lat="44.75231" lon="6.03932">
        <ele>1211.88</ele>
        <time>2015-05-18T12:17:45Z</time>
      </trkpt>
      <trkpt lat="44.75232" lon="6.03932">
        <ele>1218.13</ele>
        <time>2015-05-18T12:17:46Z</time>
      </trkpt>
      <trkpt lat="44.75234" lon="6.03932">
        <ele>1219.09</ele>
        <time>2015-05-18T12:17:48Z</time>
      </trkpt>
      <trkpt lat="44.75236" lon="6.03933">
        <ele>1222.45</ele>
        <time>2015-05-18T12:17:50Z</time>
      </trkpt>
      <trkpt lat="44.75237" lon="6.03933">
        <ele>1221.01</ele>
        <time>2015-05-18T12:17:51Z</time>
      </trkpt>
      <trkpt lat="44.75238" lon="6.03935">
        <ele>1220.53</ele>
        <time>2015-05-18T12:17:53Z</time>
      </trkpt>
      <trkpt lat="44.75239" lon="6.03935">
        <ele>1223.42</ele>
        <time>2015-05-18T12:17:54Z</time>
      </trkpt>
      <trkpt lat="44.7524" lon="6.03936">
        <ele>1216.69</ele>
        <time>2015-05-18T12:17:55Z</time>
      </trkpt>
      <trkpt lat="44.7524" lon="6.03936">
        <ele>1218.13</ele>
        <time>2015-05-18T12:17:56Z</time>
      </trkpt>
      <trkpt lat="44.75241" lon="6.03936">
        <ele>1222.93</ele>
        <time>2015-05-18T12:17:57Z</time>
      </trkpt>
      <trkpt lat="44.75242" lon="6.03936">
        <ele>1221.49</ele>
        <time>2015-05-18T12:17:58Z</time>
      </trkpt>
      <trkpt lat="44.75242" lon="6.03936">
        <ele>1217.65</ele>
        <time>2015-05-18T12:17:59Z</time>
      </trkpt>
      <trkpt lat="44.75243" lon="6.03936">
        <ele>1219.09</ele>
        <time>2015-05-18T12:18:00Z</time>
      </trkpt>
      <trkpt lat="44.75244" lon="6.03936">
        <ele>1221.01</ele>
        <time>2015-05-18T12:18:01Z</time>
      </trkpt>
      <trkpt lat="44.75246" lon="6.03936">
        <ele>1220.53</ele>
        <time>2015-05-18T12:18:04Z</time>
      </trkpt>
      <trkpt lat="44.75247" lon="6.03935">
        <ele>1221.49</ele>
        <time>2015-05-18T12:18:06Z</time>
      </trkpt>
      <trkpt lat="44.75249" lon="6.03935">
        <ele>1220.05</ele>
        <time>2015-05-18T12:18:08Z</time>
      </trkpt>
      <trkpt lat="44.75251" lon="6.03935">
        <ele>1221.01</ele>
        <time>2015-05-18T12:18:10Z</time>
      </trkpt>
      <trkpt lat="44.75256" lon="6.03933">
        <ele>1220.05</ele>
        <time>2015-05-18T12:18:15Z</time>
      </trkpt>
      <trkpt lat="44.75258" lon="6.03931">
        <ele>1222.93</ele>
        <time>2015-05-18T12:18:18Z</time>
      </trkpt>
      <trkpt lat="44.75266" lon="6.03931">
        <ele>1220.53</ele>
        <time>2015-05-18T12:18:25Z</time>
      </trkpt>
      <trkpt lat="44.75275" lon="6.03927">
        <ele>1219.57</ele>
        <time>2015-05-18T12:18:34Z</time>
      </trkpt>
      <trkpt lat="44.75283" lon="6.03919">
        <ele>1219.57</ele>
        <time>2015-05-18T12:18:47Z</time>
      </trkpt>
      <trkpt lat="44.75286" lon="6.03914">
        <ele>1221.97</ele>
        <time>2015-05-18T12:18:51Z</time>
      </trkpt>
      <trkpt lat="44.75292" lon="6.0391">
        <ele>1219.57</ele>
        <time>2015-05-18T12:18:55Z</time>
      </trkpt>
      <trkpt lat="44.75295" lon="6.03908">
        <ele>1221.97</ele>
        <time>2015-05-18T12:18:58Z</time>
      </trkpt>
      <trkpt lat="44.75301" lon="6.03904">
        <ele>1217.65</ele>
        <time>2015-05-18T12:19:06Z</time>
      </trkpt>
      <trkpt lat="44.75302" lon="6.03902">
        <ele>1220.53</ele>
        <time>2015-05-18T12:19:08Z</time>
      </trkpt>
      <trkpt lat="44.75314" lon="6.03898">
        <ele>1221.01</ele>
        <time>2015-05-18T12:19:23Z</time>
      </trkpt>
      <trkpt lat="44.75327" lon="6.03893">
        <ele>1221.01</ele>
        <time>2015-05-18T12:19:38Z</time>
      </trkpt>
      <trkpt lat="44.75333" lon="6.03888">
        <ele>1224.38</ele>
        <time>2015-05-18T12:19:46Z</time>
      </trkpt>
      <trkpt lat="44.75334" lon="6.03887">
        <ele>1220.53</ele>
        <time>2015-05-18T12:19:47Z</time>
      </trkpt>
      <trkpt lat="44.75334" lon="6.03887">
        <ele>1222.45</ele>
        <time>2015-05-18T12:19:48Z</time>
      </trkpt>
      <trkpt lat="44.75335" lon="6.03883">
        <ele>1220.05</ele>
        <time>2015-05-18T12:19:52Z</time>
      </trkpt>
      <trkpt lat="44.75337" lon="6.0388">
        <ele>1220.05</ele>
        <time>2015-05-18T12:19:55Z</time>
      </trkpt>
      <trkpt lat="44.75337" lon="6.03879">
        <ele>1223.9</ele>
        <time>2015-05-18T12:19:57Z</time>
      </trkpt>
      <trkpt lat="44.75342" lon="6.03867">
        <ele>1225.82</ele>
        <time>2015-05-18T12:20:12Z</time>
      </trkpt>
      <trkpt lat="44.75343" lon="6.03864">
        <ele>1229.18</ele>
        <time>2015-05-18T12:20:20Z</time>
      </trkpt>
      <trkpt lat="44.75341" lon="6.03852">
        <ele>1225.82</ele>
        <time>2015-05-18T12:20:22Z</time>
      </trkpt>
      <trkpt lat="44.75338" lon="6.03841">
        <ele>1221.01</ele>
        <time>2015-05-18T12:20:26Z</time>
      </trkpt>
      <trkpt lat="44.75338" lon="6.03839">
        <ele>1226.3</ele>
        <time>2015-05-18T12:20:27Z</time>
      </trkpt>
      <trkpt lat="44.75337" lon="6.03831">
        <ele>1223.9</ele>
        <time>2015-05-18T12:20:31Z</time>
      </trkpt>
      <trkpt lat="44.75337" lon="6.0383">
        <ele>1227.74</ele>
        <time>2015-05-18T12:20:32Z</time>
      </trkpt>
      <trkpt lat="44.75336" lon="6.03829">
        <ele>1227.26</ele>
        <time>2015-05-18T12:20:33Z</time>
      </trkpt>
      <trkpt lat="44.75336" lon="6.03829">
        <ele>1220.53</ele>
        <time>2015-05-18T12:20:34Z</time>
      </trkpt>
      <trkpt lat="44.75336" lon="6.03829">
        <ele>1224.38</ele>
        <time>2015-05-18T12:20:35Z</time>
      </trkpt>
      <trkpt lat="44.75335" lon="6.03827">
        <ele>1227.74</ele>
        <time>2015-05-18T12:20:37Z</time>
      </trkpt>
      <trkpt lat="44.75336" lon="6.03825">
        <ele>1221.97</ele>
        <time>2015-05-18T12:20:38Z</time>
      </trkpt>
      <trkpt lat="44.75335" lon="6.03824">
        <ele>1225.34</ele>
        <time>2015-05-18T12:20:39Z</time>
      </trkpt>
      <trkpt lat="44.75335" lon="6.03822">
        <ele>1227.74</ele>
        <time>2015-05-18T12:20:41Z</time>
      </trkpt>
      <trkpt lat="44.7533" lon="6.03815">
        <ele>1231.59</ele>
        <time>2015-05-18T12:20:47Z</time>
      </trkpt>
      <trkpt lat="44.7533" lon="6.03815">
        <ele>1225.34</ele>
        <time>2015-05-18T12:20:48Z</time>
      </trkpt>
      <trkpt lat="44.7533" lon="6.03814">
        <ele>1228.22</ele>
        <time>2015-05-18T12:20:49Z</time>
      </trkpt>
      <trkpt lat="44.75329" lon="6.03813">
        <ele>1231.59</ele>
        <time>2015-05-18T12:20:51Z</time>
      </trkpt>
      <trkpt lat="44.75329" lon="6.03812">
        <ele>1228.7</ele>
        <time>2015-05-18T12:20:52Z</time>
      </trkpt>
      <trkpt lat="44.75329" lon="6.03811">
        <ele>1225.34</ele>
        <time>2015-05-18T12:20:53Z</time>
      </trkpt>
      <trkpt lat="44.75328" lon="6.0381">
        <ele>1229.18</ele>
        <time>2015-05-18T12:20:54Z</time>
      </trkpt>
      <trkpt lat="44.75322" lon="6.03798">
        <ele>1230.62</ele>
        <time>2015-05-18T12:21:02Z</time>
      </trkpt>
      <trkpt lat="44.75319" lon="6.03796">
        <ele>1228.7</ele>
        <time>2015-05-18T12:21:05Z</time>
      </trkpt>
      <trkpt lat="44.75309" lon="6.03774">
        <ele>1226.78</ele>
        <time>2015-05-18T12:21:23Z</time>
      </trkpt>
      <trkpt lat="44.75306" lon="6.03762">
        <ele>1224.86</ele>
        <time>2015-05-18T12:21:34Z</time>
      </trkpt>
      <trkpt lat="44.75306" lon="6.03759">
        <ele>1225.34</ele>
        <time>2015-05-18T12:21:36Z</time>
      </trkpt>
      <trkpt lat="44.75307" lon="6.0375">
        <ele>1226.78</ele>
        <time>2015-05-18T12:21:45Z</time>
      </trkpt>
      <trkpt lat="44.75307" lon="6.03741">
        <ele>1225.34</ele>
        <time>2015-05-18T12:21:53Z</time>
      </trkpt>
      <trkpt lat="44.75305" lon="6.03734">
        <ele>1223.42</ele>
        <time>2015-05-18T12:21:57Z</time>
      </trkpt>
      <trkpt lat="44.7531" lon="6.0373">
        <ele>1223.42</ele>
        <time>2015-05-18T12:22:11Z</time>
      </trkpt>
      <trkpt lat="44.7531" lon="6.03729">
        <ele>1224.38</ele>
        <time>2015-05-18T12:22:42Z</time>
      </trkpt>
      <trkpt lat="44.7531" lon="6.0373">
        <ele>1224.86</ele>
        <time>2015-05-18T12:23:10Z</time>
      </trkpt>
      <trkpt lat="44.7531" lon="6.0373">
        <ele>1224.38</ele>
        <time>2015-05-18T12:23:27Z</time>
      </trkpt>
      <trkpt lat="44.75309" lon="6.03726">
        <ele>1224.38</ele>
        <time>2015-05-18T12:24:04Z</time>
      </trkpt>
      <trkpt lat="44.75309" lon="6.03727">
        <ele>1224.38</ele>
        <time>2015-05-18T12:24:31Z</time>
      </trkpt>
      <trkpt lat="44.75309" lon="6.03727">
        <ele>1223.9</ele>
        <time>2015-05-18T12:24:43Z</time>
      </trkpt>
      <trkpt lat="44.75307" lon="6.03726">
        <ele>1224.38</ele>
        <time>2015-05-18T12:24:58Z</time>
      </trkpt>
      <trkpt lat="44.75307" lon="6.03726">
        <ele>1223.9</ele>
        <time>2015-05-18T12:26:10Z</time>
      </trkpt>
      <trkpt lat="44.75307" lon="6.03726">
        <ele>1224.38</ele>
        <time>2015-05-18T12:26:54Z</time>
      </trkpt>
      <trkpt lat="44.75307" lon="6.03726">
        <ele>1224.86</ele>
        <time>2015-05-18T12:27:32Z</time>
      </trkpt>
      <trkpt lat="44.75307" lon="6.03726">
        <ele>1224.86</ele>
        <time>2015-05-18T12:28:07Z</time>
      </trkpt>
      <trkpt lat="44.75309" lon="6.03729">
        <ele>1223.9</ele>
        <time>2015-05-18T12:28:17Z</time>
      </trkpt>
      <trkpt lat="44.7532" lon="6.03751">
        <ele>1223.9</ele>
        <time>2015-05-18T12:28:33Z</time>
      </trkpt>
      <trkpt lat="44.7532" lon="6.0375">
        <ele>1223.9</ele>
        <time>2015-05-18T12:29:14Z</time>
      </trkpt>
      <trkpt lat="44.75314" lon="6.03741">
        <ele>1224.38</ele>
        <time>2015-05-18T12:29:59Z</time>
      </trkpt>
      <trkpt lat="44.75314" lon="6.03735">
        <ele>1219.57</ele>
        <time>2015-05-18T12:30:20Z</time>
      </trkpt>
      <trkpt lat="44.75314" lon="6.03734">
        <ele>1224.38</ele>
        <time>2015-05-18T12:30:21Z</time>
      </trkpt>
      <trkpt lat="44.75315" lon="6.03732">
        <ele>1225.34</ele>
        <time>2015-05-18T12:30:23Z</time>
      </trkpt>
      <trkpt lat="44.75316" lon="6.0373">
        <ele>1221.49</ele>
        <time>2015-05-18T12:30:25Z</time>
      </trkpt>
      <trkpt lat="44.75317" lon="6.03729">
        <ele>1225.34</ele>
        <time>2015-05-18T12:30:26Z</time>
      </trkpt>
      <trkpt lat="44.75323" lon="6.0373">
        <ele>1225.34</ele>
        <time>2015-05-18T12:30:31Z</time>
      </trkpt>
      <trkpt lat="44.75326" lon="6.0373">
        <ele>1221.97</ele>
        <time>2015-05-18T12:30:34Z</time>
      </trkpt>
      <trkpt lat="44.75327" lon="6.0373">
        <ele>1223.9</ele>
        <time>2015-05-18T12:30:35Z</time>
      </trkpt>
      <trkpt lat="44.75329" lon="6.0373">
        <ele>1225.82</ele>
        <time>2015-05-18T12:30:37Z</time>
      </trkpt>
      <trkpt lat="44.75331" lon="6.03729">
        <ele>1223.42</ele>
        <time>2015-05-18T12:30:39Z</time>
      </trkpt>
      <trkpt lat="44.75337" lon="6.03728">
        <ele>1225.34</ele>
        <time>2015-05-18T12:30:46Z</time>
      </trkpt>
      <trkpt lat="44.75339" lon="6.03729">
        <ele>1225.82</ele>
        <time>2015-05-18T12:30:50Z</time>
      </trkpt>
      <trkpt lat="44.75349" lon="6.0373">
        <ele>1226.78</ele>
        <time>2015-05-18T12:31:00Z</time>
      </trkpt>
      <trkpt lat="44.75353" lon="6.03729">
        <ele>1224.86</ele>
        <time>2015-05-18T12:31:04Z</time>
      </trkpt>
      <trkpt lat="44.75355" lon="6.03728">
        <ele>1226.78</ele>
        <time>2015-05-18T12:31:06Z</time>
      </trkpt>
      <trkpt lat="44.75362" lon="6.03725">
        <ele>1225.82</ele>
        <time>2015-05-18T12:31:18Z</time>
      </trkpt>
      <trkpt lat="44.75364" lon="6.03725">
        <ele>1222.45</ele>
        <time>2015-05-18T12:31:20Z</time>
      </trkpt>
      <trkpt lat="44.75365" lon="6.03724">
        <ele>1226.3</ele>
        <time>2015-05-18T12:31:21Z</time>
      </trkpt>
      <trkpt lat="44.75365" lon="6.03723">
        <ele>1226.3</ele>
        <time>2015-05-18T12:31:22Z</time>
      </trkpt>
      <trkpt lat="44.75373" lon="6.03722">
        <ele>1224.38</ele>
        <time>2015-05-18T12:31:32Z</time>
      </trkpt>
      <trkpt lat="44.75374" lon="6.03722">
        <ele>1224.38</ele>
        <time>2015-05-18T12:31:33Z</time>
      </trkpt>
      <trkpt lat="44.75378" lon="6.03721">
        <ele>1224.86</ele>
        <time>2015-05-18T12:31:38Z</time>
      </trkpt>
      <trkpt lat="44.75382" lon="6.0372">
        <ele>1222.93</ele>
        <time>2015-05-18T12:31:43Z</time>
      </trkpt>
      <trkpt lat="44.75385" lon="6.03719">
        <ele>1224.38</ele>
        <time>2015-05-18T12:31:46Z</time>
      </trkpt>
      <trkpt lat="44.75387" lon="6.03718">
        <ele>1222.93</ele>
        <time>2015-05-18T12:31:50Z</time>
      </trkpt>
      <trkpt lat="44.7539" lon="6.03716">
        <ele>1223.9</ele>
        <time>2015-05-18T12:31:52Z</time>
      </trkpt>
      <trkpt lat="44.75394" lon="6.03713">
        <ele>1221.97</ele>
        <time>2015-05-18T12:31:57Z</time>
      </trkpt>
      <trkpt lat="44.75396" lon="6.03711">
        <ele>1222.45</ele>
        <time>2015-05-18T12:31:59Z</time>
      </trkpt>
      <trkpt lat="44.75397" lon="6.03705">
        <ele>1225.34</ele>
        <time>2015-05-18T12:32:03Z</time>
      </trkpt>
      <trkpt lat="44.75398" lon="6.03704">
        <ele>1224.38</ele>
        <time>2015-05-18T12:32:04Z</time>
      </trkpt>
      <trkpt lat="44.75398" lon="6.03684">
        <ele>1221.01</ele>
        <time>2015-05-18T12:32:17Z</time>
      </trkpt>
      <trkpt lat="44.75396" lon="6.03661">
        <ele>1220.05</ele>
        <time>2015-05-18T12:32:33Z</time>
      </trkpt>
      <trkpt lat="44.75396" lon="6.03644">
        <ele>1216.69</ele>
        <time>2015-05-18T12:32:46Z</time>
      </trkpt>
      <trkpt lat="44.75396" lon="6.03644">
        <ele>1220.05</ele>
        <time>2015-05-18T12:32:47Z</time>
      </trkpt>
      <trkpt lat="44.75385" lon="6.03624">
        <ele>1218.61</ele>
        <time>2015-05-18T12:37:40Z</time>
      </trkpt>
      <trkpt lat="44.75385" lon="6.03626">
        <ele>1219.57</ele>
        <time>2015-05-18T12:37:42Z</time>
      </trkpt>
      <trkpt lat="44.75389" lon="6.03624">
        <ele>1219.57</ele>
        <time>2015-05-18T12:37:45Z</time>
      </trkpt>
      <trkpt lat="44.75393" lon="6.03622">
        <ele>1219.57</ele>
        <time>2015-05-18T12:37:50Z</time>
      </trkpt>
      <trkpt lat="44.75399" lon="6.03609">
        <ele>1216.69</ele>
        <time>2015-05-18T12:38:05Z</time>
      </trkpt>
      <trkpt lat="44.75404" lon="6.03602">
        <ele>1215.24</ele>
        <time>2015-05-18T12:38:12Z</time>
      </trkpt>
      <trkpt lat="44.75406" lon="6.03599">
        <ele>1217.17</ele>
        <time>2015-05-18T12:38:14Z</time>
      </trkpt>
      <trkpt lat="44.75408" lon="6.03596">
        <ele>1215.72</ele>
        <time>2015-05-18T12:38:18Z</time>
      </trkpt>
      <trkpt lat="44.75411" lon="6.03586">
        <ele>1215.24</ele>
        <time>2015-05-18T12:38:26Z</time>
      </trkpt>
      <trkpt lat="44.75413" lon="6.03574">
        <ele>1218.61</ele>
        <time>2015-05-18T12:38:33Z</time>
      </trkpt>
      <trkpt lat="44.75414" lon="6.03572">
        <ele>1215.72</ele>
        <time>2015-05-18T12:38:35Z</time>
      </trkpt>
      <trkpt lat="44.75415" lon="6.0357">
        <ele>1215.24</ele>
        <time>2015-05-18T12:38:36Z</time>
      </trkpt>
      <trkpt lat="44.7542" lon="6.03557">
        <ele>1212.36</ele>
        <time>2015-05-18T12:38:44Z</time>
      </trkpt>
      <trkpt lat="44.75424" lon="6.03546">
        <ele>1212.36</ele>
        <time>2015-05-18T12:38:53Z</time>
      </trkpt>
      <trkpt lat="44.75427" lon="6.03536">
        <ele>1210.44</ele>
        <time>2015-05-18T12:39:02Z</time>
      </trkpt>
      <trkpt lat="44.7543" lon="6.03529">
        <ele>1212.36</ele>
        <time>2015-05-18T12:39:08Z</time>
      </trkpt>
      <trkpt lat="44.75432" lon="6.03525">
        <ele>1209.48</ele>
        <time>2015-05-18T12:39:12Z</time>
      </trkpt>
      <trkpt lat="44.75433" lon="6.03524">
        <ele>1211.4</ele>
        <time>2015-05-18T12:39:14Z</time>
      </trkpt>
      <trkpt lat="44.75437" lon="6.03516">
        <ele>1208.03</ele>
        <time>2015-05-18T12:39:26Z</time>
      </trkpt>
      <trkpt lat="44.75438" lon="6.03515">
        <ele>1208.03</ele>
        <time>2015-05-18T12:39:27Z</time>
      </trkpt>
      <trkpt lat="44.75444" lon="6.03503">
        <ele>1207.55</ele>
        <time>2015-05-18T12:39:40Z</time>
      </trkpt>
      <trkpt lat="44.75445" lon="6.03499">
        <ele>1208.51</ele>
        <time>2015-05-18T12:39:43Z</time>
      </trkpt>
      <trkpt lat="44.75449" lon="6.03489">
        <ele>1204.67</ele>
        <time>2015-05-18T12:39:51Z</time>
      </trkpt>
      <trkpt lat="44.75461" lon="6.03468">
        <ele>1205.15</ele>
        <time>2015-05-18T12:40:03Z</time>
      </trkpt>
      <trkpt lat="44.75464" lon="6.03458">
        <ele>1205.63</ele>
        <time>2015-05-18T12:40:10Z</time>
      </trkpt>
      <trkpt lat="44.75466" lon="6.03454">
        <ele>1204.19</ele>
        <time>2015-05-18T12:40:13Z</time>
      </trkpt>
      <trkpt lat="44.75478" lon="6.03436">
        <ele>1202.27</ele>
        <time>2015-05-18T12:40:29Z</time>
      </trkpt>
      <trkpt lat="44.75489" lon="6.03421">
        <ele>1201.3</ele>
        <time>2015-05-18T12:40:44Z</time>
      </trkpt>
      <trkpt lat="44.75493" lon="6.03417">
        <ele>1200.82</ele>
        <time>2015-05-18T12:40:51Z</time>
      </trkpt>
      <trkpt lat="44.75495" lon="6.03415">
        <ele>1197.94</ele>
        <time>2015-05-18T12:40:56Z</time>
      </trkpt>
      <trkpt lat="44.75498" lon="6.03415">
        <ele>1199.86</ele>
        <time>2015-05-18T12:41:00Z</time>
      </trkpt>
      <trkpt lat="44.75505" lon="6.03409">
        <ele>1198.42</ele>
        <time>2015-05-18T12:41:07Z</time>
      </trkpt>
      <trkpt lat="44.75513" lon="6.03401">
        <ele>1197.46</ele>
        <time>2015-05-18T12:41:18Z</time>
      </trkpt>
      <trkpt lat="44.75522" lon="6.03391">
        <ele>1196.5</ele>
        <time>2015-05-18T12:41:26Z</time>
      </trkpt>
      <trkpt lat="44.75531" lon="6.03381">
        <ele>1194.58</ele>
        <time>2015-05-18T12:41:32Z</time>
      </trkpt>
      <trkpt lat="44.75537" lon="6.03366">
        <ele>1195.06</ele>
        <time>2015-05-18T12:41:44Z</time>
      </trkpt>
      <trkpt lat="44.75538" lon="6.03349">
        <ele>1191.21</ele>
        <time>2015-05-18T12:41:52Z</time>
      </trkpt>
      <trkpt lat="44.7554" lon="6.03344">
        <ele>1194.09</ele>
        <time>2015-05-18T12:41:56Z</time>
      </trkpt>
      <trkpt lat="44.75544" lon="6.03329">
        <ele>1190.73</ele>
        <time>2015-05-18T12:42:08Z</time>
      </trkpt>
      <trkpt lat="44.75545" lon="6.03317">
        <ele>1194.58</ele>
        <time>2015-05-18T12:42:15Z</time>
      </trkpt>
      <trkpt lat="44.75546" lon="6.03315">
        <ele>1194.58</ele>
        <time>2015-05-18T12:42:16Z</time>
      </trkpt>
      <trkpt lat="44.75548" lon="6.0331">
        <ele>1190.25</ele>
        <time>2015-05-18T12:42:23Z</time>
      </trkpt>
      <trkpt lat="44.75549" lon="6.03308">
        <ele>1190.73</ele>
        <time>2015-05-18T12:42:24Z</time>
      </trkpt>
      <trkpt lat="44.75548" lon="6.03302">
        <ele>1192.65</ele>
        <time>2015-05-18T12:42:27Z</time>
      </trkpt>
      <trkpt lat="44.75547" lon="6.03291">
        <ele>1192.65</ele>
        <time>2015-05-18T12:42:39Z</time>
      </trkpt>
      <trkpt lat="44.75548" lon="6.03277">
        <ele>1191.69</ele>
        <time>2015-05-18T12:42:52Z</time>
      </trkpt>
      <trkpt lat="44.75548" lon="6.03276">
        <ele>1190.25</ele>
        <time>2015-05-18T12:42:54Z</time>
      </trkpt>
      <trkpt lat="44.75547" lon="6.03271">
        <ele>1192.17</ele>
        <time>2015-05-18T12:42:59Z</time>
      </trkpt>
      <trkpt lat="44.75546" lon="6.03259">
        <ele>1190.73</ele>
        <time>2015-05-18T12:43:07Z</time>
      </trkpt>
      <trkpt lat="44.75545" lon="6.03256">
        <ele>1189.77</ele>
        <time>2015-05-18T12:43:09Z</time>
      </trkpt>
      <trkpt lat="44.75545" lon="6.03253">
        <ele>1190.73</ele>
        <time>2015-05-18T12:43:12Z</time>
      </trkpt>
      <trkpt lat="44.75546" lon="6.03237">
        <ele>1190.25</ele>
        <time>2015-05-18T12:43:23Z</time>
      </trkpt>
      <trkpt lat="44.75548" lon="6.03227">
        <ele>1189.29</ele>
        <time>2015-05-18T12:43:28Z</time>
      </trkpt>
      <trkpt lat="44.75551" lon="6.03202">
        <ele>1187.37</ele>
        <time>2015-05-18T12:43:35Z</time>
      </trkpt>
      <trkpt lat="44.75551" lon="6.03199">
        <ele>1189.77</ele>
        <time>2015-05-18T12:43:36Z</time>
      </trkpt>
      <trkpt lat="44.75556" lon="6.03188">
        <ele>1189.29</ele>
        <time>2015-05-18T12:43:43Z</time>
      </trkpt>
      <trkpt lat="44.75556" lon="6.03173">
        <ele>1187.85</ele>
        <time>2015-05-18T12:43:54Z</time>
      </trkpt>
      <trkpt lat="44.75552" lon="6.03167">
        <ele>1186.4</ele>
        <time>2015-05-18T12:44:01Z</time>
      </trkpt>
      <trkpt lat="44.75547" lon="6.03151">
        <ele>1184.96</ele>
        <time>2015-05-18T12:44:13Z</time>
      </trkpt>
      <trkpt lat="44.75542" lon="6.03133">
        <ele>1184</ele>
        <time>2015-05-18T12:44:26Z</time>
      </trkpt>
      <trkpt lat="44.75541" lon="6.03131">
        <ele>1183.52</ele>
        <time>2015-05-18T12:44:28Z</time>
      </trkpt>
      <trkpt lat="44.75534" lon="6.03115">
        <ele>1182.08</ele>
        <time>2015-05-18T12:44:42Z</time>
      </trkpt>
      <trkpt lat="44.75532" lon="6.03109">
        <ele>1178.71</ele>
        <time>2015-05-18T12:44:47Z</time>
      </trkpt>
      <trkpt lat="44.75528" lon="6.03099">
        <ele>1180.16</ele>
        <time>2015-05-18T12:44:57Z</time>
      </trkpt>
      <trkpt lat="44.75527" lon="6.03099">
        <ele>1179.19</ele>
        <time>2015-05-18T12:44:58Z</time>
      </trkpt>
      <trkpt lat="44.75523" lon="6.03091">
        <ele>1180.16</ele>
        <time>2015-05-18T12:45:04Z</time>
      </trkpt>
      <trkpt lat="44.75519" lon="6.03087">
        <ele>1176.31</ele>
        <time>2015-05-18T12:45:08Z</time>
      </trkpt>
      <trkpt lat="44.75519" lon="6.03087">
        <ele>1176.31</ele>
        <time>2015-05-18T12:45:09Z</time>
      </trkpt>
      <trkpt lat="44.75517" lon="6.03084">
        <ele>1178.71</ele>
        <time>2015-05-18T12:45:12Z</time>
      </trkpt>
      <trkpt lat="44.75513" lon="6.03083">
        <ele>1175.83</ele>
        <time>2015-05-18T12:45:16Z</time>
      </trkpt>
      <trkpt lat="44.75512" lon="6.03082">
        <ele>1176.79</ele>
        <time>2015-05-18T12:45:17Z</time>
      </trkpt>
      <trkpt lat="44.7551" lon="6.03081">
        <ele>1177.75</ele>
        <time>2015-05-18T12:45:19Z</time>
      </trkpt>
      <trkpt lat="44.75498" lon="6.03082">
        <ele>1177.75</ele>
        <time>2015-05-18T12:45:33Z</time>
      </trkpt>
      <trkpt lat="44.75497" lon="6.03082">
        <ele>1177.27</ele>
        <time>2015-05-18T12:45:34Z</time>
      </trkpt>
      <trkpt lat="44.75492" lon="6.03083">
        <ele>1175.35</ele>
        <time>2015-05-18T12:45:38Z</time>
      </trkpt>
      <trkpt lat="44.75484" lon="6.03078">
        <ele>1175.35</ele>
        <time>2015-05-18T12:45:49Z</time>
      </trkpt>
      <trkpt lat="44.75483" lon="6.03077">
        <ele>1173.91</ele>
        <time>2015-05-18T12:45:51Z</time>
      </trkpt>
      <trkpt lat="44.75482" lon="6.03075">
        <ele>1175.35</ele>
        <time>2015-05-18T12:45:56Z</time>
      </trkpt>
      <trkpt lat="44.75467" lon="6.03063">
        <ele>1175.83</ele>
        <time>2015-05-18T12:46:09Z</time>
      </trkpt>
      <trkpt lat="44.75465" lon="6.03058">
        <ele>1174.87</ele>
        <time>2015-05-18T12:46:11Z</time>
      </trkpt>
      <trkpt lat="44.75461" lon="6.0305">
        <ele>1175.83</ele>
        <time>2015-05-18T12:46:15Z</time>
      </trkpt>
      <trkpt lat="44.75455" lon="6.03031">
        <ele>1175.35</ele>
        <time>2015-05-18T12:46:27Z</time>
      </trkpt>
      <trkpt lat="44.75454" lon="6.03024">
        <ele>1175.35</ele>
        <time>2015-05-18T12:46:32Z</time>
      </trkpt>
      <trkpt lat="44.75458" lon="6.03012">
        <ele>1172.95</ele>
        <time>2015-05-18T12:46:46Z</time>
      </trkpt>
      <trkpt lat="44.75464" lon="6.03019">
        <ele>1173.91</ele>
        <time>2015-05-18T12:47:01Z</time>
      </trkpt>
      <trkpt lat="44.75475" lon="6.0303">
        <ele>1171.02</ele>
        <time>2015-05-18T12:47:12Z</time>
      </trkpt>
      <trkpt lat="44.75477" lon="6.03029">
        <ele>1171.02</ele>
        <time>2015-05-18T12:47:17Z</time>
      </trkpt>
      <trkpt lat="44.75489" lon="6.03032">
        <ele>1167.66</ele>
        <time>2015-05-18T12:47:29Z</time>
      </trkpt>
      <trkpt lat="44.75494" lon="6.03032">
        <ele>1169.58</ele>
        <time>2015-05-18T12:47:33Z</time>
      </trkpt>
      <trkpt lat="44.75506" lon="6.03032">
        <ele>1169.1</ele>
        <time>2015-05-18T12:47:47Z</time>
      </trkpt>
      <trkpt lat="44.75512" lon="6.03032">
        <ele>1166.22</ele>
        <time>2015-05-18T12:47:55Z</time>
      </trkpt>
      <trkpt lat="44.75535" lon="6.03024">
        <ele>1164.77</ele>
        <time>2015-05-18T12:48:13Z</time>
      </trkpt>
      <trkpt lat="44.75542" lon="6.03025">
        <ele>1161.41</ele>
        <time>2015-05-18T12:48:21Z</time>
      </trkpt>
      <trkpt lat="44.75543" lon="6.03025">
        <ele>1161.89</ele>
        <time>2015-05-18T12:48:22Z</time>
      </trkpt>
      <trkpt lat="44.75549" lon="6.03032">
        <ele>1160.45</ele>
        <time>2015-05-18T12:48:31Z</time>
      </trkpt>
      <trkpt lat="44.75553" lon="6.03042">
        <ele>1159.97</ele>
        <time>2015-05-18T12:48:39Z</time>
      </trkpt>
      <trkpt lat="44.75562" lon="6.03056">
        <ele>1160.93</ele>
        <time>2015-05-18T12:48:52Z</time>
      </trkpt>
      <trkpt lat="44.75566" lon="6.03061">
        <ele>1159.49</ele>
        <time>2015-05-18T12:48:58Z</time>
      </trkpt>
      <trkpt lat="44.75576" lon="6.03066">
        <ele>1155.64</ele>
        <time>2015-05-18T12:49:12Z</time>
      </trkpt>
      <trkpt lat="44.75586" lon="6.03075">
        <ele>1154.68</ele>
        <time>2015-05-18T12:49:25Z</time>
      </trkpt>
      <trkpt lat="44.75598" lon="6.03084">
        <ele>1153.72</ele>
        <time>2015-05-18T12:49:39Z</time>
      </trkpt>
      <trkpt lat="44.75605" lon="6.0309">
        <ele>1147.95</ele>
        <time>2015-05-18T12:49:48Z</time>
      </trkpt>
      <trkpt lat="44.75607" lon="6.0309">
        <ele>1152.28</ele>
        <time>2015-05-18T12:49:49Z</time>
      </trkpt>
      <trkpt lat="44.75612" lon="6.03092">
        <ele>1146.51</ele>
        <time>2015-05-18T12:49:54Z</time>
      </trkpt>
      <trkpt lat="44.75612" lon="6.03093">
        <ele>1153.24</ele>
        <time>2015-05-18T12:49:55Z</time>
      </trkpt>
      <trkpt lat="44.75613" lon="6.03094">
        <ele>1148.91</ele>
        <time>2015-05-18T12:49:57Z</time>
      </trkpt>
      <trkpt lat="44.75613" lon="6.03096">
        <ele>1151.8</ele>
        <time>2015-05-18T12:49:58Z</time>
      </trkpt>
      <trkpt lat="44.75615" lon="6.031">
        <ele>1144.11</ele>
        <time>2015-05-18T12:50:03Z</time>
      </trkpt>
      <trkpt lat="44.75616" lon="6.03102">
        <ele>1151.8</ele>
        <time>2015-05-18T12:50:04Z</time>
      </trkpt>
      <trkpt lat="44.75626" lon="6.03113">
        <ele>1147.47</ele>
        <time>2015-05-18T12:50:18Z</time>
      </trkpt>
      <trkpt lat="44.75627" lon="6.03114">
        <ele>1147.95</ele>
        <time>2015-05-18T12:50:19Z</time>
      </trkpt>
      <trkpt lat="44.75629" lon="6.03114">
        <ele>1148.91</ele>
        <time>2015-05-18T12:50:21Z</time>
      </trkpt>
      <trkpt lat="44.75643" lon="6.03126">
        <ele>1146.51</ele>
        <time>2015-05-18T12:50:37Z</time>
      </trkpt>
      <trkpt lat="44.75647" lon="6.03131">
        <ele>1143.63</ele>
        <time>2015-05-18T12:50:42Z</time>
      </trkpt>
      <trkpt lat="44.75648" lon="6.03131">
        <ele>1143.14</ele>
        <time>2015-05-18T12:50:43Z</time>
      </trkpt>
      <trkpt lat="44.7565" lon="6.03132">
        <ele>1144.59</ele>
        <time>2015-05-18T12:50:45Z</time>
      </trkpt>
      <trkpt lat="44.7566" lon="6.03144">
        <ele>1143.63</ele>
        <time>2015-05-18T12:51:00Z</time>
      </trkpt>
      <trkpt lat="44.75664" lon="6.03149">
        <ele>1144.59</ele>
        <time>2015-05-18T12:51:04Z</time>
      </trkpt>
      <trkpt lat="44.75667" lon="6.03154">
        <ele>1141.7</ele>
        <time>2015-05-18T12:51:10Z</time>
      </trkpt>
      <trkpt lat="44.75679" lon="6.03165">
        <ele>1138.34</ele>
        <time>2015-05-18T12:51:22Z</time>
      </trkpt>
      <trkpt lat="44.7568" lon="6.03166">
        <ele>1138.82</ele>
        <time>2015-05-18T12:51:23Z</time>
      </trkpt>
      <trkpt lat="44.75688" lon="6.03177">
        <ele>1139.78</ele>
        <time>2015-05-18T12:51:33Z</time>
      </trkpt>
      <trkpt lat="44.75693" lon="6.03183">
        <ele>1136.42</ele>
        <time>2015-05-18T12:51:39Z</time>
      </trkpt>
      <trkpt lat="44.75694" lon="6.03184">
        <ele>1136.42</ele>
        <time>2015-05-18T12:51:40Z</time>
      </trkpt>
      <trkpt lat="44.75703" lon="6.03192">
        <ele>1134.01</ele>
        <time>2015-05-18T12:51:54Z</time>
      </trkpt>
      <trkpt lat="44.75714" lon="6.03207">
        <ele>1133.53</ele>
        <time>2015-05-18T12:52:14Z</time>
      </trkpt>
      <trkpt lat="44.75718" lon="6.03218">
        <ele>1131.13</ele>
        <time>2015-05-18T12:52:22Z</time>
      </trkpt>
      <trkpt lat="44.75726" lon="6.03235">
        <ele>1131.61</ele>
        <time>2015-05-18T12:52:35Z</time>
      </trkpt>
      <trkpt lat="44.75732" lon="6.03243">
        <ele>1128.73</ele>
        <time>2015-05-18T12:52:43Z</time>
      </trkpt>
      <trkpt lat="44.75738" lon="6.03246">
        <ele>1130.65</ele>
        <time>2015-05-18T12:52:48Z</time>
      </trkpt>
      <trkpt lat="44.75747" lon="6.03246">
        <ele>1127.76</ele>
        <time>2015-05-18T12:52:55Z</time>
      </trkpt>
      <trkpt lat="44.75761" lon="6.03245">
        <ele>1126.32</ele>
        <time>2015-05-18T12:53:06Z</time>
      </trkpt>
      <trkpt lat="44.75763" lon="6.03245">
        <ele>1125.84</ele>
        <time>2015-05-18T12:53:08Z</time>
      </trkpt>
      <trkpt lat="44.75767" lon="6.03246">
        <ele>1126.8</ele>
        <time>2015-05-18T12:53:12Z</time>
      </trkpt>
      <trkpt lat="44.7577" lon="6.03247">
        <ele>1124.88</ele>
        <time>2015-05-18T12:53:15Z</time>
      </trkpt>
      <trkpt lat="44.75783" lon="6.03248">
        <ele>1124.4</ele>
        <time>2015-05-18T12:53:26Z</time>
      </trkpt>
      <trkpt lat="44.75795" lon="6.03257">
        <ele>1121.03</ele>
        <time>2015-05-18T12:53:43Z</time>
      </trkpt>
      <trkpt lat="44.75802" lon="6.03258">
        <ele>1121.52</ele>
        <time>2015-05-18T12:53:52Z</time>
      </trkpt>
      <trkpt lat="44.75806" lon="6.03261">
        <ele>1122</ele>
        <time>2015-05-18T12:53:56Z</time>
      </trkpt>
      <trkpt lat="44.75807" lon="6.03263">
        <ele>1120.55</ele>
        <time>2015-05-18T12:53:58Z</time>
      </trkpt>
      <trkpt lat="44.7581" lon="6.03267">
        <ele>1120.07</ele>
        <time>2015-05-18T12:54:02Z</time>
      </trkpt>
      <trkpt lat="44.75824" lon="6.03275">
        <ele>1119.11</ele>
        <time>2015-05-18T12:54:15Z</time>
      </trkpt>
      <trkpt lat="44.75831" lon="6.03277">
        <ele>1118.63</ele>
        <time>2015-05-18T12:54:23Z</time>
      </trkpt>
      <trkpt lat="44.7584" lon="6.03286">
        <ele>1117.19</ele>
        <time>2015-05-18T12:54:37Z</time>
      </trkpt>
      <trkpt lat="44.75843" lon="6.03288">
        <ele>1115.27</ele>
        <time>2015-05-18T12:54:41Z</time>
      </trkpt>
      <trkpt lat="44.75855" lon="6.03297">
        <ele>1111.9</ele>
        <time>2015-05-18T12:54:52Z</time>
      </trkpt>
      <trkpt lat="44.75856" lon="6.03298">
        <ele>1111.9</ele>
        <time>2015-05-18T12:54:53Z</time>
      </trkpt>
      <trkpt lat="44.75861" lon="6.03303">
        <ele>1113.34</ele>
        <time>2015-05-18T12:54:58Z</time>
      </trkpt>
      <trkpt lat="44.75872" lon="6.03316">
        <ele>1112.38</ele>
        <time>2015-05-18T12:55:10Z</time>
      </trkpt>
      <trkpt lat="44.75877" lon="6.03319">
        <ele>1112.38</ele>
        <time>2015-05-18T12:55:14Z</time>
      </trkpt>
      <trkpt lat="44.75882" lon="6.03323">
        <ele>1113.82</ele>
        <time>2015-05-18T12:55:26Z</time>
      </trkpt>
      <trkpt lat="44.7589" lon="6.03331">
        <ele>1113.34</ele>
        <time>2015-05-18T12:55:34Z</time>
      </trkpt>
      <trkpt lat="44.75899" lon="6.03338">
        <ele>1112.38</ele>
        <time>2015-05-18T12:55:43Z</time>
      </trkpt>
      <trkpt lat="44.75911" lon="6.03352">
        <ele>1112.86</ele>
        <time>2015-05-18T12:55:55Z</time>
      </trkpt>
      <trkpt lat="44.75925" lon="6.0336">
        <ele>1111.42</ele>
        <time>2015-05-18T12:56:08Z</time>
      </trkpt>
      <trkpt lat="44.75934" lon="6.03363">
        <ele>1108.06</ele>
        <time>2015-05-18T12:56:16Z</time>
      </trkpt>
      <trkpt lat="44.75935" lon="6.03363">
        <ele>1112.38</ele>
        <time>2015-05-18T12:56:17Z</time>
      </trkpt>
      <trkpt lat="44.75949" lon="6.03366">
        <ele>1109.98</ele>
        <time>2015-05-18T12:56:32Z</time>
      </trkpt>
      <trkpt lat="44.75962" lon="6.03373">
        <ele>1109.98</ele>
        <time>2015-05-18T12:56:48Z</time>
      </trkpt>
      <trkpt lat="44.75978" lon="6.03377">
        <ele>1109.02</ele>
        <time>2015-05-18T12:57:05Z</time>
      </trkpt>
      <trkpt lat="44.75999" lon="6.03384">
        <ele>1108.06</ele>
        <time>2015-05-18T12:57:22Z</time>
      </trkpt>
      <trkpt lat="44.76013" lon="6.03398">
        <ele>1108.54</ele>
        <time>2015-05-18T12:57:34Z</time>
      </trkpt>
      <trkpt lat="44.76014" lon="6.034">
        <ele>1107.58</ele>
        <time>2015-05-18T12:57:36Z</time>
      </trkpt>
      <trkpt lat="44.76019" lon="6.03405">
        <ele>1104.69</ele>
        <time>2015-05-18T12:57:43Z</time>
      </trkpt>
      <trkpt lat="44.76022" lon="6.03407">
        <ele>1103.73</ele>
        <time>2015-05-18T12:57:51Z</time>
      </trkpt>
      <trkpt lat="44.76025" lon="6.03409">
        <ele>1105.17</ele>
        <time>2015-05-18T12:57:54Z</time>
      </trkpt>
      <trkpt lat="44.76033" lon="6.03412">
        <ele>1102.77</ele>
        <time>2015-05-18T12:58:01Z</time>
      </trkpt>
      <trkpt lat="44.76042" lon="6.03411">
        <ele>1102.29</ele>
        <time>2015-05-18T12:58:17Z</time>
      </trkpt>
      <trkpt lat="44.76046" lon="6.03414">
        <ele>1102.29</ele>
        <time>2015-05-18T12:58:38Z</time>
      </trkpt>
      <trkpt lat="44.76047" lon="6.03414">
        <ele>1101.33</ele>
        <time>2015-05-18T12:59:33Z</time>
      </trkpt>
      <trkpt lat="44.76047" lon="6.03414">
        <ele>1105.65</ele>
        <time>2015-05-18T12:59:59Z</time>
      </trkpt>
      <trkpt lat="44.76047" lon="6.03414">
        <ele>1097.48</ele>
        <time>2015-05-18T13:00:00Z</time>
      </trkpt>
      <trkpt lat="44.76047" lon="6.03414">
        <ele>1097.96</ele>
        <time>2015-05-18T13:00:01Z</time>
      </trkpt>
      <trkpt lat="44.76047" lon="6.03414">
        <ele>1100.85</ele>
        <time>2015-05-18T13:00:02Z</time>
      </trkpt>
      <trkpt lat="44.76047" lon="6.03414">
        <ele>1104.69</ele>
        <time>2015-05-18T13:00:04Z</time>
      </trkpt>
      <trkpt lat="44.76047" lon="6.03414">
        <ele>1100.37</ele>
        <time>2015-05-18T13:00:05Z</time>
      </trkpt>
      <trkpt lat="44.76047" lon="6.03415">
        <ele>1103.25</ele>
        <time>2015-05-18T13:00:07Z</time>
      </trkpt>
      <trkpt lat="44.76045" lon="6.03414">
        <ele>1107.1</ele>
        <time>2015-05-18T13:00:12Z</time>
      </trkpt>
      <trkpt lat="44.76045" lon="6.03414">
        <ele>1107.1</ele>
        <time>2015-05-18T13:00:13Z</time>
      </trkpt>
      <trkpt lat="44.76045" lon="6.03414">
        <ele>1103.73</ele>
        <time>2015-05-18T13:00:15Z</time>
      </trkpt>
      <trkpt lat="44.76044" lon="6.03415">
        <ele>1107.58</ele>
        <time>2015-05-18T13:00:17Z</time>
      </trkpt>
      <trkpt lat="44.76042" lon="6.03415">
        <ele>1108.06</ele>
        <time>2015-05-18T13:00:23Z</time>
      </trkpt>
      <trkpt lat="44.76042" lon="6.03415">
        <ele>1102.77</ele>
        <time>2015-05-18T13:00:24Z</time>
      </trkpt>
      <trkpt lat="44.76042" lon="6.03416">
        <ele>1105.65</ele>
        <time>2015-05-18T13:00:25Z</time>
      </trkpt>
      <trkpt lat="44.76042" lon="6.03416">
        <ele>1102.29</ele>
        <time>2015-05-18T13:00:29Z</time>
      </trkpt>
      <trkpt lat="44.76042" lon="6.03415">
        <ele>1104.69</ele>
        <time>2015-05-18T13:00:30Z</time>
      </trkpt>
      <trkpt lat="44.76042" lon="6.03415">
        <ele>1107.58</ele>
        <time>2015-05-18T13:00:32Z</time>
      </trkpt>
      <trkpt lat="44.76041" lon="6.03415">
        <ele>1101.33</ele>
        <time>2015-05-18T13:00:33Z</time>
      </trkpt>
      <trkpt lat="44.76039" lon="6.03414">
        <ele>1102.29</ele>
        <time>2015-05-18T13:00:34Z</time>
      </trkpt>
      <trkpt lat="44.76039" lon="6.03413">
        <ele>1106.13</ele>
        <time>2015-05-18T13:00:35Z</time>
      </trkpt>
      <trkpt lat="44.76037" lon="6.03411">
        <ele>1105.65</ele>
        <time>2015-05-18T13:00:37Z</time>
      </trkpt>
      <trkpt lat="44.76036" lon="6.03408">
        <ele>1103.73</ele>
        <time>2015-05-18T13:00:39Z</time>
      </trkpt>
      <trkpt lat="44.76034" lon="6.03408">
        <ele>1106.61</ele>
        <time>2015-05-18T13:00:41Z</time>
      </trkpt>
      <trkpt lat="44.76032" lon="6.03407">
        <ele>1104.69</ele>
        <time>2015-05-18T13:00:48Z</time>
      </trkpt>
      <trkpt lat="44.76028" lon="6.03403">
        <ele>1100.85</ele>
        <time>2015-05-18T13:01:02Z</time>
      </trkpt>
      <trkpt lat="44.76028" lon="6.03403">
        <ele>1104.21</ele>
        <time>2015-05-18T13:01:03Z</time>
      </trkpt>
      <trkpt lat="44.76027" lon="6.03401">
        <ele>1104.21</ele>
        <time>2015-05-18T13:01:04Z</time>
      </trkpt>
      <trkpt lat="44.76025" lon="6.03397">
        <ele>1101.81</ele>
        <time>2015-05-18T13:01:10Z</time>
      </trkpt>
      <trkpt lat="44.76023" lon="6.03387">
        <ele>1101.33</ele>
        <time>2015-05-18T13:01:24Z</time>
      </trkpt>
      <trkpt lat="44.76017" lon="6.03377">
        <ele>1097</ele>
        <time>2015-05-18T13:01:35Z</time>
      </trkpt>
      <trkpt lat="44.7601" lon="6.03365">
        <ele>1097.48</ele>
        <time>2015-05-18T13:01:51Z</time>
      </trkpt>
      <trkpt lat="44.76009" lon="6.03361">
        <ele>1095.56</ele>
        <time>2015-05-18T13:01:53Z</time>
      </trkpt>
      <trkpt lat="44.76003" lon="6.03353">
        <ele>1093.64</ele>
        <time>2015-05-18T13:02:06Z</time>
      </trkpt>
      <trkpt lat="44.76002" lon="6.03348">
        <ele>1092.2</ele>
        <time>2015-05-18T13:02:13Z</time>
      </trkpt>
      <trkpt lat="44.75998" lon="6.03332">
        <ele>1089.31</ele>
        <time>2015-05-18T13:02:29Z</time>
      </trkpt>
      <trkpt lat="44.75993" lon="6.03324">
        <ele>1087.39</ele>
        <time>2015-05-18T13:02:43Z</time>
      </trkpt>
      <trkpt lat="44.75986" lon="6.03308">
        <ele>1084.99</ele>
        <time>2015-05-18T13:02:56Z</time>
      </trkpt>
      <trkpt lat="44.75985" lon="6.03304">
        <ele>1083.54</ele>
        <time>2015-05-18T13:03:01Z</time>
      </trkpt>
      <trkpt lat="44.75981" lon="6.03297">
        <ele>1082.58</ele>
        <time>2015-05-18T13:03:06Z</time>
      </trkpt>
      <trkpt lat="44.75977" lon="6.03285">
        <ele>1081.62</ele>
        <time>2015-05-18T13:03:20Z</time>
      </trkpt>
      <trkpt lat="44.75977" lon="6.03285">
        <ele>1078.74</ele>
        <time>2015-05-18T13:03:29Z</time>
      </trkpt>
      <trkpt lat="44.75976" lon="6.03265">
        <ele>1077.29</ele>
        <time>2015-05-18T13:03:41Z</time>
      </trkpt>
      <trkpt lat="44.75973" lon="6.03244">
        <ele>1073.93</ele>
        <time>2015-05-18T13:03:52Z</time>
      </trkpt>
      <trkpt lat="44.75975" lon="6.03232">
        <ele>1070.57</ele>
        <time>2015-05-18T13:04:04Z</time>
      </trkpt>
      <trkpt lat="44.75974" lon="6.03225">
        <ele>1071.53</ele>
        <time>2015-05-18T13:04:16Z</time>
      </trkpt>
      <trkpt lat="44.75974" lon="6.03225">
        <ele>1071.05</ele>
        <time>2015-05-18T13:04:18Z</time>
      </trkpt>
      <trkpt lat="44.75977" lon="6.03211">
        <ele>1068.16</ele>
        <time>2015-05-18T13:04:40Z</time>
      </trkpt>
      <trkpt lat="44.75985" lon="6.032">
        <ele>1066.72</ele>
        <time>2015-05-18T13:05:02Z</time>
      </trkpt>
      <trkpt lat="44.75989" lon="6.03194">
        <ele>1065.76</ele>
        <time>2015-05-18T13:05:07Z</time>
      </trkpt>
      <trkpt lat="44.75991" lon="6.03182">
        <ele>1064.32</ele>
        <time>2015-05-18T13:05:16Z</time>
      </trkpt>
      <trkpt lat="44.75996" lon="6.03178">
        <ele>1061.91</ele>
        <time>2015-05-18T13:05:20Z</time>
      </trkpt>
      <trkpt lat="44.76" lon="6.03172">
        <ele>1061.91</ele>
        <time>2015-05-18T13:05:25Z</time>
      </trkpt>
      <trkpt lat="44.76008" lon="6.0316">
        <ele>1059.99</ele>
        <time>2015-05-18T13:05:38Z</time>
      </trkpt>
      <trkpt lat="44.76008" lon="6.03157">
        <ele>1059.03</ele>
        <time>2015-05-18T13:05:45Z</time>
      </trkpt>
      <trkpt lat="44.7601" lon="6.03154">
        <ele>1057.59</ele>
        <time>2015-05-18T13:05:51Z</time>
      </trkpt>
      <trkpt lat="44.7601" lon="6.03151">
        <ele>1057.59</ele>
        <time>2015-05-18T13:06:12Z</time>
      </trkpt>
      <trkpt lat="44.76012" lon="6.03148">
        <ele>1053.74</ele>
        <time>2015-05-18T13:06:15Z</time>
      </trkpt>
      <trkpt lat="44.76013" lon="6.03147">
        <ele>1054.22</ele>
        <time>2015-05-18T13:06:22Z</time>
      </trkpt>
      <trkpt lat="44.76016" lon="6.03128">
        <ele>1051.34</ele>
        <time>2015-05-18T13:06:36Z</time>
      </trkpt>
      <trkpt lat="44.76019" lon="6.03116">
        <ele>1047.97</ele>
        <time>2015-05-18T13:06:50Z</time>
      </trkpt>
      <trkpt lat="44.7602" lon="6.03113">
        <ele>1043.65</ele>
        <time>2015-05-18T13:07:08Z</time>
      </trkpt>
      <trkpt lat="44.76019" lon="6.03112">
        <ele>1044.13</ele>
        <time>2015-05-18T13:07:09Z</time>
      </trkpt>
      <trkpt lat="44.76019" lon="6.03109">
        <ele>1041.25</ele>
        <time>2015-05-18T13:07:19Z</time>
      </trkpt>
      <trkpt lat="44.76019" lon="6.03109">
        <ele>1044.61</ele>
        <time>2015-05-18T13:07:21Z</time>
      </trkpt>
      <trkpt lat="44.76021" lon="6.03105">
        <ele>1041.25</ele>
        <time>2015-05-18T13:07:28Z</time>
      </trkpt>
      <trkpt lat="44.76022" lon="6.03096">
        <ele>1041.25</ele>
        <time>2015-05-18T13:07:44Z</time>
      </trkpt>
      <trkpt lat="44.76023" lon="6.03086">
        <ele>1042.69</ele>
        <time>2015-05-18T13:08:08Z</time>
      </trkpt>
      <trkpt lat="44.76014" lon="6.03079">
        <ele>1041.73</ele>
        <time>2015-05-18T13:08:22Z</time>
      </trkpt>
      <trkpt lat="44.76011" lon="6.03064">
        <ele>1041.73</ele>
        <time>2015-05-18T13:08:38Z</time>
      </trkpt>
      <trkpt lat="44.76011" lon="6.03062">
        <ele>1039.8</ele>
        <time>2015-05-18T13:08:41Z</time>
      </trkpt>
      <trkpt lat="44.76013" lon="6.03056">
        <ele>1042.21</ele>
        <time>2015-05-18T13:08:43Z</time>
      </trkpt>
      <trkpt lat="44.76013" lon="6.03044">
        <ele>1040.76</ele>
        <time>2015-05-18T13:08:55Z</time>
      </trkpt>
      <trkpt lat="44.76013" lon="6.03038">
        <ele>1039.32</ele>
        <time>2015-05-18T13:09:00Z</time>
      </trkpt>
      <trkpt lat="44.76009" lon="6.03027">
        <ele>1039.8</ele>
        <time>2015-05-18T13:09:09Z</time>
      </trkpt>
      <trkpt lat="44.76008" lon="6.03023">
        <ele>1038.36</ele>
        <time>2015-05-18T13:09:13Z</time>
      </trkpt>
      <trkpt lat="44.76001" lon="6.03008">
        <ele>1040.28</ele>
        <time>2015-05-18T13:09:29Z</time>
      </trkpt>
      <trkpt lat="44.75994" lon="6.02991">
        <ele>1039.8</ele>
        <time>2015-05-18T13:09:45Z</time>
      </trkpt>
      <trkpt lat="44.75992" lon="6.02987">
        <ele>1042.21</ele>
        <time>2015-05-18T13:09:48Z</time>
      </trkpt>
      <trkpt lat="44.75992" lon="6.02985">
        <ele>1037.4</ele>
        <time>2015-05-18T13:09:49Z</time>
      </trkpt>
      <trkpt lat="44.75991" lon="6.02983">
        <ele>1040.28</ele>
        <time>2015-05-18T13:09:50Z</time>
      </trkpt>
      <trkpt lat="44.75989" lon="6.0298">
        <ele>1042.21</ele>
        <time>2015-05-18T13:09:53Z</time>
      </trkpt>
      <trkpt lat="44.75983" lon="6.02964">
        <ele>1038.84</ele>
        <time>2015-05-18T13:10:06Z</time>
      </trkpt>
      <trkpt lat="44.75981" lon="6.02954">
        <ele>1037.4</ele>
        <time>2015-05-18T13:10:13Z</time>
      </trkpt>
      <trkpt lat="44.75978" lon="6.02948">
        <ele>1042.69</ele>
        <time>2015-05-18T13:10:17Z</time>
      </trkpt>
      <trkpt lat="44.75978" lon="6.02947">
        <ele>1041.25</ele>
        <time>2015-05-18T13:10:18Z</time>
      </trkpt>
      <trkpt lat="44.75977" lon="6.02946">
        <ele>1037.88</ele>
        <time>2015-05-18T13:10:19Z</time>
      </trkpt>
      <trkpt lat="44.75977" lon="6.02944">
        <ele>1037.88</ele>
        <time>2015-05-18T13:10:20Z</time>
      </trkpt>
      <trkpt lat="44.75976" lon="6.02941">
        <ele>1042.21</ele>
        <time>2015-05-18T13:10:23Z</time>
      </trkpt>
      <trkpt lat="44.75973" lon="6.02938">
        <ele>1037.4</ele>
        <time>2015-05-18T13:10:26Z</time>
      </trkpt>
      <trkpt lat="44.75971" lon="6.02935">
        <ele>1041.25</ele>
        <time>2015-05-18T13:10:29Z</time>
      </trkpt>
      <trkpt lat="44.7597" lon="6.02933">
        <ele>1035.96</ele>
        <time>2015-05-18T13:10:32Z</time>
      </trkpt>
      <trkpt lat="44.75969" lon="6.02933">
        <ele>1039.32</ele>
        <time>2015-05-18T13:10:33Z</time>
      </trkpt>
      <trkpt lat="44.75968" lon="6.02932">
        <ele>1043.17</ele>
        <time>2015-05-18T13:10:34Z</time>
      </trkpt>
      <trkpt lat="44.75965" lon="6.0293">
        <ele>1038.36</ele>
        <time>2015-05-18T13:10:37Z</time>
      </trkpt>
      <trkpt lat="44.75965" lon="6.0293">
        <ele>1039.32</ele>
        <time>2015-05-18T13:10:38Z</time>
      </trkpt>
      <trkpt lat="44.75964" lon="6.02929">
        <ele>1043.17</ele>
        <time>2015-05-18T13:10:39Z</time>
      </trkpt>
      <trkpt lat="44.75963" lon="6.02928">
        <ele>1038.36</ele>
        <time>2015-05-18T13:10:41Z</time>
      </trkpt>
      <trkpt lat="44.75963" lon="6.02928">
        <ele>1039.32</ele>
        <time>2015-05-18T13:10:42Z</time>
      </trkpt>
      <trkpt lat="44.75962" lon="6.02926">
        <ele>1043.17</ele>
        <time>2015-05-18T13:10:44Z</time>
      </trkpt>
      <trkpt lat="44.75961" lon="6.02925">
        <ele>1038.84</ele>
        <time>2015-05-18T13:10:45Z</time>
      </trkpt>
      <trkpt lat="44.7596" lon="6.02923">
        <ele>1044.13</ele>
        <time>2015-05-18T13:10:47Z</time>
      </trkpt>
      <trkpt lat="44.75956" lon="6.02918">
        <ele>1040.28</ele>
        <time>2015-05-18T13:10:55Z</time>
      </trkpt>
      <trkpt lat="44.75955" lon="6.02917">
        <ele>1044.13</ele>
        <time>2015-05-18T13:10:56Z</time>
      </trkpt>
      <trkpt lat="44.75954" lon="6.02916">
        <ele>1040.28</ele>
        <time>2015-05-18T13:10:58Z</time>
      </trkpt>
      <trkpt lat="44.75954" lon="6.02916">
        <ele>1040.76</ele>
        <time>2015-05-18T13:10:59Z</time>
      </trkpt>
      <trkpt lat="44.75954" lon="6.02916">
        <ele>1044.13</ele>
        <time>2015-05-18T13:11:00Z</time>
      </trkpt>
      <trkpt lat="44.75954" lon="6.02916">
        <ele>1043.65</ele>
        <time>2015-05-18T13:11:01Z</time>
      </trkpt>
      <trkpt lat="44.75953" lon="6.02916">
        <ele>1039.32</ele>
        <time>2015-05-18T13:11:02Z</time>
      </trkpt>
      <trkpt lat="44.75952" lon="6.02916">
        <ele>1042.21</ele>
        <time>2015-05-18T13:11:03Z</time>
      </trkpt>
      <trkpt lat="44.75951" lon="6.02915">
        <ele>1043.65</ele>
        <time>2015-05-18T13:11:05Z</time>
      </trkpt>
      <trkpt lat="44.7595" lon="6.02914">
        <ele>1042.21</ele>
        <time>2015-05-18T13:11:07Z</time>
      </trkpt>
      <trkpt lat="44.7595" lon="6.02914">
        <ele>1044.13</ele>
        <time>2015-05-18T13:11:09Z</time>
      </trkpt>
      <trkpt lat="44.75946" lon="6.02909">
        <ele>1043.65</ele>
        <time>2015-05-18T13:11:17Z</time>
      </trkpt>
      <trkpt lat="44.75944" lon="6.02908">
        <ele>1046.53</ele>
        <time>2015-05-18T13:11:19Z</time>
      </trkpt>
      <trkpt lat="44.75943" lon="6.02908">
        <ele>1038.84</ele>
        <time>2015-05-18T13:11:20Z</time>
      </trkpt>
      <trkpt lat="44.75942" lon="6.02908">
        <ele>1043.17</ele>
        <time>2015-05-18T13:11:21Z</time>
      </trkpt>
      <trkpt lat="44.75938" lon="6.02907">
        <ele>1047.49</ele>
        <time>2015-05-18T13:11:29Z</time>
      </trkpt>
      <trkpt lat="44.75938" lon="6.02906">
        <ele>1042.69</ele>
        <time>2015-05-18T13:11:34Z</time>
      </trkpt>
      <trkpt lat="44.75939" lon="6.02906">
        <ele>1046.05</ele>
        <time>2015-05-18T13:11:35Z</time>
      </trkpt>
      <trkpt lat="44.75935" lon="6.02899">
        <ele>1042.69</ele>
        <time>2015-05-18T13:11:50Z</time>
      </trkpt>
      <trkpt lat="44.75935" lon="6.02899">
        <ele>1045.57</ele>
        <time>2015-05-18T13:11:51Z</time>
      </trkpt>
      <trkpt lat="44.75933" lon="6.02898">
        <ele>1049.9</ele>
        <time>2015-05-18T13:11:52Z</time>
      </trkpt>
      <trkpt lat="44.75928" lon="6.02887">
        <ele>1046.53</ele>
        <time>2015-05-18T13:11:56Z</time>
      </trkpt>
      <trkpt lat="44.75921" lon="6.02876">
        <ele>1050.38</ele>
        <time>2015-05-18T13:12:07Z</time>
      </trkpt>
      <trkpt lat="44.75921" lon="6.02875">
        <ele>1045.57</ele>
        <time>2015-05-18T13:12:08Z</time>
      </trkpt>
      <trkpt lat="44.75921" lon="6.02874">
        <ele>1047.97</ele>
        <time>2015-05-18T13:12:09Z</time>
      </trkpt>
      <trkpt lat="44.75921" lon="6.02874">
        <ele>1048.94</ele>
        <time>2015-05-18T13:12:10Z</time>
      </trkpt>
      <trkpt lat="44.75918" lon="6.02869">
        <ele>1046.53</ele>
        <time>2015-05-18T13:12:13Z</time>
      </trkpt>
      <trkpt lat="44.75917" lon="6.02867">
        <ele>1047.97</ele>
        <time>2015-05-18T13:12:14Z</time>
      </trkpt>
      <trkpt lat="44.75914" lon="6.0286">
        <ele>1049.9</ele>
        <time>2015-05-18T13:12:18Z</time>
      </trkpt>
      <trkpt lat="44.75914" lon="6.02859">
        <ele>1045.57</ele>
        <time>2015-05-18T13:12:19Z</time>
      </trkpt>
      <trkpt lat="44.75913" lon="6.02857">
        <ele>1047.49</ele>
        <time>2015-05-18T13:12:20Z</time>
      </trkpt>
      <trkpt lat="44.75912" lon="6.02852">
        <ele>1047.01</ele>
        <time>2015-05-18T13:12:25Z</time>
      </trkpt>
      <trkpt lat="44.75912" lon="6.0285">
        <ele>1047.01</ele>
        <time>2015-05-18T13:12:29Z</time>
      </trkpt>
      <trkpt lat="44.75911" lon="6.02848">
        <ele>1046.53</ele>
        <time>2015-05-18T13:12:34Z</time>
      </trkpt>
      <trkpt lat="44.75909" lon="6.02844">
        <ele>1049.9</ele>
        <time>2015-05-18T13:12:37Z</time>
      </trkpt>
      <trkpt lat="44.75908" lon="6.02842">
        <ele>1045.09</ele>
        <time>2015-05-18T13:12:38Z</time>
      </trkpt>
      <trkpt lat="44.75908" lon="6.0284">
        <ele>1047.01</ele>
        <time>2015-05-18T13:12:39Z</time>
      </trkpt>
      <trkpt lat="44.75906" lon="6.02836">
        <ele>1048.94</ele>
        <time>2015-05-18T13:12:41Z</time>
      </trkpt>
      <trkpt lat="44.75903" lon="6.02833">
        <ele>1045.09</ele>
        <time>2015-05-18T13:12:43Z</time>
      </trkpt>
      <trkpt lat="44.75901" lon="6.02831">
        <ele>1047.01</ele>
        <time>2015-05-18T13:12:44Z</time>
      </trkpt>
      <trkpt lat="44.75901" lon="6.02829">
        <ele>1049.9</ele>
        <time>2015-05-18T13:12:45Z</time>
      </trkpt>
      <trkpt lat="44.75897" lon="6.02823">
        <ele>1049.42</ele>
        <time>2015-05-18T13:12:51Z</time>
      </trkpt>
      <trkpt lat="44.75893" lon="6.02797">
        <ele>1049.42</ele>
        <time>2015-05-18T13:13:03Z</time>
      </trkpt>
      <trkpt lat="44.75893" lon="6.02795">
        <ele>1050.38</ele>
        <time>2015-05-18T13:13:05Z</time>
      </trkpt>
      <trkpt lat="44.75884" lon="6.02784">
        <ele>1049.42</ele>
        <time>2015-05-18T13:13:14Z</time>
      </trkpt>
      <trkpt lat="44.7588" lon="6.02778">
        <ele>1051.34</ele>
        <time>2015-05-18T13:13:22Z</time>
      </trkpt>
      <trkpt lat="44.75878" lon="6.02771">
        <ele>1049.9</ele>
        <time>2015-05-18T13:13:29Z</time>
      </trkpt>
      <trkpt lat="44.75877" lon="6.02769">
        <ele>1054.7</ele>
        <time>2015-05-18T13:13:31Z</time>
      </trkpt>
      <trkpt lat="44.75876" lon="6.02769">
        <ele>1047.97</ele>
        <time>2015-05-18T13:13:32Z</time>
      </trkpt>
      <trkpt lat="44.75876" lon="6.02769">
        <ele>1049.9</ele>
        <time>2015-05-18T13:13:33Z</time>
      </trkpt>
      <trkpt lat="44.75876" lon="6.02768">
        <ele>1054.22</ele>
        <time>2015-05-18T13:13:35Z</time>
      </trkpt>
      <trkpt lat="44.75875" lon="6.02768">
        <ele>1050.38</ele>
        <time>2015-05-18T13:13:36Z</time>
      </trkpt>
      <trkpt lat="44.75874" lon="6.02767">
        <ele>1047.01</ele>
        <time>2015-05-18T13:13:37Z</time>
      </trkpt>
      <trkpt lat="44.75873" lon="6.02766">
        <ele>1047.97</ele>
        <time>2015-05-18T13:13:38Z</time>
      </trkpt>
      <trkpt lat="44.75873" lon="6.02766">
        <ele>1052.3</ele>
        <time>2015-05-18T13:13:39Z</time>
      </trkpt>
      <trkpt lat="44.75872" lon="6.02765">
        <ele>1056.15</ele>
        <time>2015-05-18T13:13:40Z</time>
      </trkpt>
      <trkpt lat="44.75871" lon="6.02765">
        <ele>1050.86</ele>
        <time>2015-05-18T13:13:41Z</time>
      </trkpt>
      <trkpt lat="44.7587" lon="6.02765">
        <ele>1046.53</ele>
        <time>2015-05-18T13:13:42Z</time>
      </trkpt>
      <trkpt lat="44.75869" lon="6.02764">
        <ele>1048.45</ele>
        <time>2015-05-18T13:13:43Z</time>
      </trkpt>
      <trkpt lat="44.75869" lon="6.02763">
        <ele>1052.3</ele>
        <time>2015-05-18T13:13:44Z</time>
      </trkpt>
      <trkpt lat="44.75868" lon="6.02762">
        <ele>1048.94</ele>
        <time>2015-05-18T13:13:46Z</time>
      </trkpt>
      <trkpt lat="44.75866" lon="6.02761">
        <ele>1053.26</ele>
        <time>2015-05-18T13:13:49Z</time>
      </trkpt>
      <trkpt lat="44.75866" lon="6.02761">
        <ele>1046.53</ele>
        <time>2015-05-18T13:13:51Z</time>
      </trkpt>
      <trkpt lat="44.75866" lon="6.02758">
        <ele>1049.9</ele>
        <time>2015-05-18T13:13:52Z</time>
      </trkpt>
      <trkpt lat="44.75866" lon="6.02757">
        <ele>1053.74</ele>
        <time>2015-05-18T13:13:53Z</time>
      </trkpt>
      <trkpt lat="44.75866" lon="6.02756">
        <ele>1050.38</ele>
        <time>2015-05-18T13:13:56Z</time>
      </trkpt>
      <trkpt lat="44.75866" lon="6.02756">
        <ele>1053.74</ele>
        <time>2015-05-18T13:13:58Z</time>
      </trkpt>
      <trkpt lat="44.75865" lon="6.02754">
        <ele>1053.74</ele>
        <time>2015-05-18T13:13:59Z</time>
      </trkpt>
      <trkpt lat="44.75858" lon="6.0274">
        <ele>1048.94</ele>
        <time>2015-05-18T13:14:11Z</time>
      </trkpt>
      <trkpt lat="44.75857" lon="6.02739">
        <ele>1053.26</ele>
        <time>2015-05-18T13:14:12Z</time>
      </trkpt>
      <trkpt lat="44.75855" lon="6.02737">
        <ele>1056.63</ele>
        <time>2015-05-18T13:14:14Z</time>
      </trkpt>
      <trkpt lat="44.75855" lon="6.02736">
        <ele>1050.86</ele>
        <time>2015-05-18T13:14:15Z</time>
      </trkpt>
      <trkpt lat="44.75855" lon="6.02736">
        <ele>1051.82</ele>
        <time>2015-05-18T13:14:16Z</time>
      </trkpt>
      <trkpt lat="44.75855" lon="6.02736">
        <ele>1055.18</ele>
        <time>2015-05-18T13:14:17Z</time>
      </trkpt>
      <trkpt lat="44.75852" lon="6.02735">
        <ele>1055.18</ele>
        <time>2015-05-18T13:14:23Z</time>
      </trkpt>
      <trkpt lat="44.7585" lon="6.02734">
        <ele>1053.26</ele>
        <time>2015-05-18T13:14:25Z</time>
      </trkpt>
      <trkpt lat="44.75843" lon="6.02733">
        <ele>1056.63</ele>
        <time>2015-05-18T13:14:35Z</time>
      </trkpt>
      <trkpt lat="44.75841" lon="6.02731">
        <ele>1053.74</ele>
        <time>2015-05-18T13:14:38Z</time>
      </trkpt>
      <trkpt lat="44.75835" lon="6.02727">
        <ele>1057.11</ele>
        <time>2015-05-18T13:14:43Z</time>
      </trkpt>
      <trkpt lat="44.7583" lon="6.02726">
        <ele>1053.74</ele>
        <time>2015-05-18T13:14:45Z</time>
      </trkpt>
      <trkpt lat="44.75825" lon="6.02722">
        <ele>1057.11</ele>
        <time>2015-05-18T13:14:48Z</time>
      </trkpt>
      <trkpt lat="44.75824" lon="6.02718">
        <ele>1054.7</ele>
        <time>2015-05-18T13:14:53Z</time>
      </trkpt>
      <trkpt lat="44.75824" lon="6.02716">
        <ele>1058.07</ele>
        <time>2015-05-18T13:14:54Z</time>
      </trkpt>
      <trkpt lat="44.75824" lon="6.02715">
        <ele>1058.55</ele>
        <time>2015-05-18T13:14:55Z</time>
      </trkpt>
      <trkpt lat="44.75823" lon="6.02714">
        <ele>1050.38</ele>
        <time>2015-05-18T13:14:56Z</time>
      </trkpt>
      <trkpt lat="44.75823" lon="6.02712">
        <ele>1055.67</ele>
        <time>2015-05-18T13:14:57Z</time>
      </trkpt>
      <trkpt lat="44.75821" lon="6.02708">
        <ele>1058.55</ele>
        <time>2015-05-18T13:15:01Z</time>
      </trkpt>
      <trkpt lat="44.75821" lon="6.02701">
        <ele>1059.03</ele>
        <time>2015-05-18T13:15:07Z</time>
      </trkpt>
      <trkpt lat="44.75821" lon="6.02701">
        <ele>1057.11</ele>
        <time>2015-05-18T13:15:09Z</time>
      </trkpt>
      <trkpt lat="44.7582" lon="6.027">
        <ele>1059.03</ele>
        <time>2015-05-18T13:15:11Z</time>
      </trkpt>
      <trkpt lat="44.7582" lon="6.027">
        <ele>1052.3</ele>
        <time>2015-05-18T13:15:12Z</time>
      </trkpt>
      <trkpt lat="44.7582" lon="6.027">
        <ele>1057.11</ele>
        <time>2015-05-18T13:15:13Z</time>
      </trkpt>
      <trkpt lat="44.7582" lon="6.02699">
        <ele>1060.47</ele>
        <time>2015-05-18T13:15:15Z</time>
      </trkpt>
      <trkpt lat="44.7582" lon="6.02699">
        <ele>1055.67</ele>
        <time>2015-05-18T13:15:17Z</time>
      </trkpt>
      <trkpt lat="44.7582" lon="6.02698">
        <ele>1059.03</ele>
        <time>2015-05-18T13:15:19Z</time>
      </trkpt>
      <trkpt lat="44.7582" lon="6.02698">
        <ele>1055.18</ele>
        <time>2015-05-18T13:15:23Z</time>
      </trkpt>
      <trkpt lat="44.7582" lon="6.02698">
        <ele>1059.03</ele>
        <time>2015-05-18T13:15:24Z</time>
      </trkpt>
      <trkpt lat="44.7582" lon="6.02698">
        <ele>1053.74</ele>
        <time>2015-05-18T13:15:26Z</time>
      </trkpt>
      <trkpt lat="44.7582" lon="6.02697">
        <ele>1057.11</ele>
        <time>2015-05-18T13:15:27Z</time>
      </trkpt>
      <trkpt lat="44.7582" lon="6.02697">
        <ele>1060.95</ele>
        <time>2015-05-18T13:15:29Z</time>
      </trkpt>
      <trkpt lat="44.7582" lon="6.02697">
        <ele>1064.8</ele>
        <time>2015-05-18T13:15:39Z</time>
      </trkpt>
      <trkpt lat="44.7582" lon="6.02697">
        <ele>1055.18</ele>
        <time>2015-05-18T13:15:40Z</time>
      </trkpt>
      <trkpt lat="44.7582" lon="6.02697">
        <ele>1060.95</ele>
        <time>2015-05-18T13:15:41Z</time>
      </trkpt>
      <trkpt lat="44.7582" lon="6.02697">
        <ele>1064.32</ele>
        <time>2015-05-18T13:15:43Z</time>
      </trkpt>
      <trkpt lat="44.7582" lon="6.02697">
        <ele>1054.22</ele>
        <time>2015-05-18T13:15:44Z</time>
      </trkpt>
      <trkpt lat="44.7582" lon="6.02697">
        <ele>1058.55</ele>
        <time>2015-05-18T13:15:45Z</time>
      </trkpt>
      <trkpt lat="44.7582" lon="6.02697">
        <ele>1061.91</ele>
        <time>2015-05-18T13:15:46Z</time>
      </trkpt>
      <trkpt lat="44.75818" lon="6.02696">
        <ele>1066.24</ele>
        <time>2015-05-18T13:15:47Z</time>
      </trkpt>
      <trkpt lat="44.75816" lon="6.02694">
        <ele>1058.07</ele>
        <time>2015-05-18T13:15:48Z</time>
      </trkpt>
      <trkpt lat="44.75816" lon="6.02694">
        <ele>1059.51</ele>
        <time>2015-05-18T13:15:49Z</time>
      </trkpt>
      <trkpt lat="44.75816" lon="6.02694">
        <ele>1062.87</ele>
        <time>2015-05-18T13:15:50Z</time>
      </trkpt>
      <trkpt lat="44.75813" lon="6.0269">
        <ele>1057.11</ele>
        <time>2015-05-18T13:15:52Z</time>
      </trkpt>
      <trkpt lat="44.7581" lon="6.02689">
        <ele>1062.39</ele>
        <time>2015-05-18T13:15:53Z</time>
      </trkpt>
      <trkpt lat="44.7581" lon="6.02689">
        <ele>1064.8</ele>
        <time>2015-05-18T13:15:55Z</time>
      </trkpt>
      <trkpt lat="44.7581" lon="6.02689">
        <ele>1061.43</ele>
        <time>2015-05-18T13:15:59Z</time>
      </trkpt>
      <trkpt lat="44.75798" lon="6.02681">
        <ele>1064.8</ele>
        <time>2015-05-18T13:16:02Z</time>
      </trkpt>
      <trkpt lat="44.75795" lon="6.02676">
        <ele>1061.43</ele>
        <time>2015-05-18T13:16:04Z</time>
      </trkpt>
      <trkpt lat="44.75793" lon="6.02672">
        <ele>1064.32</ele>
        <time>2015-05-18T13:16:05Z</time>
      </trkpt>
      <trkpt lat="44.75781" lon="6.0266">
        <ele>1067.2</ele>
        <time>2015-05-18T13:16:12Z</time>
      </trkpt>
      <trkpt lat="44.75779" lon="6.02659">
        <ele>1060.95</ele>
        <time>2015-05-18T13:16:14Z</time>
      </trkpt>
      <trkpt lat="44.75778" lon="6.02657">
        <ele>1065.76</ele>
        <time>2015-05-18T13:16:15Z</time>
      </trkpt>
      <trkpt lat="44.75775" lon="6.02655">
        <ele>1069.12</ele>
        <time>2015-05-18T13:16:17Z</time>
      </trkpt>
      <trkpt lat="44.75774" lon="6.02653">
        <ele>1063.36</ele>
        <time>2015-05-18T13:16:18Z</time>
      </trkpt>
      <trkpt lat="44.75771" lon="6.0265">
        <ele>1067.68</ele>
        <time>2015-05-18T13:16:20Z</time>
      </trkpt>
      <trkpt lat="44.7577" lon="6.02648">
        <ele>1071.05</ele>
        <time>2015-05-18T13:16:21Z</time>
      </trkpt>
      <trkpt lat="44.75769" lon="6.02645">
        <ele>1060.95</ele>
        <time>2015-05-18T13:16:22Z</time>
      </trkpt>
      <trkpt lat="44.75769" lon="6.02643">
        <ele>1064.32</ele>
        <time>2015-05-18T13:16:23Z</time>
      </trkpt>
      <trkpt lat="44.75769" lon="6.02642">
        <ele>1068.16</ele>
        <time>2015-05-18T13:16:24Z</time>
      </trkpt>
      <trkpt lat="44.75768" lon="6.02639">
        <ele>1064.32</ele>
        <time>2015-05-18T13:16:26Z</time>
      </trkpt>
      <trkpt lat="44.75768" lon="6.02638">
        <ele>1064.32</ele>
        <time>2015-05-18T13:16:27Z</time>
      </trkpt>
      <trkpt lat="44.75768" lon="6.02637">
        <ele>1067.68</ele>
        <time>2015-05-18T13:16:28Z</time>
      </trkpt>
      <trkpt lat="44.75766" lon="6.02635">
        <ele>1068.64</ele>
        <time>2015-05-18T13:16:30Z</time>
      </trkpt>
      <trkpt lat="44.75766" lon="6.02634">
        <ele>1064.8</ele>
        <time>2015-05-18T13:16:31Z</time>
      </trkpt>
      <trkpt lat="44.75765" lon="6.02633">
        <ele>1068.64</ele>
        <time>2015-05-18T13:16:32Z</time>
      </trkpt>
      <trkpt lat="44.75762" lon="6.02629">
        <ele>1072.01</ele>
        <time>2015-05-18T13:16:36Z</time>
      </trkpt>
      <trkpt lat="44.75761" lon="6.02627">
        <ele>1068.64</ele>
        <time>2015-05-18T13:16:38Z</time>
      </trkpt>
      <trkpt lat="44.75753" lon="6.02623">
        <ele>1069.12</ele>
        <time>2015-05-18T13:16:48Z</time>
      </trkpt>
      <trkpt lat="44.75751" lon="6.0262">
        <ele>1072.01</ele>
        <time>2015-05-18T13:16:51Z</time>
      </trkpt>
      <trkpt lat="44.7575" lon="6.02619">
        <ele>1070.57</ele>
        <time>2015-05-18T13:16:52Z</time>
      </trkpt>
      <trkpt lat="44.75746" lon="6.02615">
        <ele>1074.41</ele>
        <time>2015-05-18T13:16:58Z</time>
      </trkpt>
      <trkpt lat="44.75745" lon="6.02614">
        <ele>1071.53</ele>
        <time>2015-05-18T13:17:00Z</time>
      </trkpt>
      <trkpt lat="44.75744" lon="6.02612">
        <ele>1067.68</ele>
        <time>2015-05-18T13:17:02Z</time>
      </trkpt>
      <trkpt lat="44.75743" lon="6.0261">
        <ele>1071.05</ele>
        <time>2015-05-18T13:17:04Z</time>
      </trkpt>
      <trkpt lat="44.75742" lon="6.02609">
        <ele>1072.49</ele>
        <time>2015-05-18T13:17:06Z</time>
      </trkpt>
      <trkpt lat="44.75742" lon="6.02608">
        <ele>1067.68</ele>
        <time>2015-05-18T13:17:07Z</time>
      </trkpt>
      <trkpt lat="44.75742" lon="6.02607">
        <ele>1071.05</ele>
        <time>2015-05-18T13:17:08Z</time>
      </trkpt>
      <trkpt lat="44.75741" lon="6.02606">
        <ele>1072.97</ele>
        <time>2015-05-18T13:17:09Z</time>
      </trkpt>
      <trkpt lat="44.75738" lon="6.02602">
        <ele>1073.45</ele>
        <time>2015-05-18T13:17:13Z</time>
      </trkpt>
      <trkpt lat="44.75738" lon="6.02601">
        <ele>1068.64</ele>
        <time>2015-05-18T13:17:14Z</time>
      </trkpt>
      <trkpt lat="44.75738" lon="6.02602">
        <ele>1068.64</ele>
        <time>2015-05-18T13:17:16Z</time>
      </trkpt>
      <trkpt lat="44.75738" lon="6.02602">
        <ele>1072.01</ele>
        <time>2015-05-18T13:17:17Z</time>
      </trkpt>
      <trkpt lat="44.75737" lon="6.026">
        <ele>1072.97</ele>
        <time>2015-05-18T13:17:19Z</time>
      </trkpt>
      <trkpt lat="44.75726" lon="6.02589">
        <ele>1071.53</ele>
        <time>2015-05-18T13:17:30Z</time>
      </trkpt>
      <trkpt lat="44.75722" lon="6.02584">
        <ele>1072.97</ele>
        <time>2015-05-18T13:17:33Z</time>
      </trkpt>
      <trkpt lat="44.75721" lon="6.02579">
        <ele>1072.49</ele>
        <time>2015-05-18T13:17:38Z</time>
      </trkpt>
      <trkpt lat="44.75711" lon="6.02567">
        <ele>1072.97</ele>
        <time>2015-05-18T13:17:50Z</time>
      </trkpt>
      <trkpt lat="44.75709" lon="6.02564">
        <ele>1071.05</ele>
        <time>2015-05-18T13:17:52Z</time>
      </trkpt>
      <trkpt lat="44.75705" lon="6.02559">
        <ele>1071.53</ele>
        <time>2015-05-18T13:17:55Z</time>
      </trkpt>
      <trkpt lat="44.75702" lon="6.02547">
        <ele>1071.05</ele>
        <time>2015-05-18T13:18:00Z</time>
      </trkpt>
      <trkpt lat="44.75701" lon="6.02541">
        <ele>1072.49</ele>
        <time>2015-05-18T13:18:05Z</time>
      </trkpt>
      <trkpt lat="44.757" lon="6.0254">
        <ele>1070.57</ele>
        <time>2015-05-18T13:18:07Z</time>
      </trkpt>
      <trkpt lat="44.75699" lon="6.02536">
        <ele>1069.6</ele>
        <time>2015-05-18T13:18:11Z</time>
      </trkpt>
      <trkpt lat="44.75699" lon="6.0253">
        <ele>1070.57</ele>
        <time>2015-05-18T13:18:16Z</time>
      </trkpt>
      <trkpt lat="44.75696" lon="6.02524">
        <ele>1069.12</ele>
        <time>2015-05-18T13:18:19Z</time>
      </trkpt>
      <trkpt lat="44.75694" lon="6.02521">
        <ele>1070.08</ele>
        <time>2015-05-18T13:18:21Z</time>
      </trkpt>
      <trkpt lat="44.75693" lon="6.02517">
        <ele>1065.76</ele>
        <time>2015-05-18T13:18:23Z</time>
      </trkpt>
      <trkpt lat="44.75692" lon="6.02516">
        <ele>1066.24</ele>
        <time>2015-05-18T13:18:24Z</time>
      </trkpt>
      <trkpt lat="44.75692" lon="6.02513">
        <ele>1070.08</ele>
        <time>2015-05-18T13:18:26Z</time>
      </trkpt>
      <trkpt lat="44.75691" lon="6.0251">
        <ele>1073.45</ele>
        <time>2015-05-18T13:18:28Z</time>
      </trkpt>
      <trkpt lat="44.75691" lon="6.02509">
        <ele>1067.2</ele>
        <time>2015-05-18T13:18:30Z</time>
      </trkpt>
      <trkpt lat="44.75691" lon="6.02507">
        <ele>1068.16</ele>
        <time>2015-05-18T13:18:31Z</time>
      </trkpt>
      <trkpt lat="44.7569" lon="6.02503">
        <ele>1071.53</ele>
        <time>2015-05-18T13:18:33Z</time>
      </trkpt>
      <trkpt lat="44.75689" lon="6.02501">
        <ele>1071.53</ele>
        <time>2015-05-18T13:18:34Z</time>
      </trkpt>
      <trkpt lat="44.75686" lon="6.02486">
        <ele>1069.6</ele>
        <time>2015-05-18T13:18:47Z</time>
      </trkpt>
      <trkpt lat="44.7568" lon="6.02471">
        <ele>1071.53</ele>
        <time>2015-05-18T13:18:56Z</time>
      </trkpt>
      <trkpt lat="44.75682" lon="6.02463">
        <ele>1068.64</ele>
        <time>2015-05-18T13:19:04Z</time>
      </trkpt>
      <trkpt lat="44.75682" lon="6.02463">
        <ele>1069.12</ele>
        <time>2015-05-18T13:19:05Z</time>
      </trkpt>
      <trkpt lat="44.75674" lon="6.0245">
        <ele>1067.2</ele>
        <time>2015-05-18T13:19:16Z</time>
      </trkpt>
      <trkpt lat="44.75673" lon="6.02447">
        <ele>1066.72</ele>
        <time>2015-05-18T13:19:19Z</time>
      </trkpt>
      <trkpt lat="44.75674" lon="6.02432">
        <ele>1066.24</ele>
        <time>2015-05-18T13:19:30Z</time>
      </trkpt>
      <trkpt lat="44.75673" lon="6.0243">
        <ele>1066.24</ele>
        <time>2015-05-18T13:19:32Z</time>
      </trkpt>
      <trkpt lat="44.75666" lon="6.02413">
        <ele>1067.2</ele>
        <time>2015-05-18T13:19:43Z</time>
      </trkpt>
      <trkpt lat="44.75661" lon="6.02406">
        <ele>1065.28</ele>
        <time>2015-05-18T13:19:47Z</time>
      </trkpt>
      <trkpt lat="44.75658" lon="6.02394">
        <ele>1064.32</ele>
        <time>2015-05-18T13:19:58Z</time>
      </trkpt>
      <trkpt lat="44.75658" lon="6.02378">
        <ele>1060.95</ele>
        <time>2015-05-18T13:20:10Z</time>
      </trkpt>
      <trkpt lat="44.75657" lon="6.02377">
        <ele>1060.95</ele>
        <time>2015-05-18T13:20:11Z</time>
      </trkpt>
      <trkpt lat="44.75655" lon="6.02375">
        <ele>1062.39</ele>
        <time>2015-05-18T13:20:16Z</time>
      </trkpt>
      <trkpt lat="44.75651" lon="6.02365">
        <ele>1060.95</ele>
        <time>2015-05-18T13:20:26Z</time>
      </trkpt>
      <trkpt lat="44.75645" lon="6.02347">
        <ele>1059.99</ele>
        <time>2015-05-18T13:20:39Z</time>
      </trkpt>
      <trkpt lat="44.75638" lon="6.02329">
        <ele>1058.55</ele>
        <time>2015-05-18T13:20:53Z</time>
      </trkpt>
      <trkpt lat="44.75635" lon="6.02325">
        <ele>1057.11</ele>
        <time>2015-05-18T13:20:56Z</time>
      </trkpt>
      <trkpt lat="44.75632" lon="6.02311">
        <ele>1056.15</ele>
        <time>2015-05-18T13:21:05Z</time>
      </trkpt>
      <trkpt lat="44.75628" lon="6.02285">
        <ele>1056.15</ele>
        <time>2015-05-18T13:21:18Z</time>
      </trkpt>
      <trkpt lat="44.75626" lon="6.02283">
        <ele>1056.15</ele>
        <time>2015-05-18T13:21:20Z</time>
      </trkpt>
      <trkpt lat="44.75623" lon="6.0228">
        <ele>1053.74</ele>
        <time>2015-05-18T13:21:23Z</time>
      </trkpt>
      <trkpt lat="44.75618" lon="6.0226">
        <ele>1052.3</ele>
        <time>2015-05-18T13:21:37Z</time>
      </trkpt>
      <trkpt lat="44.75617" lon="6.02249">
        <ele>1053.74</ele>
        <time>2015-05-18T13:21:45Z</time>
      </trkpt>
      <trkpt lat="44.75617" lon="6.02245">
        <ele>1051.82</ele>
        <time>2015-05-18T13:21:50Z</time>
      </trkpt>
      <trkpt lat="44.75616" lon="6.02243">
        <ele>1050.86</ele>
        <time>2015-05-18T13:21:51Z</time>
      </trkpt>
      <trkpt lat="44.75611" lon="6.02229">
        <ele>1051.82</ele>
        <time>2015-05-18T13:22:04Z</time>
      </trkpt>
      <trkpt lat="44.7561" lon="6.02226">
        <ele>1054.22</ele>
        <time>2015-05-18T13:22:07Z</time>
      </trkpt>
      <trkpt lat="44.75603" lon="6.02216">
        <ele>1049.9</ele>
        <time>2015-05-18T13:22:19Z</time>
      </trkpt>
      <trkpt lat="44.75597" lon="6.02203">
        <ele>1047.01</ele>
        <time>2015-05-18T13:22:34Z</time>
      </trkpt>
      <trkpt lat="44.75593" lon="6.02184">
        <ele>1046.05</ele>
        <time>2015-05-18T13:22:47Z</time>
      </trkpt>
      <trkpt lat="44.7559" lon="6.02177">
        <ele>1045.09</ele>
        <time>2015-05-18T13:22:51Z</time>
      </trkpt>
      <trkpt lat="44.7558" lon="6.02165">
        <ele>1044.61</ele>
        <time>2015-05-18T13:23:05Z</time>
      </trkpt>
      <trkpt lat="44.7557" lon="6.02141">
        <ele>1042.69</ele>
        <time>2015-05-18T13:23:21Z</time>
      </trkpt>
      <trkpt lat="44.75569" lon="6.0214">
        <ele>1040.28</ele>
        <time>2015-05-18T13:23:27Z</time>
      </trkpt>
      <trkpt lat="44.75568" lon="6.02139">
        <ele>1039.8</ele>
        <time>2015-05-18T13:23:28Z</time>
      </trkpt>
      <trkpt lat="44.7556" lon="6.02132">
        <ele>1038.36</ele>
        <time>2015-05-18T13:23:42Z</time>
      </trkpt>
      <trkpt lat="44.75556" lon="6.02128">
        <ele>1035.96</ele>
        <time>2015-05-18T13:23:52Z</time>
      </trkpt>
      <trkpt lat="44.75554" lon="6.02123">
        <ele>1035.48</ele>
        <time>2015-05-18T13:23:56Z</time>
      </trkpt>
      <trkpt lat="44.75547" lon="6.02115">
        <ele>1034.52</ele>
        <time>2015-05-18T13:24:06Z</time>
      </trkpt>
      <trkpt lat="44.75529" lon="6.02098">
        <ele>1033.55</ele>
        <time>2015-05-18T13:24:23Z</time>
      </trkpt>
      <trkpt lat="44.75522" lon="6.021">
        <ele>1029.71</ele>
        <time>2015-05-18T13:24:35Z</time>
      </trkpt>
      <trkpt lat="44.75522" lon="6.021">
        <ele>1030.19</ele>
        <time>2015-05-18T13:24:36Z</time>
      </trkpt>
      <trkpt lat="44.7552" lon="6.021">
        <ele>1031.15</ele>
        <time>2015-05-18T13:24:38Z</time>
      </trkpt>
      <trkpt lat="44.75505" lon="6.02096">
        <ele>1030.67</ele>
        <time>2015-05-18T13:24:52Z</time>
      </trkpt>
      <trkpt lat="44.75503" lon="6.02094">
        <ele>1029.71</ele>
        <time>2015-05-18T13:24:53Z</time>
      </trkpt>
      <trkpt lat="44.75494" lon="6.02083">
        <ele>1029.71</ele>
        <time>2015-05-18T13:25:00Z</time>
      </trkpt>
      <trkpt lat="44.75478" lon="6.02064">
        <ele>1029.71</ele>
        <time>2015-05-18T13:25:12Z</time>
      </trkpt>
      <trkpt lat="44.75474" lon="6.02058">
        <ele>1027.79</ele>
        <time>2015-05-18T13:25:16Z</time>
      </trkpt>
      <trkpt lat="44.75474" lon="6.02057">
        <ele>1028.75</ele>
        <time>2015-05-18T13:25:17Z</time>
      </trkpt>
      <trkpt lat="44.75472" lon="6.02051">
        <ele>1027.79</ele>
        <time>2015-05-18T13:25:23Z</time>
      </trkpt>
      <trkpt lat="44.75468" lon="6.02039">
        <ele>1026.34</ele>
        <time>2015-05-18T13:25:33Z</time>
      </trkpt>
      <trkpt lat="44.75468" lon="6.02038">
        <ele>1026.34</ele>
        <time>2015-05-18T13:25:37Z</time>
      </trkpt>
      <trkpt lat="44.75472" lon="6.02028">
        <ele>1024.9</ele>
        <time>2015-05-18T13:25:45Z</time>
      </trkpt>
      <trkpt lat="44.75466" lon="6.02013">
        <ele>1026.34</ele>
        <time>2015-05-18T13:25:55Z</time>
      </trkpt>
      <trkpt lat="44.75465" lon="6.02008">
        <ele>1023.94</ele>
        <time>2015-05-18T13:25:58Z</time>
      </trkpt>
      <trkpt lat="44.75461" lon="6.02002">
        <ele>1023.94</ele>
        <time>2015-05-18T13:26:21Z</time>
      </trkpt>
      <trkpt lat="44.7546" lon="6.02">
        <ele>1022.98</ele>
        <time>2015-05-18T13:26:23Z</time>
      </trkpt>
      <trkpt lat="44.75456" lon="6.01981">
        <ele>1023.46</ele>
        <time>2015-05-18T13:26:36Z</time>
      </trkpt>
      <trkpt lat="44.75456" lon="6.0198">
        <ele>1023.46</ele>
        <time>2015-05-18T13:26:38Z</time>
      </trkpt>
      <trkpt lat="44.75457" lon="6.01969">
        <ele>1020.58</ele>
        <time>2015-05-18T13:26:50Z</time>
      </trkpt>
      <trkpt lat="44.75452" lon="6.01966">
        <ele>1023.94</ele>
        <time>2015-05-18T13:26:56Z</time>
      </trkpt>
      <trkpt lat="44.75448" lon="6.01962">
        <ele>1021.54</ele>
        <time>2015-05-18T13:27:00Z</time>
      </trkpt>
      <trkpt lat="44.75444" lon="6.0196">
        <ele>1021.54</ele>
        <time>2015-05-18T13:27:03Z</time>
      </trkpt>
      <trkpt lat="44.75436" lon="6.0195">
        <ele>1020.58</ele>
        <time>2015-05-18T13:27:12Z</time>
      </trkpt>
      <trkpt lat="44.75424" lon="6.01936">
        <ele>1017.21</ele>
        <time>2015-05-18T13:27:25Z</time>
      </trkpt>
      <trkpt lat="44.75424" lon="6.01936">
        <ele>1017.21</ele>
        <time>2015-05-18T13:27:26Z</time>
      </trkpt>
      <trkpt lat="44.75419" lon="6.01931">
        <ele>1020.58</ele>
        <time>2015-05-18T13:27:31Z</time>
      </trkpt>
      <trkpt lat="44.75406" lon="6.01912">
        <ele>1017.69</ele>
        <time>2015-05-18T13:27:41Z</time>
      </trkpt>
      <trkpt lat="44.754" lon="6.01908">
        <ele>1015.77</ele>
        <time>2015-05-18T13:27:48Z</time>
      </trkpt>
      <trkpt lat="44.75392" lon="6.019">
        <ele>1018.17</ele>
        <time>2015-05-18T13:28:02Z</time>
      </trkpt>
      <trkpt lat="44.75386" lon="6.01895">
        <ele>1016.25</ele>
        <time>2015-05-18T13:28:08Z</time>
      </trkpt>
      <trkpt lat="44.75378" lon="6.01879">
        <ele>1015.29</ele>
        <time>2015-05-18T13:28:21Z</time>
      </trkpt>
      <trkpt lat="44.75369" lon="6.0187">
        <ele>1014.33</ele>
        <time>2015-05-18T13:28:33Z</time>
      </trkpt>
      <trkpt lat="44.75362" lon="6.01869">
        <ele>1011.44</ele>
        <time>2015-05-18T13:28:46Z</time>
      </trkpt>
      <trkpt lat="44.75351" lon="6.01857">
        <ele>1009.52</ele>
        <time>2015-05-18T13:29:00Z</time>
      </trkpt>
      <trkpt lat="44.75349" lon="6.01854">
        <ele>1007.6</ele>
        <time>2015-05-18T13:29:03Z</time>
      </trkpt>
      <trkpt lat="44.75348" lon="6.0185">
        <ele>1008.08</ele>
        <time>2015-05-18T13:29:05Z</time>
      </trkpt>
      <trkpt lat="44.75342" lon="6.01839">
        <ele>1007.12</ele>
        <time>2015-05-18T13:29:17Z</time>
      </trkpt>
      <trkpt lat="44.7534" lon="6.01832">
        <ele>1005.2</ele>
        <time>2015-05-18T13:29:23Z</time>
      </trkpt>
      <trkpt lat="44.75336" lon="6.01823">
        <ele>1002.79</ele>
        <time>2015-05-18T13:29:33Z</time>
      </trkpt>
      <trkpt lat="44.75334" lon="6.01822">
        <ele>1002.79</ele>
        <time>2015-05-18T13:29:34Z</time>
      </trkpt>
      <trkpt lat="44.75334" lon="6.0182">
        <ele>1002.31</ele>
        <time>2015-05-18T13:29:38Z</time>
      </trkpt>
      <trkpt lat="44.75326" lon="6.01811">
        <ele>999.91</ele>
        <time>2015-05-18T13:29:52Z</time>
      </trkpt>
      <trkpt lat="44.75323" lon="6.01809">
        <ele>1001.35</ele>
        <time>2015-05-18T13:29:56Z</time>
      </trkpt>
      <trkpt lat="44.75319" lon="6.01806">
        <ele>998.47</ele>
        <time>2015-05-18T13:30:06Z</time>
      </trkpt>
      <trkpt lat="44.75315" lon="6.01803">
        <ele>997.02</ele>
        <time>2015-05-18T13:30:16Z</time>
      </trkpt>
      <trkpt lat="44.75311" lon="6.01801">
        <ele>995.58</ele>
        <time>2015-05-18T13:30:23Z</time>
      </trkpt>
      <trkpt lat="44.75303" lon="6.01787">
        <ele>994.62</ele>
        <time>2015-05-18T13:30:35Z</time>
      </trkpt>
      <trkpt lat="44.75299" lon="6.01779">
        <ele>992.22</ele>
        <time>2015-05-18T13:30:42Z</time>
      </trkpt>
      <trkpt lat="44.75301" lon="6.01768">
        <ele>990.78</ele>
        <time>2015-05-18T13:30:54Z</time>
      </trkpt>
      <trkpt lat="44.753" lon="6.01765">
        <ele>987.41</ele>
        <time>2015-05-18T13:31:06Z</time>
      </trkpt>
      <trkpt lat="44.753" lon="6.01765">
        <ele>991.74</ele>
        <time>2015-05-18T13:31:07Z</time>
      </trkpt>
      <trkpt lat="44.753" lon="6.01765">
        <ele>989.33</ele>
        <time>2015-05-18T13:31:10Z</time>
      </trkpt>
      <trkpt lat="44.753" lon="6.01765">
        <ele>990.78</ele>
        <time>2015-05-18T13:31:12Z</time>
      </trkpt>
      <trkpt lat="44.75299" lon="6.01763">
        <ele>992.22</ele>
        <time>2015-05-18T13:31:24Z</time>
      </trkpt>
      <trkpt lat="44.75299" lon="6.01763">
        <ele>988.85</ele>
        <time>2015-05-18T13:31:26Z</time>
      </trkpt>
      <trkpt lat="44.75299" lon="6.01763">
        <ele>992.7</ele>
        <time>2015-05-18T13:31:27Z</time>
      </trkpt>
      <trkpt lat="44.75299" lon="6.01763">
        <ele>986.45</ele>
        <time>2015-05-18T13:31:30Z</time>
      </trkpt>
      <trkpt lat="44.75299" lon="6.01763">
        <ele>992.22</ele>
        <time>2015-05-18T13:31:31Z</time>
      </trkpt>
      <trkpt lat="44.75298" lon="6.01762">
        <ele>986.93</ele>
        <time>2015-05-18T13:31:36Z</time>
      </trkpt>
      <trkpt lat="44.75298" lon="6.01762">
        <ele>994.62</ele>
        <time>2015-05-18T13:31:37Z</time>
      </trkpt>
      <trkpt lat="44.75297" lon="6.01761">
        <ele>986.93</ele>
        <time>2015-05-18T13:31:39Z</time>
      </trkpt>
      <trkpt lat="44.75297" lon="6.01761">
        <ele>992.22</ele>
        <time>2015-05-18T13:31:40Z</time>
      </trkpt>
      <trkpt lat="44.75297" lon="6.01759">
        <ele>989.81</ele>
        <time>2015-05-18T13:32:00Z</time>
      </trkpt>
      <trkpt lat="44.75292" lon="6.01757">
        <ele>990.3</ele>
        <time>2015-05-18T13:32:25Z</time>
      </trkpt>
      <trkpt lat="44.75278" lon="6.01757">
        <ele>990.3</ele>
        <time>2015-05-18T13:32:43Z</time>
      </trkpt>
      <trkpt lat="44.75277" lon="6.01757">
        <ele>990.3</ele>
        <time>2015-05-18T13:32:44Z</time>
      </trkpt>
      <trkpt lat="44.75263" lon="6.01749">
        <ele>989.81</ele>
        <time>2015-05-18T13:33:01Z</time>
      </trkpt>
      <trkpt lat="44.75262" lon="6.01748">
        <ele>986.45</ele>
        <time>2015-05-18T13:33:02Z</time>
      </trkpt>
      <trkpt lat="44.75261" lon="6.01747">
        <ele>988.37</ele>
        <time>2015-05-18T13:33:03Z</time>
      </trkpt>
      <trkpt lat="44.7526" lon="6.01747">
        <ele>991.26</ele>
        <time>2015-05-18T13:33:05Z</time>
      </trkpt>
      <trkpt lat="44.7526" lon="6.01747">
        <ele>987.41</ele>
        <time>2015-05-18T13:33:06Z</time>
      </trkpt>
      <trkpt lat="44.7526" lon="6.01747">
        <ele>987.89</ele>
        <time>2015-05-18T13:33:07Z</time>
      </trkpt>
      <trkpt lat="44.7526" lon="6.01746">
        <ele>988.85</ele>
        <time>2015-05-18T13:33:09Z</time>
      </trkpt>
      <trkpt lat="44.75258" lon="6.01744">
        <ele>987.41</ele>
        <time>2015-05-18T13:33:24Z</time>
      </trkpt>
      <trkpt lat="44.75256" lon="6.01742">
        <ele>991.26</ele>
        <time>2015-05-18T13:33:26Z</time>
      </trkpt>
      <trkpt lat="44.75241" lon="6.01729">
        <ele>990.3</ele>
        <time>2015-05-18T13:33:41Z</time>
      </trkpt>
      <trkpt lat="44.75235" lon="6.01723">
        <ele>986.45</ele>
        <time>2015-05-18T13:33:50Z</time>
      </trkpt>
      <trkpt lat="44.75235" lon="6.01721">
        <ele>989.33</ele>
        <time>2015-05-18T13:33:51Z</time>
      </trkpt>
      <trkpt lat="44.75232" lon="6.01715">
        <ele>985.97</ele>
        <time>2015-05-18T13:33:56Z</time>
      </trkpt>
      <trkpt lat="44.75231" lon="6.01713">
        <ele>988.85</ele>
        <time>2015-05-18T13:33:57Z</time>
      </trkpt>
      <trkpt lat="44.75229" lon="6.0171">
        <ele>991.26</ele>
        <time>2015-05-18T13:33:59Z</time>
      </trkpt>
      <trkpt lat="44.75228" lon="6.01707">
        <ele>986.93</ele>
        <time>2015-05-18T13:34:01Z</time>
      </trkpt>
      <trkpt lat="44.75227" lon="6.01705">
        <ele>988.85</ele>
        <time>2015-05-18T13:34:02Z</time>
      </trkpt>
      <trkpt lat="44.75225" lon="6.01702">
        <ele>992.22</ele>
        <time>2015-05-18T13:34:04Z</time>
      </trkpt>
      <trkpt lat="44.75224" lon="6.01701">
        <ele>991.74</ele>
        <time>2015-05-18T13:34:05Z</time>
      </trkpt>
      <trkpt lat="44.75222" lon="6.01699">
        <ele>988.37</ele>
        <time>2015-05-18T13:34:07Z</time>
      </trkpt>
      <trkpt lat="44.75222" lon="6.01698">
        <ele>989.81</ele>
        <time>2015-05-18T13:34:08Z</time>
      </trkpt>
      <trkpt lat="44.7522" lon="6.01696">
        <ele>991.74</ele>
        <time>2015-05-18T13:34:10Z</time>
      </trkpt>
      <trkpt lat="44.75217" lon="6.01692">
        <ele>988.85</ele>
        <time>2015-05-18T13:34:16Z</time>
      </trkpt>
      <trkpt lat="44.75216" lon="6.01692">
        <ele>992.22</ele>
        <time>2015-05-18T13:34:17Z</time>
      </trkpt>
      <trkpt lat="44.75216" lon="6.01691">
        <ele>985.97</ele>
        <time>2015-05-18T13:34:20Z</time>
      </trkpt>
      <trkpt lat="44.75215" lon="6.01691">
        <ele>989.81</ele>
        <time>2015-05-18T13:34:21Z</time>
      </trkpt>
      <trkpt lat="44.75212" lon="6.01688">
        <ele>993.18</ele>
        <time>2015-05-18T13:34:25Z</time>
      </trkpt>
      <trkpt lat="44.75211" lon="6.01688">
        <ele>992.7</ele>
        <time>2015-05-18T13:34:26Z</time>
      </trkpt>
      <trkpt lat="44.75201" lon="6.01679">
        <ele>994.14</ele>
        <time>2015-05-18T13:34:39Z</time>
      </trkpt>
      <trkpt lat="44.752" lon="6.01677">
        <ele>992.7</ele>
        <time>2015-05-18T13:34:41Z</time>
      </trkpt>
      <trkpt lat="44.75198" lon="6.01676">
        <ele>992.7</ele>
        <time>2015-05-18T13:35:02Z</time>
      </trkpt>
      <trkpt lat="44.75192" lon="6.01669">
        <ele>993.18</ele>
        <time>2015-05-18T13:35:51Z</time>
      </trkpt>
      <trkpt lat="44.75192" lon="6.0167">
        <ele>993.66</ele>
        <time>2015-05-18T13:36:24Z</time>
      </trkpt>
      <trkpt lat="44.75193" lon="6.01669">
        <ele>994.62</ele>
        <time>2015-05-18T13:36:29Z</time>
      </trkpt>
      <trkpt lat="44.752" lon="6.01672">
        <ele>993.66</ele>
        <time>2015-05-18T13:36:47Z</time>
      </trkpt>
      <trkpt lat="44.75199" lon="6.01672">
        <ele>994.14</ele>
        <time>2015-05-18T13:37:14Z</time>
      </trkpt>
      <trkpt lat="44.75199" lon="6.01672">
        <ele>992.7</ele>
        <time>2015-05-18T13:37:29Z</time>
      </trkpt>
      <trkpt lat="44.75198" lon="6.01671">
        <ele>993.66</ele>
        <time>2015-05-18T13:38:46Z</time>
      </trkpt>
      <trkpt lat="44.75198" lon="6.01671">
        <ele>990.3</ele>
        <time>2015-05-18T13:39:13Z</time>
      </trkpt>
      <trkpt lat="44.75197" lon="6.01672">
        <ele>994.14</ele>
        <time>2015-05-18T13:39:14Z</time>
      </trkpt>
      <trkpt lat="44.75193" lon="6.01672">
        <ele>991.26</ele>
        <time>2015-05-18T13:39:20Z</time>
      </trkpt>
      <trkpt lat="44.75192" lon="6.01672">
        <ele>994.14</ele>
        <time>2015-05-18T13:39:21Z</time>
      </trkpt>
      <trkpt lat="44.75191" lon="6.01672">
        <ele>995.1</ele>
        <time>2015-05-18T13:39:23Z</time>
      </trkpt>
      <trkpt lat="44.75188" lon="6.01673">
        <ele>991.26</ele>
        <time>2015-05-18T13:39:27Z</time>
      </trkpt>
      <trkpt lat="44.75187" lon="6.01673">
        <ele>994.14</ele>
        <time>2015-05-18T13:39:28Z</time>
      </trkpt>
      <trkpt lat="44.75185" lon="6.01674">
        <ele>989.33</ele>
        <time>2015-05-18T13:39:30Z</time>
      </trkpt>
      <trkpt lat="44.75185" lon="6.01674">
        <ele>994.14</ele>
        <time>2015-05-18T13:39:31Z</time>
      </trkpt>
      <trkpt lat="44.75185" lon="6.01674">
        <ele>995.58</ele>
        <time>2015-05-18T13:39:33Z</time>
      </trkpt>
      <trkpt lat="44.75176" lon="6.01675">
        <ele>993.18</ele>
        <time>2015-05-18T13:39:44Z</time>
      </trkpt>
      <trkpt lat="44.75175" lon="6.01675">
        <ele>996.54</ele>
        <time>2015-05-18T13:39:45Z</time>
      </trkpt>
      <trkpt lat="44.75174" lon="6.01676">
        <ele>992.22</ele>
        <time>2015-05-18T13:39:46Z</time>
      </trkpt>
      <trkpt lat="44.75172" lon="6.01677">
        <ele>995.58</ele>
        <time>2015-05-18T13:39:48Z</time>
      </trkpt>
      <trkpt lat="44.75166" lon="6.01681">
        <ele>997.02</ele>
        <time>2015-05-18T13:39:59Z</time>
      </trkpt>
      <trkpt lat="44.75159" lon="6.01686">
        <ele>997.02</ele>
        <time>2015-05-18T13:40:09Z</time>
      </trkpt>
      <trkpt lat="44.75158" lon="6.01687">
        <ele>995.58</ele>
        <time>2015-05-18T13:40:18Z</time>
      </trkpt>
      <trkpt lat="44.75158" lon="6.01687">
        <ele>991.74</ele>
        <time>2015-05-18T13:40:20Z</time>
      </trkpt>
      <trkpt lat="44.75158" lon="6.01687">
        <ele>998.95</ele>
        <time>2015-05-18T13:40:21Z</time>
      </trkpt>
      <trkpt lat="44.75156" lon="6.01688">
        <ele>995.58</ele>
        <time>2015-05-18T13:40:25Z</time>
      </trkpt>
      <trkpt lat="44.75155" lon="6.01688">
        <ele>998.95</ele>
        <time>2015-05-18T13:40:27Z</time>
      </trkpt>
      <trkpt lat="44.75154" lon="6.01688">
        <ele>995.1</ele>
        <time>2015-05-18T13:40:28Z</time>
      </trkpt>
      <trkpt lat="44.75153" lon="6.01689">
        <ele>998.47</ele>
        <time>2015-05-18T13:40:29Z</time>
      </trkpt>
      <trkpt lat="44.75149" lon="6.01689">
        <ele>991.74</ele>
        <time>2015-05-18T13:40:36Z</time>
      </trkpt>
      <trkpt lat="44.75149" lon="6.01689">
        <ele>997.99</ele>
        <time>2015-05-18T13:40:37Z</time>
      </trkpt>
      <trkpt lat="44.75149" lon="6.01689">
        <ele>992.7</ele>
        <time>2015-05-18T13:40:39Z</time>
      </trkpt>
      <trkpt lat="44.75149" lon="6.01689">
        <ele>997.99</ele>
        <time>2015-05-18T13:40:40Z</time>
      </trkpt>
      <trkpt lat="44.75149" lon="6.01689">
        <ele>993.66</ele>
        <time>2015-05-18T13:40:41Z</time>
      </trkpt>
      <trkpt lat="44.75149" lon="6.01689">
        <ele>997.99</ele>
        <time>2015-05-18T13:40:44Z</time>
      </trkpt>
      <trkpt lat="44.75149" lon="6.01689">
        <ele>1000.87</ele>
        <time>2015-05-18T13:40:45Z</time>
      </trkpt>
      <trkpt lat="44.75149" lon="6.01689">
        <ele>997.51</ele>
        <time>2015-05-18T13:40:46Z</time>
      </trkpt>
      <trkpt lat="44.75141" lon="6.01693">
        <ele>997.99</ele>
        <time>2015-05-18T13:40:59Z</time>
      </trkpt>
      <trkpt lat="44.7514" lon="6.01693">
        <ele>997.51</ele>
        <time>2015-05-18T13:41:03Z</time>
      </trkpt>
      <trkpt lat="44.75137" lon="6.01697">
        <ele>997.51</ele>
        <time>2015-05-18T13:41:07Z</time>
      </trkpt>
      <trkpt lat="44.75135" lon="6.01698">
        <ele>997.51</ele>
        <time>2015-05-18T13:41:11Z</time>
      </trkpt>
      <trkpt lat="44.75133" lon="6.01699">
        <ele>998.47</ele>
        <time>2015-05-18T13:41:13Z</time>
      </trkpt>
      <trkpt lat="44.75131" lon="6.017">
        <ele>999.91</ele>
        <time>2015-05-18T13:41:16Z</time>
      </trkpt>
      <trkpt lat="44.75131" lon="6.017">
        <ele>993.66</ele>
        <time>2015-05-18T13:41:19Z</time>
      </trkpt>
      <trkpt lat="44.75131" lon="6.017">
        <ele>1001.83</ele>
        <time>2015-05-18T13:41:20Z</time>
      </trkpt>
      <trkpt lat="44.75131" lon="6.017">
        <ele>999.43</ele>
        <time>2015-05-18T13:41:21Z</time>
      </trkpt>
      <trkpt lat="44.75112" lon="6.01698">
        <ele>999.43</ele>
        <time>2015-05-18T13:41:43Z</time>
      </trkpt>
      <trkpt lat="44.75107" lon="6.01697">
        <ele>993.66</ele>
        <time>2015-05-18T13:41:48Z</time>
      </trkpt>
      <trkpt lat="44.75106" lon="6.01696">
        <ele>997.51</ele>
        <time>2015-05-18T13:41:49Z</time>
      </trkpt>
      <trkpt lat="44.75104" lon="6.01696">
        <ele>999.43</ele>
        <time>2015-05-18T13:41:51Z</time>
      </trkpt>
      <trkpt lat="44.75102" lon="6.01696">
        <ele>996.54</ele>
        <time>2015-05-18T13:41:59Z</time>
      </trkpt>
      <trkpt lat="44.75101" lon="6.01696">
        <ele>998.95</ele>
        <time>2015-05-18T13:42:02Z</time>
      </trkpt>
      <trkpt lat="44.75098" lon="6.01698">
        <ele>998.47</ele>
        <time>2015-05-18T13:42:08Z</time>
      </trkpt>
      <trkpt lat="44.75098" lon="6.01698">
        <ele>1002.31</ele>
        <time>2015-05-18T13:42:10Z</time>
      </trkpt>
      <trkpt lat="44.75098" lon="6.01698">
        <ele>997.02</ele>
        <time>2015-05-18T13:42:11Z</time>
      </trkpt>
      <trkpt lat="44.75098" lon="6.01698">
        <ele>999.43</ele>
        <time>2015-05-18T13:42:12Z</time>
      </trkpt>
      <trkpt lat="44.75095" lon="6.01698">
        <ele>1001.35</ele>
        <time>2015-05-18T13:42:16Z</time>
      </trkpt>
      <trkpt lat="44.7509" lon="6.01699">
        <ele>997.51</ele>
        <time>2015-05-18T13:42:22Z</time>
      </trkpt>
      <trkpt lat="44.75089" lon="6.01699">
        <ele>999.43</ele>
        <time>2015-05-18T13:42:23Z</time>
      </trkpt>
      <trkpt lat="44.75085" lon="6.017">
        <ele>1002.79</ele>
        <time>2015-05-18T13:42:26Z</time>
      </trkpt>
      <trkpt lat="44.75081" lon="6.017">
        <ele>999.91</ele>
        <time>2015-05-18T13:42:29Z</time>
      </trkpt>
      <trkpt lat="44.75078" lon="6.01702">
        <ele>1005.2</ele>
        <time>2015-05-18T13:42:32Z</time>
      </trkpt>
      <trkpt lat="44.75077" lon="6.01702">
        <ele>1000.39</ele>
        <time>2015-05-18T13:42:33Z</time>
      </trkpt>
      <trkpt lat="44.75073" lon="6.01703">
        <ele>1004.23</ele>
        <time>2015-05-18T13:42:36Z</time>
      </trkpt>
      <trkpt lat="44.7507" lon="6.01705">
        <ele>1001.35</ele>
        <time>2015-05-18T13:42:40Z</time>
      </trkpt>
      <trkpt lat="44.75066" lon="6.01705">
        <ele>1000.87</ele>
        <time>2015-05-18T13:42:44Z</time>
      </trkpt>
      <trkpt lat="44.75062" lon="6.01706">
        <ele>1003.27</ele>
        <time>2015-05-18T13:42:47Z</time>
      </trkpt>
      <trkpt lat="44.7506" lon="6.01707">
        <ele>998.95</ele>
        <time>2015-05-18T13:42:49Z</time>
      </trkpt>
      <trkpt lat="44.75059" lon="6.01707">
        <ele>1000.87</ele>
        <time>2015-05-18T13:42:50Z</time>
      </trkpt>
      <trkpt lat="44.75057" lon="6.01708">
        <ele>1004.23</ele>
        <time>2015-05-18T13:42:52Z</time>
      </trkpt>
      <trkpt lat="44.75056" lon="6.01708">
        <ele>1000.39</ele>
        <time>2015-05-18T13:42:53Z</time>
      </trkpt>
      <trkpt lat="44.75055" lon="6.01708">
        <ele>1000.87</ele>
        <time>2015-05-18T13:42:54Z</time>
      </trkpt>
      <trkpt lat="44.75051" lon="6.01709">
        <ele>1000.87</ele>
        <time>2015-05-18T13:42:58Z</time>
      </trkpt>
      <trkpt lat="44.75047" lon="6.01711">
        <ele>1003.75</ele>
        <time>2015-05-18T13:43:01Z</time>
      </trkpt>
      <trkpt lat="44.75043" lon="6.01712">
        <ele>1000.87</ele>
        <time>2015-05-18T13:43:04Z</time>
      </trkpt>
      <trkpt lat="44.75034" lon="6.01714">
        <ele>1001.35</ele>
        <time>2015-05-18T13:43:12Z</time>
      </trkpt>
      <trkpt lat="44.75034" lon="6.01714">
        <ele>996.54</ele>
        <time>2015-05-18T13:43:13Z</time>
      </trkpt>
      <trkpt lat="44.75033" lon="6.01715">
        <ele>1001.83</ele>
        <time>2015-05-18T13:43:14Z</time>
      </trkpt>
      <trkpt lat="44.75018" lon="6.01714">
        <ele>999.91</ele>
        <time>2015-05-18T13:43:30Z</time>
      </trkpt>
      <trkpt lat="44.75017" lon="6.01714">
        <ele>1004.23</ele>
        <time>2015-05-18T13:43:32Z</time>
      </trkpt>
      <trkpt lat="44.75016" lon="6.01714">
        <ele>1004.23</ele>
        <time>2015-05-18T13:43:33Z</time>
      </trkpt>
      <trkpt lat="44.75013" lon="6.01713">
        <ele>998.95</ele>
        <time>2015-05-18T13:43:35Z</time>
      </trkpt>
      <trkpt lat="44.75012" lon="6.01713">
        <ele>1001.35</ele>
        <time>2015-05-18T13:43:36Z</time>
      </trkpt>
      <trkpt lat="44.7501" lon="6.01712">
        <ele>1004.23</ele>
        <time>2015-05-18T13:43:38Z</time>
      </trkpt>
      <trkpt lat="44.75006" lon="6.01712">
        <ele>998.95</ele>
        <time>2015-05-18T13:43:41Z</time>
      </trkpt>
      <trkpt lat="44.75005" lon="6.01712">
        <ele>1001.35</ele>
        <time>2015-05-18T13:43:42Z</time>
      </trkpt>
      <trkpt lat="44.75003" lon="6.01711">
        <ele>1005.2</ele>
        <time>2015-05-18T13:43:44Z</time>
      </trkpt>
      <trkpt lat="44.74999" lon="6.01709">
        <ele>1001.83</ele>
        <time>2015-05-18T13:43:47Z</time>
      </trkpt>
      <trkpt lat="44.74997" lon="6.01708">
        <ele>1004.72</ele>
        <time>2015-05-18T13:43:49Z</time>
      </trkpt>
      <trkpt lat="44.74989" lon="6.01704">
        <ele>999.91</ele>
        <time>2015-05-18T13:43:53Z</time>
      </trkpt>
      <trkpt lat="44.74988" lon="6.01704">
        <ele>1004.72</ele>
        <time>2015-05-18T13:43:54Z</time>
      </trkpt>
      <trkpt lat="44.74987" lon="6.01704">
        <ele>1004.72</ele>
        <time>2015-05-18T13:43:55Z</time>
      </trkpt>
      <trkpt lat="44.74977" lon="6.01704">
        <ele>1001.35</ele>
        <time>2015-05-18T13:44:09Z</time>
      </trkpt>
      <trkpt lat="44.74976" lon="6.01704">
        <ele>1003.75</ele>
        <time>2015-05-18T13:44:12Z</time>
      </trkpt>
      <trkpt lat="44.74973" lon="6.01705">
        <ele>1007.12</ele>
        <time>2015-05-18T13:44:18Z</time>
      </trkpt>
      <trkpt lat="44.74961" lon="6.01706">
        <ele>1006.16</ele>
        <time>2015-05-18T13:44:30Z</time>
      </trkpt>
      <trkpt lat="44.74949" lon="6.01706">
        <ele>1006.64</ele>
        <time>2015-05-18T13:44:44Z</time>
      </trkpt>
      <trkpt lat="44.74946" lon="6.01704">
        <ele>1007.6</ele>
        <time>2015-05-18T13:44:46Z</time>
      </trkpt>
      <trkpt lat="44.74943" lon="6.01704">
        <ele>1003.27</ele>
        <time>2015-05-18T13:44:48Z</time>
      </trkpt>
      <trkpt lat="44.74943" lon="6.01703">
        <ele>1005.2</ele>
        <time>2015-05-18T13:44:49Z</time>
      </trkpt>
      <trkpt lat="44.74941" lon="6.01704">
        <ele>1006.64</ele>
        <time>2015-05-18T13:44:51Z</time>
      </trkpt>
      <trkpt lat="44.74939" lon="6.01704">
        <ele>1002.79</ele>
        <time>2015-05-18T13:44:53Z</time>
      </trkpt>
      <trkpt lat="44.74938" lon="6.01704">
        <ele>1004.23</ele>
        <time>2015-05-18T13:44:54Z</time>
      </trkpt>
      <trkpt lat="44.74936" lon="6.01702">
        <ele>1007.12</ele>
        <time>2015-05-18T13:44:56Z</time>
      </trkpt>
      <trkpt lat="44.74935" lon="6.01702">
        <ele>1007.12</ele>
        <time>2015-05-18T13:44:57Z</time>
      </trkpt>
      <trkpt lat="44.74931" lon="6.01702">
        <ele>1003.27</ele>
        <time>2015-05-18T13:45:01Z</time>
      </trkpt>
      <trkpt lat="44.7493" lon="6.01702">
        <ele>1003.27</ele>
        <time>2015-05-18T13:45:02Z</time>
      </trkpt>
      <trkpt lat="44.74928" lon="6.01703">
        <ele>1007.12</ele>
        <time>2015-05-18T13:45:05Z</time>
      </trkpt>
      <trkpt lat="44.74927" lon="6.01704">
        <ele>1008.56</ele>
        <time>2015-05-18T13:45:07Z</time>
      </trkpt>
      <trkpt lat="44.7492" lon="6.01705">
        <ele>1009.04</ele>
        <time>2015-05-18T13:45:17Z</time>
      </trkpt>
      <trkpt lat="44.74917" lon="6.01708">
        <ele>1003.75</ele>
        <time>2015-05-18T13:45:21Z</time>
      </trkpt>
      <trkpt lat="44.74916" lon="6.01708">
        <ele>1004.23</ele>
        <time>2015-05-18T13:45:22Z</time>
      </trkpt>
      <trkpt lat="44.74916" lon="6.01708">
        <ele>1007.12</ele>
        <time>2015-05-18T13:45:23Z</time>
      </trkpt>
      <trkpt lat="44.74913" lon="6.01709">
        <ele>1009.04</ele>
        <time>2015-05-18T13:45:26Z</time>
      </trkpt>
      <trkpt lat="44.7491" lon="6.0171">
        <ele>1005.2</ele>
        <time>2015-05-18T13:45:30Z</time>
      </trkpt>
      <trkpt lat="44.74909" lon="6.01711">
        <ele>1006.16</ele>
        <time>2015-05-18T13:45:31Z</time>
      </trkpt>
      <trkpt lat="44.74906" lon="6.01711">
        <ele>1009.52</ele>
        <time>2015-05-18T13:45:33Z</time>
      </trkpt>
      <trkpt lat="44.74905" lon="6.01711">
        <ele>1009.52</ele>
        <time>2015-05-18T13:45:34Z</time>
      </trkpt>
      <trkpt lat="44.749" lon="6.01713">
        <ele>1005.2</ele>
        <time>2015-05-18T13:45:39Z</time>
      </trkpt>
      <trkpt lat="44.74895" lon="6.01714">
        <ele>1010</ele>
        <time>2015-05-18T13:45:44Z</time>
      </trkpt>
      <trkpt lat="44.74891" lon="6.01713">
        <ele>1009.04</ele>
        <time>2015-05-18T13:45:49Z</time>
      </trkpt>
      <trkpt lat="44.74885" lon="6.01714">
        <ele>1010</ele>
        <time>2015-05-18T13:45:53Z</time>
      </trkpt>
      <trkpt lat="44.74876" lon="6.01717">
        <ele>1007.12</ele>
        <time>2015-05-18T13:46:00Z</time>
      </trkpt>
      <trkpt lat="44.74868" lon="6.01719">
        <ele>1010.48</ele>
        <time>2015-05-18T13:46:10Z</time>
      </trkpt>
      <trkpt lat="44.74864" lon="6.01723">
        <ele>1007.12</ele>
        <time>2015-05-18T13:46:13Z</time>
      </trkpt>
      <trkpt lat="44.74861" lon="6.01724">
        <ele>1010</ele>
        <time>2015-05-18T13:46:16Z</time>
      </trkpt>
      <trkpt lat="44.74859" lon="6.01726">
        <ele>1007.6</ele>
        <time>2015-05-18T13:46:18Z</time>
      </trkpt>
      <trkpt lat="44.74858" lon="6.01727">
        <ele>1007.6</ele>
        <time>2015-05-18T13:46:19Z</time>
      </trkpt>
      <trkpt lat="44.74857" lon="6.01727">
        <ele>1010</ele>
        <time>2015-05-18T13:46:21Z</time>
      </trkpt>
      <trkpt lat="44.74843" lon="6.01732">
        <ele>1012.89</ele>
        <time>2015-05-18T13:46:33Z</time>
      </trkpt>
      <trkpt lat="44.74842" lon="6.01732">
        <ele>1010.96</ele>
        <time>2015-05-18T13:46:34Z</time>
      </trkpt>
      <trkpt lat="44.74842" lon="6.01733">
        <ele>1009.52</ele>
        <time>2015-05-18T13:46:38Z</time>
      </trkpt>
      <trkpt lat="44.74841" lon="6.01735">
        <ele>1011.93</ele>
        <time>2015-05-18T13:46:41Z</time>
      </trkpt>
      <trkpt lat="44.74839" lon="6.01737">
        <ele>1014.81</ele>
        <time>2015-05-18T13:46:44Z</time>
      </trkpt>
      <trkpt lat="44.74839" lon="6.01737">
        <ele>1013.37</ele>
        <time>2015-05-18T13:46:45Z</time>
      </trkpt>
      <trkpt lat="44.74836" lon="6.0174">
        <ele>1005.2</ele>
        <time>2015-05-18T13:46:50Z</time>
      </trkpt>
      <trkpt lat="44.74835" lon="6.0174">
        <ele>1011.93</ele>
        <time>2015-05-18T13:46:51Z</time>
      </trkpt>
      <trkpt lat="44.74832" lon="6.01742">
        <ele>1006.64</ele>
        <time>2015-05-18T13:46:54Z</time>
      </trkpt>
      <trkpt lat="44.74831" lon="6.01742">
        <ele>1010.48</ele>
        <time>2015-05-18T13:46:55Z</time>
      </trkpt>
      <trkpt lat="44.74829" lon="6.01742">
        <ele>1017.21</ele>
        <time>2015-05-18T13:46:57Z</time>
      </trkpt>
      <trkpt lat="44.74828" lon="6.01743">
        <ele>1007.6</ele>
        <time>2015-05-18T13:46:58Z</time>
      </trkpt>
      <trkpt lat="44.74827" lon="6.01743">
        <ele>1009.52</ele>
        <time>2015-05-18T13:46:59Z</time>
      </trkpt>
      <trkpt lat="44.74827" lon="6.01743">
        <ele>1013.37</ele>
        <time>2015-05-18T13:47:00Z</time>
      </trkpt>
      <trkpt lat="44.74825" lon="6.01743">
        <ele>1010</ele>
        <time>2015-05-18T13:47:02Z</time>
      </trkpt>
      <trkpt lat="44.74824" lon="6.01743">
        <ele>1010.96</ele>
        <time>2015-05-18T13:47:03Z</time>
      </trkpt>
      <trkpt lat="44.74821" lon="6.01745">
        <ele>1013.37</ele>
        <time>2015-05-18T13:47:05Z</time>
      </trkpt>
      <trkpt lat="44.7481" lon="6.01752">
        <ele>1010.96</ele>
        <time>2015-05-18T13:47:19Z</time>
      </trkpt>
      <trkpt lat="44.74808" lon="6.01754">
        <ele>1015.77</ele>
        <time>2015-05-18T13:47:21Z</time>
      </trkpt>
      <trkpt lat="44.74807" lon="6.01754">
        <ele>1014.33</ele>
        <time>2015-05-18T13:47:22Z</time>
      </trkpt>
      <trkpt lat="44.74806" lon="6.01757">
        <ele>1008.08</ele>
        <time>2015-05-18T13:47:24Z</time>
      </trkpt>
      <trkpt lat="44.74805" lon="6.01757">
        <ele>1014.33</ele>
        <time>2015-05-18T13:47:25Z</time>
      </trkpt>
      <trkpt lat="44.74793" lon="6.01765">
        <ele>1015.29</ele>
        <time>2015-05-18T13:47:39Z</time>
      </trkpt>
      <trkpt lat="44.74792" lon="6.01766">
        <ele>1016.73</ele>
        <time>2015-05-18T13:47:40Z</time>
      </trkpt>
      <trkpt lat="44.74784" lon="6.0177">
        <ele>1016.25</ele>
        <time>2015-05-18T13:47:55Z</time>
      </trkpt>
      <trkpt lat="44.74783" lon="6.01771">
        <ele>1012.89</ele>
        <time>2015-05-18T13:48:10Z</time>
      </trkpt>
      <trkpt lat="44.74783" lon="6.01771">
        <ele>1016.73</ele>
        <time>2015-05-18T13:48:11Z</time>
      </trkpt>
      <trkpt lat="44.74781" lon="6.01773">
        <ele>1018.17</ele>
        <time>2015-05-18T13:48:13Z</time>
      </trkpt>
      <trkpt lat="44.74779" lon="6.01773">
        <ele>1014.81</ele>
        <time>2015-05-18T13:48:14Z</time>
      </trkpt>
      <trkpt lat="44.74779" lon="6.01774">
        <ele>1014.81</ele>
        <time>2015-05-18T13:48:15Z</time>
      </trkpt>
      <trkpt lat="44.74776" lon="6.01774">
        <ele>1018.17</ele>
        <time>2015-05-18T13:48:17Z</time>
      </trkpt>
      <trkpt lat="44.74774" lon="6.01775">
        <ele>1019.62</ele>
        <time>2015-05-18T13:48:19Z</time>
      </trkpt>
      <trkpt lat="44.74772" lon="6.01776">
        <ele>1012.41</ele>
        <time>2015-05-18T13:48:21Z</time>
      </trkpt>
      <trkpt lat="44.74772" lon="6.01776">
        <ele>1014.81</ele>
        <time>2015-05-18T13:48:22Z</time>
      </trkpt>
      <trkpt lat="44.74772" lon="6.01776">
        <ele>1019.62</ele>
        <time>2015-05-18T13:48:24Z</time>
      </trkpt>
      <trkpt lat="44.7477" lon="6.01777">
        <ele>1022.98</ele>
        <time>2015-05-18T13:48:26Z</time>
      </trkpt>
      <trkpt lat="44.7477" lon="6.01778">
        <ele>1016.73</ele>
        <time>2015-05-18T13:48:27Z</time>
      </trkpt>
      <trkpt lat="44.74766" lon="6.01779">
        <ele>1020.58</ele>
        <time>2015-05-18T13:48:30Z</time>
      </trkpt>
      <trkpt lat="44.74766" lon="6.01779">
        <ele>1014.81</ele>
        <time>2015-05-18T13:48:32Z</time>
      </trkpt>
      <trkpt lat="44.74766" lon="6.01779">
        <ele>1021.06</ele>
        <time>2015-05-18T13:48:35Z</time>
      </trkpt>
      <trkpt lat="44.74765" lon="6.01779">
        <ele>1017.69</ele>
        <time>2015-05-18T13:48:37Z</time>
      </trkpt>
      <trkpt lat="44.74765" lon="6.01779">
        <ele>1021.06</ele>
        <time>2015-05-18T13:48:39Z</time>
      </trkpt>
      <trkpt lat="44.7476" lon="6.01783">
        <ele>1024.9</ele>
        <time>2015-05-18T13:48:46Z</time>
      </trkpt>
      <trkpt lat="44.74759" lon="6.01784">
        <ele>1017.69</ele>
        <time>2015-05-18T13:48:47Z</time>
      </trkpt>
      <trkpt lat="44.74758" lon="6.01784">
        <ele>1022.5</ele>
        <time>2015-05-18T13:48:48Z</time>
      </trkpt>
      <trkpt lat="44.74756" lon="6.01784">
        <ele>1025.86</ele>
        <time>2015-05-18T13:48:50Z</time>
      </trkpt>
      <trkpt lat="44.74754" lon="6.01784">
        <ele>1016.73</ele>
        <time>2015-05-18T13:48:51Z</time>
      </trkpt>
      <trkpt lat="44.74753" lon="6.01783">
        <ele>1017.21</ele>
        <time>2015-05-18T13:48:52Z</time>
      </trkpt>
      <trkpt lat="44.74752" lon="6.01783">
        <ele>1022.02</ele>
        <time>2015-05-18T13:48:53Z</time>
      </trkpt>
      <trkpt lat="44.74746" lon="6.01782">
        <ele>1016.25</ele>
        <time>2015-05-18T13:48:56Z</time>
      </trkpt>
      <trkpt lat="44.74746" lon="6.01782">
        <ele>1021.06</ele>
        <time>2015-05-18T13:48:57Z</time>
      </trkpt>
      <trkpt lat="44.74744" lon="6.01782">
        <ele>1027.31</ele>
        <time>2015-05-18T13:48:59Z</time>
      </trkpt>
      <trkpt lat="44.74742" lon="6.01783">
        <ele>1019.13</ele>
        <time>2015-05-18T13:49:00Z</time>
      </trkpt>
      <trkpt lat="44.7474" lon="6.01783">
        <ele>1021.06</ele>
        <time>2015-05-18T13:49:01Z</time>
      </trkpt>
      <trkpt lat="44.74737" lon="6.01783">
        <ele>1022.98</ele>
        <time>2015-05-18T13:49:03Z</time>
      </trkpt>
      <trkpt lat="44.7473" lon="6.01783">
        <ele>1026.34</ele>
        <time>2015-05-18T13:49:11Z</time>
      </trkpt>
      <trkpt lat="44.74728" lon="6.01784">
        <ele>1019.62</ele>
        <time>2015-05-18T13:49:15Z</time>
      </trkpt>
      <trkpt lat="44.74727" lon="6.01784">
        <ele>1023.94</ele>
        <time>2015-05-18T13:49:16Z</time>
      </trkpt>
      <trkpt lat="44.74726" lon="6.01784">
        <ele>1027.79</ele>
        <time>2015-05-18T13:49:17Z</time>
      </trkpt>
      <trkpt lat="44.74725" lon="6.01784">
        <ele>1027.31</ele>
        <time>2015-05-18T13:49:18Z</time>
      </trkpt>
      <trkpt lat="44.74725" lon="6.01784">
        <ele>1019.62</ele>
        <time>2015-05-18T13:49:19Z</time>
      </trkpt>
      <trkpt lat="44.74725" lon="6.01785">
        <ele>1023.46</ele>
        <time>2015-05-18T13:49:20Z</time>
      </trkpt>
      <trkpt lat="44.74724" lon="6.01786">
        <ele>1029.23</ele>
        <time>2015-05-18T13:49:21Z</time>
      </trkpt>
      <trkpt lat="44.74724" lon="6.01786">
        <ele>1020.1</ele>
        <time>2015-05-18T13:49:22Z</time>
      </trkpt>
      <trkpt lat="44.74723" lon="6.01787">
        <ele>1026.83</ele>
        <time>2015-05-18T13:49:24Z</time>
      </trkpt>
      <trkpt lat="44.74721" lon="6.01787">
        <ele>1026.34</ele>
        <time>2015-05-18T13:49:25Z</time>
      </trkpt>
      <trkpt lat="44.74711" lon="6.0179">
        <ele>1030.67</ele>
        <time>2015-05-18T13:49:34Z</time>
      </trkpt>
      <trkpt lat="44.7471" lon="6.0179">
        <ele>1022.02</ele>
        <time>2015-05-18T13:49:35Z</time>
      </trkpt>
      <trkpt lat="44.7471" lon="6.01791">
        <ele>1026.83</ele>
        <time>2015-05-18T13:49:36Z</time>
      </trkpt>
      <trkpt lat="44.74704" lon="6.01789">
        <ele>1021.54</ele>
        <time>2015-05-18T13:49:43Z</time>
      </trkpt>
      <trkpt lat="44.74703" lon="6.01789">
        <ele>1027.79</ele>
        <time>2015-05-18T13:49:44Z</time>
      </trkpt>
      <trkpt lat="44.747" lon="6.01788">
        <ele>1029.71</ele>
        <time>2015-05-18T13:49:46Z</time>
      </trkpt>
      <trkpt lat="44.74699" lon="6.01787">
        <ele>1025.38</ele>
        <time>2015-05-18T13:49:47Z</time>
      </trkpt>
      <trkpt lat="44.74698" lon="6.01787">
        <ele>1028.75</ele>
        <time>2015-05-18T13:49:48Z</time>
      </trkpt>
      <trkpt lat="44.74697" lon="6.01787">
        <ele>1025.38</ele>
        <time>2015-05-18T13:49:49Z</time>
      </trkpt>
      <trkpt lat="44.74695" lon="6.01787">
        <ele>1031.15</ele>
        <time>2015-05-18T13:49:51Z</time>
      </trkpt>
      <trkpt lat="44.74694" lon="6.01787">
        <ele>1029.23</ele>
        <time>2015-05-18T13:49:52Z</time>
      </trkpt>
      <trkpt lat="44.74693" lon="6.01787">
        <ele>1032.59</ele>
        <time>2015-05-18T13:49:54Z</time>
      </trkpt>
      <trkpt lat="44.74691" lon="6.01787">
        <ele>1028.75</ele>
        <time>2015-05-18T13:49:56Z</time>
      </trkpt>
      <trkpt lat="44.7469" lon="6.01787">
        <ele>1031.63</ele>
        <time>2015-05-18T13:49:57Z</time>
      </trkpt>
      <trkpt lat="44.7469" lon="6.01787">
        <ele>1026.83</ele>
        <time>2015-05-18T13:49:58Z</time>
      </trkpt>
      <trkpt lat="44.74688" lon="6.01788">
        <ele>1030.19</ele>
        <time>2015-05-18T13:50:00Z</time>
      </trkpt>
      <trkpt lat="44.74686" lon="6.01789">
        <ele>1027.31</ele>
        <time>2015-05-18T13:50:04Z</time>
      </trkpt>
      <trkpt lat="44.74686" lon="6.01789">
        <ele>1031.15</ele>
        <time>2015-05-18T13:50:06Z</time>
      </trkpt>
      <trkpt lat="44.74685" lon="6.01789">
        <ele>1027.31</ele>
        <time>2015-05-18T13:50:07Z</time>
      </trkpt>
      <trkpt lat="44.74684" lon="6.01789">
        <ele>1031.63</ele>
        <time>2015-05-18T13:50:10Z</time>
      </trkpt>
      <trkpt lat="44.74683" lon="6.0179">
        <ele>1030.19</ele>
        <time>2015-05-18T13:50:11Z</time>
      </trkpt>
      <trkpt lat="44.74683" lon="6.0179">
        <ele>1025.38</ele>
        <time>2015-05-18T13:50:12Z</time>
      </trkpt>
      <trkpt lat="44.74683" lon="6.0179">
        <ele>1028.27</ele>
        <time>2015-05-18T13:50:13Z</time>
      </trkpt>
      <trkpt lat="44.74682" lon="6.0179">
        <ele>1032.11</ele>
        <time>2015-05-18T13:50:15Z</time>
      </trkpt>
      <trkpt lat="44.7468" lon="6.0179">
        <ele>1028.27</ele>
        <time>2015-05-18T13:50:17Z</time>
      </trkpt>
      <trkpt lat="44.74678" lon="6.0179">
        <ele>1031.63</ele>
        <time>2015-05-18T13:50:19Z</time>
      </trkpt>
      <trkpt lat="44.74672" lon="6.01789">
        <ele>1027.79</ele>
        <time>2015-05-18T13:50:26Z</time>
      </trkpt>
      <trkpt lat="44.74672" lon="6.01789">
        <ele>1028.27</ele>
        <time>2015-05-18T13:50:27Z</time>
      </trkpt>
      <trkpt lat="44.74671" lon="6.01789">
        <ele>1032.59</ele>
        <time>2015-05-18T13:50:28Z</time>
      </trkpt>
      <trkpt lat="44.7467" lon="6.01789">
        <ele>1031.63</ele>
        <time>2015-05-18T13:50:29Z</time>
      </trkpt>
      <trkpt lat="44.74664" lon="6.01776">
        <ele>1032.59</ele>
        <time>2015-05-18T13:50:51Z</time>
      </trkpt>
      <trkpt lat="44.74659" lon="6.01771">
        <ele>1030.67</ele>
        <time>2015-05-18T13:50:56Z</time>
      </trkpt>
      <trkpt lat="44.74654" lon="6.01765">
        <ele>1031.15</ele>
        <time>2015-05-18T13:51:03Z</time>
      </trkpt>
      <trkpt lat="44.74654" lon="6.01773">
        <ele>1031.63</ele>
        <time>2015-05-18T13:51:17Z</time>
      </trkpt>
      <trkpt lat="44.74653" lon="6.01777">
        <ele>1031.63</ele>
        <time>2015-05-18T13:51:33Z</time>
      </trkpt>
      <trkpt lat="44.74652" lon="6.01779">
        <ele>1031.63</ele>
        <time>2015-05-18T13:51:42Z</time>
      </trkpt>
      <trkpt lat="44.7465" lon="6.0178">
        <ele>1027.79</ele>
        <time>2015-05-18T13:51:50Z</time>
      </trkpt>
      <trkpt lat="44.7465" lon="6.01781">
        <ele>1032.11</ele>
        <time>2015-05-18T13:51:51Z</time>
      </trkpt>
      <trkpt lat="44.74646" lon="6.01789">
        <ele>1034.04</ele>
        <time>2015-05-18T13:51:59Z</time>
      </trkpt>
      <trkpt lat="44.74641" lon="6.01797">
        <ele>1033.55</ele>
        <time>2015-05-18T13:52:06Z</time>
      </trkpt>
      <trkpt lat="44.74631" lon="6.01803">
        <ele>1028.75</ele>
        <time>2015-05-18T13:52:14Z</time>
      </trkpt>
      <trkpt lat="44.7463" lon="6.01803">
        <ele>1030.67</ele>
        <time>2015-05-18T13:52:15Z</time>
      </trkpt>
      <trkpt lat="44.74629" lon="6.01804">
        <ele>1034.52</ele>
        <time>2015-05-18T13:52:17Z</time>
      </trkpt>
      <trkpt lat="44.74628" lon="6.01804">
        <ele>1033.55</ele>
        <time>2015-05-18T13:52:18Z</time>
      </trkpt>
      <trkpt lat="44.74622" lon="6.01809">
        <ele>1034.04</ele>
        <time>2015-05-18T13:52:25Z</time>
      </trkpt>
      <trkpt lat="44.7462" lon="6.01809">
        <ele>1031.15</ele>
        <time>2015-05-18T13:52:27Z</time>
      </trkpt>
      <trkpt lat="44.74618" lon="6.01813">
        <ele>1033.55</ele>
        <time>2015-05-18T13:52:32Z</time>
      </trkpt>
      <trkpt lat="44.74615" lon="6.01815">
        <ele>1035.96</ele>
        <time>2015-05-18T13:52:35Z</time>
      </trkpt>
      <trkpt lat="44.74608" lon="6.01817">
        <ele>1032.59</ele>
        <time>2015-05-18T13:52:43Z</time>
      </trkpt>
      <trkpt lat="44.74606" lon="6.01817">
        <ele>1032.59</ele>
        <time>2015-05-18T13:52:44Z</time>
      </trkpt>
      <trkpt lat="44.74602" lon="6.01819">
        <ele>1035.48</ele>
        <time>2015-05-18T13:52:49Z</time>
      </trkpt>
      <trkpt lat="44.74601" lon="6.01818">
        <ele>1035.48</ele>
        <time>2015-05-18T13:52:50Z</time>
      </trkpt>
      <trkpt lat="44.74599" lon="6.01819">
        <ele>1034.04</ele>
        <time>2015-05-18T13:52:53Z</time>
      </trkpt>
      <trkpt lat="44.74585" lon="6.01827">
        <ele>1034.52</ele>
        <time>2015-05-18T13:53:06Z</time>
      </trkpt>
      <trkpt lat="44.74579" lon="6.0183">
        <ele>1027.79</ele>
        <time>2015-05-18T13:53:12Z</time>
      </trkpt>
      <trkpt lat="44.74579" lon="6.0183">
        <ele>1035.48</ele>
        <time>2015-05-18T13:53:13Z</time>
      </trkpt>
      <trkpt lat="44.74571" lon="6.01833">
        <ele>1035</ele>
        <time>2015-05-18T13:53:21Z</time>
      </trkpt>
      <trkpt lat="44.74562" lon="6.01838">
        <ele>1035</ele>
        <time>2015-05-18T13:53:30Z</time>
      </trkpt>
      <trkpt lat="44.74549" lon="6.0184">
        <ele>1033.55</ele>
        <time>2015-05-18T13:53:43Z</time>
      </trkpt>
      <trkpt lat="44.74546" lon="6.01841">
        <ele>1035</ele>
        <time>2015-05-18T13:53:45Z</time>
      </trkpt>
      <trkpt lat="44.74542" lon="6.01842">
        <ele>1035.48</ele>
        <time>2015-05-18T13:53:49Z</time>
      </trkpt>
      <trkpt lat="44.74535" lon="6.01843">
        <ele>1034.52</ele>
        <time>2015-05-18T13:53:56Z</time>
      </trkpt>
      <trkpt lat="44.74527" lon="6.01844">
        <ele>1036.44</ele>
        <time>2015-05-18T13:54:02Z</time>
      </trkpt>
      <trkpt lat="44.7452" lon="6.01846">
        <ele>1035.96</ele>
        <time>2015-05-18T13:54:09Z</time>
      </trkpt>
      <trkpt lat="44.74516" lon="6.01847">
        <ele>1033.07</ele>
        <time>2015-05-18T13:54:12Z</time>
      </trkpt>
      <trkpt lat="44.74515" lon="6.01848">
        <ele>1034.04</ele>
        <time>2015-05-18T13:54:13Z</time>
      </trkpt>
      <trkpt lat="44.74513" lon="6.01849">
        <ele>1035.48</ele>
        <time>2015-05-18T13:54:16Z</time>
      </trkpt>
      <trkpt lat="44.74509" lon="6.01849">
        <ele>1032.11</ele>
        <time>2015-05-18T13:54:19Z</time>
      </trkpt>
      <trkpt lat="44.74508" lon="6.01849">
        <ele>1033.07</ele>
        <time>2015-05-18T13:54:20Z</time>
      </trkpt>
      <trkpt lat="44.74506" lon="6.0185">
        <ele>1036.44</ele>
        <time>2015-05-18T13:54:23Z</time>
      </trkpt>
      <trkpt lat="44.74503" lon="6.01851">
        <ele>1038.84</ele>
        <time>2015-05-18T13:54:26Z</time>
      </trkpt>
      <trkpt lat="44.74501" lon="6.01853">
        <ele>1035.48</ele>
        <time>2015-05-18T13:54:29Z</time>
      </trkpt>
      <trkpt lat="44.74497" lon="6.01857">
        <ele>1038.84</ele>
        <time>2015-05-18T13:54:33Z</time>
      </trkpt>
      <trkpt lat="44.74492" lon="6.01861">
        <ele>1037.4</ele>
        <time>2015-05-18T13:54:39Z</time>
      </trkpt>
      <trkpt lat="44.74486" lon="6.01868">
        <ele>1035</ele>
        <time>2015-05-18T13:54:48Z</time>
      </trkpt>
      <trkpt lat="44.74483" lon="6.0187">
        <ele>1035</ele>
        <time>2015-05-18T13:54:53Z</time>
      </trkpt>
      <trkpt lat="44.7448" lon="6.01871">
        <ele>1030.67</ele>
        <time>2015-05-18T13:54:56Z</time>
      </trkpt>
      <trkpt lat="44.7448" lon="6.01871">
        <ele>1034.04</ele>
        <time>2015-05-18T13:54:57Z</time>
      </trkpt>
      <trkpt lat="44.74477" lon="6.01873">
        <ele>1037.4</ele>
        <time>2015-05-18T13:55:01Z</time>
      </trkpt>
      <trkpt lat="44.74475" lon="6.01874">
        <ele>1038.84</ele>
        <time>2015-05-18T13:55:02Z</time>
      </trkpt>
      <trkpt lat="44.74473" lon="6.01879">
        <ele>1034.52</ele>
        <time>2015-05-18T13:55:06Z</time>
      </trkpt>
      <trkpt lat="44.74471" lon="6.01881">
        <ele>1035.48</ele>
        <time>2015-05-18T13:55:09Z</time>
      </trkpt>
      <trkpt lat="44.74463" lon="6.01883">
        <ele>1037.4</ele>
        <time>2015-05-18T13:55:17Z</time>
      </trkpt>
      <trkpt lat="44.7446" lon="6.01885">
        <ele>1033.55</ele>
        <time>2015-05-18T13:55:20Z</time>
      </trkpt>
      <trkpt lat="44.7446" lon="6.01886">
        <ele>1033.55</ele>
        <time>2015-05-18T13:55:21Z</time>
      </trkpt>
      <trkpt lat="44.74459" lon="6.01886">
        <ele>1036.92</ele>
        <time>2015-05-18T13:55:22Z</time>
      </trkpt>
      <trkpt lat="44.74458" lon="6.01887">
        <ele>1035.96</ele>
        <time>2015-05-18T13:55:23Z</time>
      </trkpt>
      <trkpt lat="44.74457" lon="6.01888">
        <ele>1039.32</ele>
        <time>2015-05-18T13:55:24Z</time>
      </trkpt>
      <trkpt lat="44.74452" lon="6.0189">
        <ele>1037.88</ele>
        <time>2015-05-18T13:55:28Z</time>
      </trkpt>
      <trkpt lat="44.74452" lon="6.01891">
        <ele>1031.63</ele>
        <time>2015-05-18T13:55:29Z</time>
      </trkpt>
      <trkpt lat="44.74451" lon="6.01892">
        <ele>1035.96</ele>
        <time>2015-05-18T13:55:30Z</time>
      </trkpt>
      <trkpt lat="44.74448" lon="6.01895">
        <ele>1038.84</ele>
        <time>2015-05-18T13:55:33Z</time>
      </trkpt>
      <trkpt lat="44.74444" lon="6.01896">
        <ele>1036.44</ele>
        <time>2015-05-18T13:55:37Z</time>
      </trkpt>
      <trkpt lat="44.74442" lon="6.01896">
        <ele>1041.73</ele>
        <time>2015-05-18T13:55:39Z</time>
      </trkpt>
      <trkpt lat="44.74441" lon="6.01897">
        <ele>1036.92</ele>
        <time>2015-05-18T13:55:40Z</time>
      </trkpt>
      <trkpt lat="44.74439" lon="6.01899">
        <ele>1041.25</ele>
        <time>2015-05-18T13:55:43Z</time>
      </trkpt>
      <trkpt lat="44.74438" lon="6.01899">
        <ele>1040.28</ele>
        <time>2015-05-18T13:55:44Z</time>
      </trkpt>
      <trkpt lat="44.74437" lon="6.01899">
        <ele>1033.07</ele>
        <time>2015-05-18T13:55:45Z</time>
      </trkpt>
      <trkpt lat="44.74436" lon="6.019">
        <ele>1037.4</ele>
        <time>2015-05-18T13:55:46Z</time>
      </trkpt>
      <trkpt lat="44.74434" lon="6.01901">
        <ele>1043.17</ele>
        <time>2015-05-18T13:55:48Z</time>
      </trkpt>
      <trkpt lat="44.74434" lon="6.01902">
        <ele>1036.92</ele>
        <time>2015-05-18T13:55:49Z</time>
      </trkpt>
      <trkpt lat="44.74432" lon="6.01904">
        <ele>1038.36</ele>
        <time>2015-05-18T13:55:51Z</time>
      </trkpt>
      <trkpt lat="44.74428" lon="6.01905">
        <ele>1036.44</ele>
        <time>2015-05-18T13:55:54Z</time>
      </trkpt>
      <trkpt lat="44.74427" lon="6.01905">
        <ele>1033.07</ele>
        <time>2015-05-18T13:55:55Z</time>
      </trkpt>
      <trkpt lat="44.74426" lon="6.01906">
        <ele>1037.88</ele>
        <time>2015-05-18T13:55:56Z</time>
      </trkpt>
      <trkpt lat="44.74425" lon="6.01907">
        <ele>1041.73</ele>
        <time>2015-05-18T13:55:57Z</time>
      </trkpt>
      <trkpt lat="44.74422" lon="6.01909">
        <ele>1036.44</ele>
        <time>2015-05-18T13:56:00Z</time>
      </trkpt>
      <trkpt lat="44.74422" lon="6.01909">
        <ele>1039.32</ele>
        <time>2015-05-18T13:56:01Z</time>
      </trkpt>
      <trkpt lat="44.74419" lon="6.01911">
        <ele>1036.44</ele>
        <time>2015-05-18T13:56:04Z</time>
      </trkpt>
      <trkpt lat="44.74419" lon="6.01912">
        <ele>1037.4</ele>
        <time>2015-05-18T13:56:05Z</time>
      </trkpt>
      <trkpt lat="44.74418" lon="6.01912">
        <ele>1040.76</ele>
        <time>2015-05-18T13:56:06Z</time>
      </trkpt>
      <trkpt lat="44.74417" lon="6.01913">
        <ele>1040.76</ele>
        <time>2015-05-18T13:56:07Z</time>
      </trkpt>
      <trkpt lat="44.74415" lon="6.01914">
        <ele>1041.73</ele>
        <time>2015-05-18T13:56:11Z</time>
      </trkpt>
      <trkpt lat="44.74414" lon="6.01915">
        <ele>1037.88</ele>
        <time>2015-05-18T13:56:12Z</time>
      </trkpt>
      <trkpt lat="44.74414" lon="6.01915">
        <ele>1040.76</ele>
        <time>2015-05-18T13:56:13Z</time>
      </trkpt>
      <trkpt lat="44.74413" lon="6.01916">
        <ele>1044.13</ele>
        <time>2015-05-18T13:56:14Z</time>
      </trkpt>
      <trkpt lat="44.74412" lon="6.01917">
        <ele>1038.84</ele>
        <time>2015-05-18T13:56:15Z</time>
      </trkpt>
      <trkpt lat="44.74409" lon="6.01917">
        <ele>1042.69</ele>
        <time>2015-05-18T13:56:20Z</time>
      </trkpt>
      <trkpt lat="44.74408" lon="6.01919">
        <ele>1035.96</ele>
        <time>2015-05-18T13:56:43Z</time>
      </trkpt>
      <trkpt lat="44.74409" lon="6.0192">
        <ele>1042.21</ele>
        <time>2015-05-18T13:56:44Z</time>
      </trkpt>
      <trkpt lat="44.74408" lon="6.01923">
        <ele>1038.84</ele>
        <time>2015-05-18T13:56:47Z</time>
      </trkpt>
      <trkpt lat="44.74408" lon="6.01924">
        <ele>1042.21</ele>
        <time>2015-05-18T13:56:48Z</time>
      </trkpt>
      <trkpt lat="44.74407" lon="6.01928">
        <ele>1043.17</ele>
        <time>2015-05-18T13:56:54Z</time>
      </trkpt>
      <trkpt lat="44.74405" lon="6.01931">
        <ele>1045.57</ele>
        <time>2015-05-18T13:56:56Z</time>
      </trkpt>
      <trkpt lat="44.74404" lon="6.01934">
        <ele>1034.52</ele>
        <time>2015-05-18T13:56:58Z</time>
      </trkpt>
      <trkpt lat="44.74404" lon="6.01936">
        <ele>1043.17</ele>
        <time>2015-05-18T13:56:59Z</time>
      </trkpt>
      <trkpt lat="44.74403" lon="6.01942">
        <ele>1041.25</ele>
        <time>2015-05-18T13:57:03Z</time>
      </trkpt>
      <trkpt lat="44.74403" lon="6.01945">
        <ele>1045.57</ele>
        <time>2015-05-18T13:57:05Z</time>
      </trkpt>
      <trkpt lat="44.74402" lon="6.01946">
        <ele>1046.05</ele>
        <time>2015-05-18T13:57:06Z</time>
      </trkpt>
      <trkpt lat="44.74403" lon="6.01951">
        <ele>1041.73</ele>
        <time>2015-05-18T13:57:09Z</time>
      </trkpt>
      <trkpt lat="44.74403" lon="6.01952">
        <ele>1043.17</ele>
        <time>2015-05-18T13:57:10Z</time>
      </trkpt>
      <trkpt lat="44.74401" lon="6.01959">
        <ele>1046.53</ele>
        <time>2015-05-18T13:57:14Z</time>
      </trkpt>
      <trkpt lat="44.744" lon="6.0196">
        <ele>1045.09</ele>
        <time>2015-05-18T13:57:15Z</time>
      </trkpt>
      <trkpt lat="44.74398" lon="6.01962">
        <ele>1043.65</ele>
        <time>2015-05-18T13:57:18Z</time>
      </trkpt>
      <trkpt lat="44.74398" lon="6.01965">
        <ele>1048.45</ele>
        <time>2015-05-18T13:57:20Z</time>
      </trkpt>
      <trkpt lat="44.74397" lon="6.01966">
        <ele>1047.97</ele>
        <time>2015-05-18T13:57:21Z</time>
      </trkpt>
      <trkpt lat="44.74396" lon="6.01968">
        <ele>1044.13</ele>
        <time>2015-05-18T13:57:23Z</time>
      </trkpt>
      <trkpt lat="44.74393" lon="6.01972">
        <ele>1046.05</ele>
        <time>2015-05-18T13:57:27Z</time>
      </trkpt>
      <trkpt lat="44.74392" lon="6.01974">
        <ele>1045.57</ele>
        <time>2015-05-18T13:57:29Z</time>
      </trkpt>
      <trkpt lat="44.74387" lon="6.01981">
        <ele>1047.01</ele>
        <time>2015-05-18T13:57:35Z</time>
      </trkpt>
      <trkpt lat="44.74384" lon="6.01984">
        <ele>1041.25</ele>
        <time>2015-05-18T13:57:38Z</time>
      </trkpt>
      <trkpt lat="44.74383" lon="6.01985">
        <ele>1044.61</ele>
        <time>2015-05-18T13:57:39Z</time>
      </trkpt>
      <trkpt lat="44.74378" lon="6.01989">
        <ele>1041.73</ele>
        <time>2015-05-18T13:57:44Z</time>
      </trkpt>
      <trkpt lat="44.74378" lon="6.01989">
        <ele>1043.65</ele>
        <time>2015-05-18T13:57:45Z</time>
      </trkpt>
      <trkpt lat="44.74373" lon="6.01993">
        <ele>1047.49</ele>
        <time>2015-05-18T13:57:51Z</time>
      </trkpt>
      <trkpt lat="44.74371" lon="6.01994">
        <ele>1049.42</ele>
        <time>2015-05-18T13:57:53Z</time>
      </trkpt>
      <trkpt lat="44.74369" lon="6.01995">
        <ele>1047.49</ele>
        <time>2015-05-18T13:57:55Z</time>
      </trkpt>
      <trkpt lat="44.74363" lon="6.02">
        <ele>1049.9</ele>
        <time>2015-05-18T13:58:03Z</time>
      </trkpt>
      <trkpt lat="44.7436" lon="6.02003">
        <ele>1044.13</ele>
        <time>2015-05-18T13:58:06Z</time>
      </trkpt>
      <trkpt lat="44.74358" lon="6.02003">
        <ele>1043.17</ele>
        <time>2015-05-18T13:58:08Z</time>
      </trkpt>
      <trkpt lat="44.74356" lon="6.02005">
        <ele>1047.97</ele>
        <time>2015-05-18T13:58:11Z</time>
      </trkpt>
      <trkpt lat="44.74356" lon="6.02005">
        <ele>1047.49</ele>
        <time>2015-05-18T13:58:12Z</time>
      </trkpt>
      <trkpt lat="44.74351" lon="6.02009">
        <ele>1051.34</ele>
        <time>2015-05-18T13:58:16Z</time>
      </trkpt>
      <trkpt lat="44.74351" lon="6.0201">
        <ele>1050.38</ele>
        <time>2015-05-18T13:58:17Z</time>
      </trkpt>
      <trkpt lat="44.74345" lon="6.02016">
        <ele>1046.05</ele>
        <time>2015-05-18T13:58:24Z</time>
      </trkpt>
      <trkpt lat="44.74343" lon="6.02017">
        <ele>1049.42</ele>
        <time>2015-05-18T13:58:26Z</time>
      </trkpt>
      <trkpt lat="44.74341" lon="6.02019">
        <ele>1050.86</ele>
        <time>2015-05-18T13:58:28Z</time>
      </trkpt>
      <trkpt lat="44.74339" lon="6.0202">
        <ele>1045.57</ele>
        <time>2015-05-18T13:58:30Z</time>
      </trkpt>
      <trkpt lat="44.74339" lon="6.0202">
        <ele>1045.57</ele>
        <time>2015-05-18T13:58:31Z</time>
      </trkpt>
      <trkpt lat="44.74338" lon="6.02021">
        <ele>1050.38</ele>
        <time>2015-05-18T13:58:32Z</time>
      </trkpt>
      <trkpt lat="44.74337" lon="6.02022">
        <ele>1051.34</ele>
        <time>2015-05-18T13:58:34Z</time>
      </trkpt>
      <trkpt lat="44.74332" lon="6.02027">
        <ele>1050.86</ele>
        <time>2015-05-18T13:58:40Z</time>
      </trkpt>
      <trkpt lat="44.74328" lon="6.02031">
        <ele>1054.22</ele>
        <time>2015-05-18T13:58:44Z</time>
      </trkpt>
      <trkpt lat="44.74327" lon="6.02032">
        <ele>1050.38</ele>
        <time>2015-05-18T13:58:45Z</time>
      </trkpt>
      <trkpt lat="44.74323" lon="6.02036">
        <ele>1050.86</ele>
        <time>2015-05-18T13:58:50Z</time>
      </trkpt>
      <trkpt lat="44.74323" lon="6.02037">
        <ele>1047.01</ele>
        <time>2015-05-18T13:58:51Z</time>
      </trkpt>
      <trkpt lat="44.74322" lon="6.02038">
        <ele>1048.45</ele>
        <time>2015-05-18T13:58:52Z</time>
      </trkpt>
      <trkpt lat="44.74321" lon="6.02039">
        <ele>1052.78</ele>
        <time>2015-05-18T13:58:55Z</time>
      </trkpt>
      <trkpt lat="44.74319" lon="6.02041">
        <ele>1048.94</ele>
        <time>2015-05-18T13:58:58Z</time>
      </trkpt>
      <trkpt lat="44.74318" lon="6.02042">
        <ele>1052.78</ele>
        <time>2015-05-18T13:58:59Z</time>
      </trkpt>
      <trkpt lat="44.74317" lon="6.02044">
        <ele>1053.74</ele>
        <time>2015-05-18T13:59:01Z</time>
      </trkpt>
      <trkpt lat="44.74316" lon="6.02046">
        <ele>1051.34</ele>
        <time>2015-05-18T13:59:03Z</time>
      </trkpt>
      <trkpt lat="44.74315" lon="6.02047">
        <ele>1055.67</ele>
        <time>2015-05-18T13:59:05Z</time>
      </trkpt>
      <trkpt lat="44.74314" lon="6.02048">
        <ele>1054.7</ele>
        <time>2015-05-18T13:59:06Z</time>
      </trkpt>
      <trkpt lat="44.74313" lon="6.02049">
        <ele>1051.34</ele>
        <time>2015-05-18T13:59:08Z</time>
      </trkpt>
      <trkpt lat="44.74313" lon="6.02049">
        <ele>1054.7</ele>
        <time>2015-05-18T13:59:09Z</time>
      </trkpt>
      <trkpt lat="44.74307" lon="6.02054">
        <ele>1056.15</ele>
        <time>2015-05-18T13:59:15Z</time>
      </trkpt>
      <trkpt lat="44.74303" lon="6.02061">
        <ele>1051.34</ele>
        <time>2015-05-18T13:59:21Z</time>
      </trkpt>
      <trkpt lat="44.74303" lon="6.02062">
        <ele>1051.82</ele>
        <time>2015-05-18T13:59:22Z</time>
      </trkpt>
      <trkpt lat="44.74302" lon="6.02064">
        <ele>1056.15</ele>
        <time>2015-05-18T13:59:24Z</time>
      </trkpt>
      <trkpt lat="44.743" lon="6.02067">
        <ele>1060.47</ele>
        <time>2015-05-18T13:59:26Z</time>
      </trkpt>
      <trkpt lat="44.743" lon="6.02069">
        <ele>1059.51</ele>
        <time>2015-05-18T13:59:27Z</time>
      </trkpt>
      <trkpt lat="44.743" lon="6.02069">
        <ele>1050.86</ele>
        <time>2015-05-18T13:59:28Z</time>
      </trkpt>
      <trkpt lat="44.743" lon="6.02069">
        <ele>1052.3</ele>
        <time>2015-05-18T13:59:29Z</time>
      </trkpt>
      <trkpt lat="44.743" lon="6.0207">
        <ele>1057.11</ele>
        <time>2015-05-18T13:59:30Z</time>
      </trkpt>
      <trkpt lat="44.74299" lon="6.02072">
        <ele>1060.47</ele>
        <time>2015-05-18T13:59:31Z</time>
      </trkpt>
      <trkpt lat="44.74298" lon="6.02076">
        <ele>1057.59</ele>
        <time>2015-05-18T13:59:35Z</time>
      </trkpt>
      <trkpt lat="44.74295" lon="6.02082">
        <ele>1059.03</ele>
        <time>2015-05-18T13:59:39Z</time>
      </trkpt>
      <trkpt lat="44.74291" lon="6.02098">
        <ele>1059.51</ele>
        <time>2015-05-18T13:59:51Z</time>
      </trkpt>
      <trkpt lat="44.7429" lon="6.02102">
        <ele>1059.03</ele>
        <time>2015-05-18T13:59:55Z</time>
      </trkpt>
      <trkpt lat="44.74289" lon="6.02104">
        <ele>1060.95</ele>
        <time>2015-05-18T13:59:57Z</time>
      </trkpt>
      <trkpt lat="44.74288" lon="6.02105">
        <ele>1057.11</ele>
        <time>2015-05-18T13:59:58Z</time>
      </trkpt>
      <trkpt lat="44.74287" lon="6.02107">
        <ele>1060.95</ele>
        <time>2015-05-18T14:00:01Z</time>
      </trkpt>
      <trkpt lat="44.74285" lon="6.0211">
        <ele>1055.67</ele>
        <time>2015-05-18T14:00:03Z</time>
      </trkpt>
      <trkpt lat="44.74285" lon="6.02112">
        <ele>1059.03</ele>
        <time>2015-05-18T14:00:06Z</time>
      </trkpt>
      <trkpt lat="44.74285" lon="6.02112">
        <ele>1061.91</ele>
        <time>2015-05-18T14:00:07Z</time>
      </trkpt>
      <trkpt lat="44.74284" lon="6.02114">
        <ele>1060.95</ele>
        <time>2015-05-18T14:00:08Z</time>
      </trkpt>
      <trkpt lat="44.74283" lon="6.02115">
        <ele>1055.18</ele>
        <time>2015-05-18T14:00:09Z</time>
      </trkpt>
      <trkpt lat="44.74283" lon="6.02116">
        <ele>1055.67</ele>
        <time>2015-05-18T14:00:10Z</time>
      </trkpt>
      <trkpt lat="44.74283" lon="6.02116">
        <ele>1059.03</ele>
        <time>2015-05-18T14:00:11Z</time>
      </trkpt>
      <trkpt lat="44.74281" lon="6.02122">
        <ele>1061.91</ele>
        <time>2015-05-18T14:00:17Z</time>
      </trkpt>
      <trkpt lat="44.7428" lon="6.02129">
        <ele>1060.47</ele>
        <time>2015-05-18T14:00:21Z</time>
      </trkpt>
      <trkpt lat="44.74279" lon="6.0213">
        <ele>1063.36</ele>
        <time>2015-05-18T14:00:23Z</time>
      </trkpt>
      <trkpt lat="44.74278" lon="6.02134">
        <ele>1059.51</ele>
        <time>2015-05-18T14:00:26Z</time>
      </trkpt>
      <trkpt lat="44.74278" lon="6.02135">
        <ele>1061.43</ele>
        <time>2015-05-18T14:00:27Z</time>
      </trkpt>
      <trkpt lat="44.74277" lon="6.02138">
        <ele>1063.36</ele>
        <time>2015-05-18T14:00:29Z</time>
      </trkpt>
      <trkpt lat="44.74272" lon="6.02145">
        <ele>1059.03</ele>
        <time>2015-05-18T14:00:34Z</time>
      </trkpt>
      <trkpt lat="44.7427" lon="6.02149">
        <ele>1064.32</ele>
        <time>2015-05-18T14:00:37Z</time>
      </trkpt>
      <trkpt lat="44.7427" lon="6.02151">
        <ele>1064.32</ele>
        <time>2015-05-18T14:00:38Z</time>
      </trkpt>
      <trkpt lat="44.74269" lon="6.02154">
        <ele>1059.99</ele>
        <time>2015-05-18T14:00:41Z</time>
      </trkpt>
      <trkpt lat="44.74268" lon="6.02157">
        <ele>1064.8</ele>
        <time>2015-05-18T14:00:43Z</time>
      </trkpt>
      <trkpt lat="44.74267" lon="6.02162">
        <ele>1060.95</ele>
        <time>2015-05-18T14:00:46Z</time>
      </trkpt>
      <trkpt lat="44.74267" lon="6.02163">
        <ele>1061.91</ele>
        <time>2015-05-18T14:00:47Z</time>
      </trkpt>
      <trkpt lat="44.74263" lon="6.02178">
        <ele>1061.91</ele>
        <time>2015-05-18T14:00:59Z</time>
      </trkpt>
      <trkpt lat="44.74262" lon="6.02179">
        <ele>1061.91</ele>
        <time>2015-05-18T14:01:00Z</time>
      </trkpt>
      <trkpt lat="44.7426" lon="6.02185">
        <ele>1065.76</ele>
        <time>2015-05-18T14:01:05Z</time>
      </trkpt>
      <trkpt lat="44.7426" lon="6.02188">
        <ele>1059.51</ele>
        <time>2015-05-18T14:01:07Z</time>
      </trkpt>
      <trkpt lat="44.7426" lon="6.02188">
        <ele>1059.99</ele>
        <time>2015-05-18T14:01:08Z</time>
      </trkpt>
      <trkpt lat="44.7426" lon="6.02188">
        <ele>1063.36</ele>
        <time>2015-05-18T14:01:10Z</time>
      </trkpt>
      <trkpt lat="44.74257" lon="6.02193">
        <ele>1064.8</ele>
        <time>2015-05-18T14:01:13Z</time>
      </trkpt>
      <trkpt lat="44.74254" lon="6.02202">
        <ele>1063.36</ele>
        <time>2015-05-18T14:01:19Z</time>
      </trkpt>
      <trkpt lat="44.74252" lon="6.0221">
        <ele>1064.8</ele>
        <time>2015-05-18T14:01:26Z</time>
      </trkpt>
      <trkpt lat="44.7425" lon="6.02217">
        <ele>1060.95</ele>
        <time>2015-05-18T14:01:30Z</time>
      </trkpt>
      <trkpt lat="44.7425" lon="6.02218">
        <ele>1061.91</ele>
        <time>2015-05-18T14:01:31Z</time>
      </trkpt>
      <trkpt lat="44.74248" lon="6.02226">
        <ele>1064.32</ele>
        <time>2015-05-18T14:01:36Z</time>
      </trkpt>
      <trkpt lat="44.74248" lon="6.0223">
        <ele>1063.84</ele>
        <time>2015-05-18T14:01:40Z</time>
      </trkpt>
      <trkpt lat="44.74247" lon="6.02246">
        <ele>1061.43</ele>
        <time>2015-05-18T14:01:50Z</time>
      </trkpt>
      <trkpt lat="44.74249" lon="6.02253">
        <ele>1061.43</ele>
        <time>2015-05-18T14:01:58Z</time>
      </trkpt>
      <trkpt lat="44.74249" lon="6.02255">
        <ele>1061.91</ele>
        <time>2015-05-18T14:02:00Z</time>
      </trkpt>
      <trkpt lat="44.74247" lon="6.02273">
        <ele>1064.32</ele>
        <time>2015-05-18T14:02:13Z</time>
      </trkpt>
      <trkpt lat="44.74246" lon="6.02287">
        <ele>1059.51</ele>
        <time>2015-05-18T14:02:22Z</time>
      </trkpt>
      <trkpt lat="44.74245" lon="6.02291">
        <ele>1061.43</ele>
        <time>2015-05-18T14:02:25Z</time>
      </trkpt>
      <trkpt lat="44.74245" lon="6.02292">
        <ele>1059.99</ele>
        <time>2015-05-18T14:02:26Z</time>
      </trkpt>
      <trkpt lat="44.74244" lon="6.02295">
        <ele>1062.39</ele>
        <time>2015-05-18T14:02:28Z</time>
      </trkpt>
      <trkpt lat="44.74244" lon="6.02297">
        <ele>1063.84</ele>
        <time>2015-05-18T14:02:29Z</time>
      </trkpt>
      <trkpt lat="44.7424" lon="6.02327">
        <ele>1061.43</ele>
        <time>2015-05-18T14:02:42Z</time>
      </trkpt>
      <trkpt lat="44.74241" lon="6.02331">
        <ele>1059.99</ele>
        <time>2015-05-18T14:02:44Z</time>
      </trkpt>
      <trkpt lat="44.74241" lon="6.02337">
        <ele>1063.36</ele>
        <time>2015-05-18T14:02:49Z</time>
      </trkpt>
      <trkpt lat="44.7424" lon="6.02348">
        <ele>1059.51</ele>
        <time>2015-05-18T14:02:56Z</time>
      </trkpt>
      <trkpt lat="44.74238" lon="6.02353">
        <ele>1062.87</ele>
        <time>2015-05-18T14:03:02Z</time>
      </trkpt>
      <trkpt lat="44.74235" lon="6.02365">
        <ele>1061.91</ele>
        <time>2015-05-18T14:03:10Z</time>
      </trkpt>
      <trkpt lat="44.74233" lon="6.02377">
        <ele>1062.87</ele>
        <time>2015-05-18T14:03:17Z</time>
      </trkpt>
      <trkpt lat="44.74232" lon="6.02381">
        <ele>1060.47</ele>
        <time>2015-05-18T14:03:20Z</time>
      </trkpt>
      <trkpt lat="44.74229" lon="6.02388">
        <ele>1063.84</ele>
        <time>2015-05-18T14:03:25Z</time>
      </trkpt>
      <trkpt lat="44.74228" lon="6.02393">
        <ele>1060.47</ele>
        <time>2015-05-18T14:03:29Z</time>
      </trkpt>
      <trkpt lat="44.74227" lon="6.02395">
        <ele>1063.84</ele>
        <time>2015-05-18T14:03:31Z</time>
      </trkpt>
      <trkpt lat="44.74226" lon="6.02398">
        <ele>1062.87</ele>
        <time>2015-05-18T14:03:48Z</time>
      </trkpt>
      <trkpt lat="44.74228" lon="6.024">
        <ele>1058.55</ele>
        <time>2015-05-18T14:04:07Z</time>
      </trkpt>
      <trkpt lat="44.74228" lon="6.024">
        <ele>1063.84</ele>
        <time>2015-05-18T14:04:08Z</time>
      </trkpt>
      <trkpt lat="44.74228" lon="6.024">
        <ele>1062.87</ele>
        <time>2015-05-18T14:04:28Z</time>
      </trkpt>
      <trkpt lat="44.74227" lon="6.02394">
        <ele>1062.39</ele>
        <time>2015-05-18T14:04:43Z</time>
      </trkpt>
      <trkpt lat="44.74227" lon="6.02394">
        <ele>1063.36</ele>
        <time>2015-05-18T14:05:04Z</time>
      </trkpt>
      <trkpt lat="44.74225" lon="6.02406">
        <ele>1063.36</ele>
        <time>2015-05-18T14:05:16Z</time>
      </trkpt>
      <trkpt lat="44.74224" lon="6.02409">
        <ele>1065.28</ele>
        <time>2015-05-18T14:05:19Z</time>
      </trkpt>
      <trkpt lat="44.74224" lon="6.0241">
        <ele>1062.39</ele>
        <time>2015-05-18T14:05:20Z</time>
      </trkpt>
      <trkpt lat="44.74224" lon="6.02411">
        <ele>1063.84</ele>
        <time>2015-05-18T14:05:21Z</time>
      </trkpt>
      <trkpt lat="44.74223" lon="6.02416">
        <ele>1064.32</ele>
        <time>2015-05-18T14:05:34Z</time>
      </trkpt>
      <trkpt lat="44.74223" lon="6.02416">
        <ele>1060.47</ele>
        <time>2015-05-18T14:05:41Z</time>
      </trkpt>
      <trkpt lat="44.74223" lon="6.0242">
        <ele>1061.43</ele>
        <time>2015-05-18T14:05:44Z</time>
      </trkpt>
      <trkpt lat="44.74224" lon="6.02424">
        <ele>1061.91</ele>
        <time>2015-05-18T14:05:47Z</time>
      </trkpt>
      <trkpt lat="44.74225" lon="6.02429">
        <ele>1065.28</ele>
        <time>2015-05-18T14:05:50Z</time>
      </trkpt>
      <trkpt lat="44.74222" lon="6.02443">
        <ele>1064.32</ele>
        <time>2015-05-18T14:05:57Z</time>
      </trkpt>
      <trkpt lat="44.74224" lon="6.02446">
        <ele>1063.84</ele>
        <time>2015-05-18T14:05:59Z</time>
      </trkpt>
      <trkpt lat="44.74227" lon="6.02465">
        <ele>1065.76</ele>
        <time>2015-05-18T14:06:12Z</time>
      </trkpt>
      <trkpt lat="44.74229" lon="6.02469">
        <ele>1063.84</ele>
        <time>2015-05-18T14:06:15Z</time>
      </trkpt>
      <trkpt lat="44.7423" lon="6.02473">
        <ele>1067.68</ele>
        <time>2015-05-18T14:06:18Z</time>
      </trkpt>
      <trkpt lat="44.74231" lon="6.02477">
        <ele>1068.64</ele>
        <time>2015-05-18T14:06:20Z</time>
      </trkpt>
      <trkpt lat="44.74232" lon="6.0248">
        <ele>1067.2</ele>
        <time>2015-05-18T14:06:23Z</time>
      </trkpt>
      <trkpt lat="44.74235" lon="6.02501">
        <ele>1065.76</ele>
        <time>2015-05-18T14:06:37Z</time>
      </trkpt>
      <trkpt lat="44.74236" lon="6.02502">
        <ele>1065.28</ele>
        <time>2015-05-18T14:06:38Z</time>
      </trkpt>
      <trkpt lat="44.74237" lon="6.02509">
        <ele>1068.64</ele>
        <time>2015-05-18T14:06:43Z</time>
      </trkpt>
      <trkpt lat="44.74237" lon="6.02513">
        <ele>1067.2</ele>
        <time>2015-05-18T14:06:46Z</time>
      </trkpt>
      <trkpt lat="44.74238" lon="6.02516">
        <ele>1070.08</ele>
        <time>2015-05-18T14:06:49Z</time>
      </trkpt>
      <trkpt lat="44.74238" lon="6.02517">
        <ele>1070.08</ele>
        <time>2015-05-18T14:06:50Z</time>
      </trkpt>
      <trkpt lat="44.74238" lon="6.02535">
        <ele>1067.68</ele>
        <time>2015-05-18T14:07:02Z</time>
      </trkpt>
      <trkpt lat="44.7424" lon="6.02537">
        <ele>1069.6</ele>
        <time>2015-05-18T14:07:05Z</time>
      </trkpt>
      <trkpt lat="44.7424" lon="6.02539">
        <ele>1070.57</ele>
        <time>2015-05-18T14:07:07Z</time>
      </trkpt>
      <trkpt lat="44.7424" lon="6.02555">
        <ele>1066.72</ele>
        <time>2015-05-18T14:07:18Z</time>
      </trkpt>
      <trkpt lat="44.74241" lon="6.02564">
        <ele>1071.53</ele>
        <time>2015-05-18T14:07:24Z</time>
      </trkpt>
      <trkpt lat="44.74241" lon="6.02576">
        <ele>1072.97</ele>
        <time>2015-05-18T14:07:31Z</time>
      </trkpt>
      <trkpt lat="44.7424" lon="6.02579">
        <ele>1072.49</ele>
        <time>2015-05-18T14:07:33Z</time>
      </trkpt>
      <trkpt lat="44.74238" lon="6.02591">
        <ele>1072.97</ele>
        <time>2015-05-18T14:07:42Z</time>
      </trkpt>
      <trkpt lat="44.74238" lon="6.026">
        <ele>1072.97</ele>
        <time>2015-05-18T14:07:46Z</time>
      </trkpt>
      <trkpt lat="44.74236" lon="6.02619">
        <ele>1072.01</ele>
        <time>2015-05-18T14:07:58Z</time>
      </trkpt>
      <trkpt lat="44.74236" lon="6.02625">
        <ele>1072.97</ele>
        <time>2015-05-18T14:08:01Z</time>
      </trkpt>
      <trkpt lat="44.74236" lon="6.02629">
        <ele>1072.49</ele>
        <time>2015-05-18T14:08:04Z</time>
      </trkpt>
      <trkpt lat="44.74237" lon="6.02633">
        <ele>1072.01</ele>
        <time>2015-05-18T14:08:08Z</time>
      </trkpt>
      <trkpt lat="44.74241" lon="6.02657">
        <ele>1074.41</ele>
        <time>2015-05-18T14:08:21Z</time>
      </trkpt>
      <trkpt lat="44.7424" lon="6.02668">
        <ele>1073.45</ele>
        <time>2015-05-18T14:08:30Z</time>
      </trkpt>
      <trkpt lat="44.7424" lon="6.02672">
        <ele>1074.41</ele>
        <time>2015-05-18T14:08:32Z</time>
      </trkpt>
      <trkpt lat="44.74241" lon="6.02688">
        <ele>1074.41</ele>
        <time>2015-05-18T14:08:42Z</time>
      </trkpt>
      <trkpt lat="44.7424" lon="6.02696">
        <ele>1073.93</ele>
        <time>2015-05-18T14:08:48Z</time>
      </trkpt>
      <trkpt lat="44.74241" lon="6.02702">
        <ele>1074.89</ele>
        <time>2015-05-18T14:08:52Z</time>
      </trkpt>
      <trkpt lat="44.74241" lon="6.02705">
        <ele>1076.81</ele>
        <time>2015-05-18T14:08:54Z</time>
      </trkpt>
      <trkpt lat="44.7424" lon="6.02711">
        <ele>1077.29</ele>
        <time>2015-05-18T14:08:56Z</time>
      </trkpt>
      <trkpt lat="44.7424" lon="6.02714">
        <ele>1075.85</ele>
        <time>2015-05-18T14:08:59Z</time>
      </trkpt>
      <trkpt lat="44.74242" lon="6.02715">
        <ele>1075.85</ele>
        <time>2015-05-18T14:09:00Z</time>
      </trkpt>
      <trkpt lat="44.74243" lon="6.02717">
        <ele>1074.89</ele>
        <time>2015-05-18T14:09:02Z</time>
      </trkpt>
      <trkpt lat="44.74243" lon="6.02729">
        <ele>1072.01</ele>
        <time>2015-05-18T14:09:09Z</time>
      </trkpt>
      <trkpt lat="44.74245" lon="6.02732">
        <ele>1074.89</ele>
        <time>2015-05-18T14:09:12Z</time>
      </trkpt>
      <trkpt lat="44.74247" lon="6.02737">
        <ele>1073.93</ele>
        <time>2015-05-18T14:09:15Z</time>
      </trkpt>
      <trkpt lat="44.74251" lon="6.02743">
        <ele>1072.97</ele>
        <time>2015-05-18T14:09:20Z</time>
      </trkpt>
      <trkpt lat="44.7425" lon="6.02744">
        <ele>1076.33</ele>
        <time>2015-05-18T14:09:23Z</time>
      </trkpt>
      <trkpt lat="44.7425" lon="6.02748">
        <ele>1078.26</ele>
        <time>2015-05-18T14:09:26Z</time>
      </trkpt>
      <trkpt lat="44.74251" lon="6.02749">
        <ele>1076.81</ele>
        <time>2015-05-18T14:09:28Z</time>
      </trkpt>
      <trkpt lat="44.74256" lon="6.0276">
        <ele>1073.93</ele>
        <time>2015-05-18T14:09:36Z</time>
      </trkpt>
      <trkpt lat="44.74256" lon="6.02761">
        <ele>1073.93</ele>
        <time>2015-05-18T14:09:37Z</time>
      </trkpt>
      <trkpt lat="44.74257" lon="6.02762">
        <ele>1076.81</ele>
        <time>2015-05-18T14:09:38Z</time>
      </trkpt>
      <trkpt lat="44.74258" lon="6.02764">
        <ele>1076.81</ele>
        <time>2015-05-18T14:09:39Z</time>
      </trkpt>
      <trkpt lat="44.7426" lon="6.02771">
        <ele>1075.85</ele>
        <time>2015-05-18T14:09:45Z</time>
      </trkpt>
      <trkpt lat="44.74262" lon="6.02775">
        <ele>1078.26</ele>
        <time>2015-05-18T14:09:48Z</time>
      </trkpt>
      <trkpt lat="44.74271" lon="6.02791">
        <ele>1078.74</ele>
        <time>2015-05-18T14:10:01Z</time>
      </trkpt>
      <trkpt lat="44.74275" lon="6.02799">
        <ele>1081.14</ele>
        <time>2015-05-18T14:10:07Z</time>
      </trkpt>
      <trkpt lat="44.74276" lon="6.02802">
        <ele>1080.66</ele>
        <time>2015-05-18T14:10:09Z</time>
      </trkpt>
      <trkpt lat="44.74279" lon="6.02805">
        <ele>1080.18</ele>
        <time>2015-05-18T14:10:13Z</time>
      </trkpt>
      <trkpt lat="44.7428" lon="6.02808">
        <ele>1079.22</ele>
        <time>2015-05-18T14:10:15Z</time>
      </trkpt>
      <trkpt lat="44.74282" lon="6.02814">
        <ele>1077.78</ele>
        <time>2015-05-18T14:10:18Z</time>
      </trkpt>
      <trkpt lat="44.74284" lon="6.02817">
        <ele>1080.18</ele>
        <time>2015-05-18T14:10:22Z</time>
      </trkpt>
      <trkpt lat="44.74285" lon="6.0282">
        <ele>1079.7</ele>
        <time>2015-05-18T14:10:24Z</time>
      </trkpt>
      <trkpt lat="44.74289" lon="6.02824">
        <ele>1081.14</ele>
        <time>2015-05-18T14:10:27Z</time>
      </trkpt>
      <trkpt lat="44.74293" lon="6.02835">
        <ele>1083.06</ele>
        <time>2015-05-18T14:10:35Z</time>
      </trkpt>
      <trkpt lat="44.74299" lon="6.02848">
        <ele>1081.14</ele>
        <time>2015-05-18T14:10:45Z</time>
      </trkpt>
      <trkpt lat="44.743" lon="6.02853">
        <ele>1081.14</ele>
        <time>2015-05-18T14:10:51Z</time>
      </trkpt>
      <trkpt lat="44.74305" lon="6.02867">
        <ele>1083.06</ele>
        <time>2015-05-18T14:11:01Z</time>
      </trkpt>
      <trkpt lat="44.74305" lon="6.02871">
        <ele>1084.99</ele>
        <time>2015-05-18T14:11:03Z</time>
      </trkpt>
      <trkpt lat="44.74305" lon="6.0288">
        <ele>1084.02</ele>
        <time>2015-05-18T14:11:08Z</time>
      </trkpt>
      <trkpt lat="44.74306" lon="6.0288">
        <ele>1084.02</ele>
        <time>2015-05-18T14:11:09Z</time>
      </trkpt>
      <trkpt lat="44.74307" lon="6.02889">
        <ele>1086.43</ele>
        <time>2015-05-18T14:11:14Z</time>
      </trkpt>
      <trkpt lat="44.74308" lon="6.02891">
        <ele>1086.91</ele>
        <time>2015-05-18T14:11:15Z</time>
      </trkpt>
      <trkpt lat="44.74307" lon="6.02896">
        <ele>1083.54</ele>
        <time>2015-05-18T14:11:20Z</time>
      </trkpt>
      <trkpt lat="44.74308" lon="6.02897">
        <ele>1083.54</ele>
        <time>2015-05-18T14:11:21Z</time>
      </trkpt>
      <trkpt lat="44.7431" lon="6.02903">
        <ele>1085.47</ele>
        <time>2015-05-18T14:11:25Z</time>
      </trkpt>
      <trkpt lat="44.74312" lon="6.02913">
        <ele>1084.02</ele>
        <time>2015-05-18T14:11:32Z</time>
      </trkpt>
      <trkpt lat="44.74313" lon="6.02914">
        <ele>1084.5</ele>
        <time>2015-05-18T14:11:33Z</time>
      </trkpt>
      <trkpt lat="44.74314" lon="6.02919">
        <ele>1085.95</ele>
        <time>2015-05-18T14:11:36Z</time>
      </trkpt>
      <trkpt lat="44.74311" lon="6.02929">
        <ele>1084.99</ele>
        <time>2015-05-18T14:11:41Z</time>
      </trkpt>
      <trkpt lat="44.74312" lon="6.02932">
        <ele>1084.5</ele>
        <time>2015-05-18T14:11:44Z</time>
      </trkpt>
      <trkpt lat="44.74315" lon="6.02942">
        <ele>1084.5</ele>
        <time>2015-05-18T14:11:50Z</time>
      </trkpt>
      <trkpt lat="44.74315" lon="6.02948">
        <ele>1083.54</ele>
        <time>2015-05-18T14:11:53Z</time>
      </trkpt>
      <trkpt lat="44.74317" lon="6.02952">
        <ele>1085.95</ele>
        <time>2015-05-18T14:11:58Z</time>
      </trkpt>
      <trkpt lat="44.74318" lon="6.02964">
        <ele>1084.5</ele>
        <time>2015-05-18T14:12:04Z</time>
      </trkpt>
      <trkpt lat="44.7432" lon="6.02971">
        <ele>1086.43</ele>
        <time>2015-05-18T14:12:09Z</time>
      </trkpt>
      <trkpt lat="44.7432" lon="6.02983">
        <ele>1084.5</ele>
        <time>2015-05-18T14:12:15Z</time>
      </trkpt>
      <trkpt lat="44.74324" lon="6.02989">
        <ele>1086.91</ele>
        <time>2015-05-18T14:12:21Z</time>
      </trkpt>
      <trkpt lat="44.74328" lon="6.03006">
        <ele>1086.91</ele>
        <time>2015-05-18T14:12:32Z</time>
      </trkpt>
      <trkpt lat="44.74327" lon="6.03005">
        <ele>1084.99</ele>
        <time>2015-05-18T14:12:34Z</time>
      </trkpt>
      <trkpt lat="44.74328" lon="6.03011">
        <ele>1087.87</ele>
        <time>2015-05-18T14:12:38Z</time>
      </trkpt>
      <trkpt lat="44.74328" lon="6.03014">
        <ele>1087.87</ele>
        <time>2015-05-18T14:12:40Z</time>
      </trkpt>
      <trkpt lat="44.74327" lon="6.03018">
        <ele>1086.43</ele>
        <time>2015-05-18T14:12:43Z</time>
      </trkpt>
      <trkpt lat="44.74327" lon="6.03019">
        <ele>1087.39</ele>
        <time>2015-05-18T14:12:44Z</time>
      </trkpt>
      <trkpt lat="44.74332" lon="6.03035">
        <ele>1087.87</ele>
        <time>2015-05-18T14:12:55Z</time>
      </trkpt>
      <trkpt lat="44.74336" lon="6.03042">
        <ele>1088.35</ele>
        <time>2015-05-18T14:13:07Z</time>
      </trkpt>
      <trkpt lat="44.74337" lon="6.03046">
        <ele>1087.39</ele>
        <time>2015-05-18T14:13:09Z</time>
      </trkpt>
      <trkpt lat="44.74337" lon="6.0305">
        <ele>1087.39</ele>
        <time>2015-05-18T14:13:13Z</time>
      </trkpt>
      <trkpt lat="44.74339" lon="6.03057">
        <ele>1087.87</ele>
        <time>2015-05-18T14:13:17Z</time>
      </trkpt>
      <trkpt lat="44.74341" lon="6.03063">
        <ele>1088.83</ele>
        <time>2015-05-18T14:13:20Z</time>
      </trkpt>
      <trkpt lat="44.74344" lon="6.03069">
        <ele>1086.91</ele>
        <time>2015-05-18T14:13:26Z</time>
      </trkpt>
      <trkpt lat="44.74346" lon="6.03071">
        <ele>1087.87</ele>
        <time>2015-05-18T14:13:28Z</time>
      </trkpt>
      <trkpt lat="44.74348" lon="6.03074">
        <ele>1088.35</ele>
        <time>2015-05-18T14:13:30Z</time>
      </trkpt>
      <trkpt lat="44.74349" lon="6.03077">
        <ele>1089.79</ele>
        <time>2015-05-18T14:13:32Z</time>
      </trkpt>
      <trkpt lat="44.74354" lon="6.03089">
        <ele>1088.83</ele>
        <time>2015-05-18T14:13:42Z</time>
      </trkpt>
      <trkpt lat="44.74358" lon="6.03096">
        <ele>1089.31</ele>
        <time>2015-05-18T14:13:46Z</time>
      </trkpt>
      <trkpt lat="44.74361" lon="6.031">
        <ele>1088.83</ele>
        <time>2015-05-18T14:13:51Z</time>
      </trkpt>
      <trkpt lat="44.74368" lon="6.03114">
        <ele>1089.31</ele>
        <time>2015-05-18T14:14:02Z</time>
      </trkpt>
      <trkpt lat="44.74376" lon="6.03128">
        <ele>1088.83</ele>
        <time>2015-05-18T14:14:13Z</time>
      </trkpt>
      <trkpt lat="44.74383" lon="6.03143">
        <ele>1090.27</ele>
        <time>2015-05-18T14:14:24Z</time>
      </trkpt>
      <trkpt lat="44.74387" lon="6.03153">
        <ele>1086.43</ele>
        <time>2015-05-18T14:14:32Z</time>
      </trkpt>
      <trkpt lat="44.74388" lon="6.03154">
        <ele>1086.43</ele>
        <time>2015-05-18T14:14:33Z</time>
      </trkpt>
      <trkpt lat="44.74389" lon="6.03156">
        <ele>1088.83</ele>
        <time>2015-05-18T14:14:35Z</time>
      </trkpt>
      <trkpt lat="44.74396" lon="6.03168">
        <ele>1088.35</ele>
        <time>2015-05-18T14:14:43Z</time>
      </trkpt>
      <trkpt lat="44.74402" lon="6.03178">
        <ele>1090.27</ele>
        <time>2015-05-18T14:14:52Z</time>
      </trkpt>
      <trkpt lat="44.74403" lon="6.03181">
        <ele>1090.75</ele>
        <time>2015-05-18T14:14:54Z</time>
      </trkpt>
      <trkpt lat="44.74405" lon="6.03185">
        <ele>1092.2</ele>
        <time>2015-05-18T14:14:57Z</time>
      </trkpt>
      <trkpt lat="44.74406" lon="6.03187">
        <ele>1092.68</ele>
        <time>2015-05-18T14:14:58Z</time>
      </trkpt>
      <trkpt lat="44.74409" lon="6.03192">
        <ele>1092.2</ele>
        <time>2015-05-18T14:15:04Z</time>
      </trkpt>
      <trkpt lat="44.74412" lon="6.032">
        <ele>1093.64</ele>
        <time>2015-05-18T14:15:08Z</time>
      </trkpt>
      <trkpt lat="44.74414" lon="6.03203">
        <ele>1092.68</ele>
        <time>2015-05-18T14:15:11Z</time>
      </trkpt>
      <trkpt lat="44.74417" lon="6.03208">
        <ele>1090.75</ele>
        <time>2015-05-18T14:15:16Z</time>
      </trkpt>
      <trkpt lat="44.74421" lon="6.03213">
        <ele>1090.75</ele>
        <time>2015-05-18T14:15:21Z</time>
      </trkpt>
      <trkpt lat="44.74422" lon="6.03217">
        <ele>1093.64</ele>
        <time>2015-05-18T14:15:24Z</time>
      </trkpt>
      <trkpt lat="44.74427" lon="6.03227">
        <ele>1093.16</ele>
        <time>2015-05-18T14:15:32Z</time>
      </trkpt>
      <trkpt lat="44.7443" lon="6.03234">
        <ele>1089.31</ele>
        <time>2015-05-18T14:15:40Z</time>
      </trkpt>
      <trkpt lat="44.74431" lon="6.03236">
        <ele>1092.68</ele>
        <time>2015-05-18T14:15:41Z</time>
      </trkpt>
      <trkpt lat="44.74437" lon="6.03244">
        <ele>1093.16</ele>
        <time>2015-05-18T14:15:49Z</time>
      </trkpt>
      <trkpt lat="44.7444" lon="6.03248">
        <ele>1095.08</ele>
        <time>2015-05-18T14:15:53Z</time>
      </trkpt>
      <trkpt lat="44.74442" lon="6.03249">
        <ele>1094.6</ele>
        <time>2015-05-18T14:15:54Z</time>
      </trkpt>
      <trkpt lat="44.74445" lon="6.03257">
        <ele>1095.56</ele>
        <time>2015-05-18T14:16:02Z</time>
      </trkpt>
      <trkpt lat="44.74453" lon="6.03263">
        <ele>1094.6</ele>
        <time>2015-05-18T14:16:10Z</time>
      </trkpt>
      <trkpt lat="44.74454" lon="6.03264">
        <ele>1096.04</ele>
        <time>2015-05-18T14:16:12Z</time>
      </trkpt>
      <trkpt lat="44.74463" lon="6.03267">
        <ele>1096.52</ele>
        <time>2015-05-18T14:16:17Z</time>
      </trkpt>
      <trkpt lat="44.74471" lon="6.03272">
        <ele>1095.56</ele>
        <time>2015-05-18T14:16:24Z</time>
      </trkpt>
      <trkpt lat="44.74482" lon="6.03279">
        <ele>1096.52</ele>
        <time>2015-05-18T14:16:35Z</time>
      </trkpt>
      <trkpt lat="44.74485" lon="6.0328">
        <ele>1096.52</ele>
        <time>2015-05-18T14:16:37Z</time>
      </trkpt>
      <trkpt lat="44.74487" lon="6.0328">
        <ele>1095.56</ele>
        <time>2015-05-18T14:16:39Z</time>
      </trkpt>
      <trkpt lat="44.74489" lon="6.03282">
        <ele>1095.08</ele>
        <time>2015-05-18T14:16:43Z</time>
      </trkpt>
      <trkpt lat="44.74497" lon="6.03286">
        <ele>1093.16</ele>
        <time>2015-05-18T14:16:48Z</time>
      </trkpt>
      <trkpt lat="44.74502" lon="6.03289">
        <ele>1096.04</ele>
        <time>2015-05-18T14:16:54Z</time>
      </trkpt>
      <trkpt lat="44.74504" lon="6.03291">
        <ele>1097</ele>
        <time>2015-05-18T14:16:56Z</time>
      </trkpt>
      <trkpt lat="44.74508" lon="6.03292">
        <ele>1097</ele>
        <time>2015-05-18T14:16:58Z</time>
      </trkpt>
      <trkpt lat="44.7451" lon="6.03295">
        <ele>1097.96</ele>
        <time>2015-05-18T14:17:03Z</time>
      </trkpt>
      <trkpt lat="44.74523" lon="6.033">
        <ele>1098.92</ele>
        <time>2015-05-18T14:17:15Z</time>
      </trkpt>
      <trkpt lat="44.74523" lon="6.03301">
        <ele>1098.92</ele>
        <time>2015-05-18T14:17:16Z</time>
      </trkpt>
      <trkpt lat="44.74528" lon="6.03305">
        <ele>1098.92</ele>
        <time>2015-05-18T14:17:19Z</time>
      </trkpt>
      <trkpt lat="44.74531" lon="6.03312">
        <ele>1097.96</ele>
        <time>2015-05-18T14:17:24Z</time>
      </trkpt>
      <trkpt lat="44.74533" lon="6.03323">
        <ele>1098.92</ele>
        <time>2015-05-18T14:17:32Z</time>
      </trkpt>
      <trkpt lat="44.74533" lon="6.03323">
        <ele>1098.44</ele>
        <time>2015-05-18T14:18:11Z</time>
      </trkpt>
      <trkpt lat="44.74537" lon="6.03325">
        <ele>1097.96</ele>
        <time>2015-05-18T14:18:47Z</time>
      </trkpt>
      <trkpt lat="44.74538" lon="6.03326">
        <ele>1097.96</ele>
        <time>2015-05-18T14:18:48Z</time>
      </trkpt>
      <trkpt lat="44.74542" lon="6.03332">
        <ele>1097.96</ele>
        <time>2015-05-18T14:18:52Z</time>
      </trkpt>
      <trkpt lat="44.74547" lon="6.0334">
        <ele>1099.89</ele>
        <time>2015-05-18T14:19:01Z</time>
      </trkpt>
      <trkpt lat="44.74549" lon="6.03343">
        <ele>1098.44</ele>
        <time>2015-05-18T14:19:05Z</time>
      </trkpt>
      <trkpt lat="44.7455" lon="6.03345">
        <ele>1099.4</ele>
        <time>2015-05-18T14:19:07Z</time>
      </trkpt>
      <trkpt lat="44.74553" lon="6.03351">
        <ele>1099.4</ele>
        <time>2015-05-18T14:19:13Z</time>
      </trkpt>
      <trkpt lat="44.74561" lon="6.03368">
        <ele>1100.37</ele>
        <time>2015-05-18T14:19:26Z</time>
      </trkpt>
      <trkpt lat="44.74563" lon="6.03374">
        <ele>1100.37</ele>
        <time>2015-05-18T14:19:36Z</time>
      </trkpt>
      <trkpt lat="44.74563" lon="6.03374">
        <ele>1096.04</ele>
        <time>2015-05-18T14:19:37Z</time>
      </trkpt>
      <trkpt lat="44.74563" lon="6.03374">
        <ele>1100.37</ele>
        <time>2015-05-18T14:19:38Z</time>
      </trkpt>
      <trkpt lat="44.74563" lon="6.03374">
        <ele>1100.85</ele>
        <time>2015-05-18T14:19:40Z</time>
      </trkpt>
      <trkpt lat="44.74567" lon="6.03379">
        <ele>1099.89</ele>
        <time>2015-05-18T14:19:51Z</time>
      </trkpt>
      <trkpt lat="44.74567" lon="6.03379">
        <ele>1096.52</ele>
        <time>2015-05-18T14:20:00Z</time>
      </trkpt>
      <trkpt lat="44.74567" lon="6.03379">
        <ele>1100.85</ele>
        <time>2015-05-18T14:20:01Z</time>
      </trkpt>
      <trkpt lat="44.74567" lon="6.03379">
        <ele>1095.56</ele>
        <time>2015-05-18T14:20:02Z</time>
      </trkpt>
      <trkpt lat="44.74567" lon="6.03379">
        <ele>1100.37</ele>
        <time>2015-05-18T14:20:03Z</time>
      </trkpt>
      <trkpt lat="44.74567" lon="6.03379">
        <ele>1103.73</ele>
        <time>2015-05-18T14:20:06Z</time>
      </trkpt>
      <trkpt lat="44.74567" lon="6.03379">
        <ele>1100.37</ele>
        <time>2015-05-18T14:20:09Z</time>
      </trkpt>
      <trkpt lat="44.74567" lon="6.03379">
        <ele>1096.52</ele>
        <time>2015-05-18T14:20:53Z</time>
      </trkpt>
      <trkpt lat="44.74567" lon="6.03379">
        <ele>1100.85</ele>
        <time>2015-05-18T14:20:54Z</time>
      </trkpt>
      <trkpt lat="44.74568" lon="6.03379">
        <ele>1144.11</ele>
        <time>2015-05-18T14:22:11Z</time>
      </trkpt>
      <trkpt lat="44.74568" lon="6.03379">
        <ele>1109.98</ele>
        <time>2015-05-18T14:22:13Z</time>
      </trkpt>
      <trkpt lat="44.74562" lon="6.03375">
        <ele>1110.46</ele>
        <time>2015-05-18T14:22:18Z</time>
      </trkpt>
      <trkpt lat="44.74566" lon="6.03378">
        <ele>1109.98</ele>
        <time>2015-05-18T14:22:23Z</time>
      </trkpt>
      <trkpt lat="44.74564" lon="6.03378">
        <ele>1109.5</ele>
        <time>2015-05-18T14:22:44Z</time>
      </trkpt>
      <trkpt lat="44.74562" lon="6.03382">
        <ele>1108.54</ele>
        <time>2015-05-18T14:23:32Z</time>
      </trkpt>
    </trkseg>
  </trk>
</gpx>